[[{"header":{"parameterUnit":"m.s-1","parameterCategory":1,"la1":30.6,"la2":29.2853,"lo1":-89.7004,"lo2":-87.6739,"dy":0.0162,"dx":0.0183,"nx":112,"ny":82,"refTime":"2024-08-09T12:00:00:Z","depth":0,"parameterNumber":2,"parameterNumberName":"U-component_of_WINDS"},"data":[0.0,0.0,0.0,0.0,0.0,0.0,0.0,0.0,0.0,0.0,0.0,0.0,0.0,0.0,0.0,0.0,0.0,0.0,0.0,0.0,0.0,0.0,0.0,0.0,0.0,0.0,0.0,0.0,0.0,0.0,0.0,0.0,0.0,0.0,0.0,0.0,0.0,0.0,0.0,0.0,0.0,0.0,0.0,0.0,0.0,0.0,0.0,0.0,0.0,0.0,0.0,0.0,0.0,0.0,0.0,0.0,0.0,0.0,0.0,0.0,0.0,0.0,0.0,0.0,0.0,0.0,0.0,0.0,0.0,0.0,0.0,0.0,0.0,0.0,0.0,0.0,0.0,0.0,0.0,0.0,0.0,0.0,0.0,0.0,0.0,0.0,0.0,0.0,0.0,0.0,1.8976,2.1022,2.3031,2.419,2.419,2.419,2.2795,1.9525,0.0,0.0,0.0,0.0,0.0,0.0,0.0,0.0,0.0,0.0,0.0,0.0,0.0,0.0,0.0,0.0,0.0,0.0,0.0,0.0,0.0,0.0,0.0,0.0,0.0,0.0,0.0,0.0,0.0,0.0,0.0,0.0,0.0,0.0,0.0,0.0,0.0,0.0,0.0,0.0,0.0,0.0,0.0,0.0,0.0,0.0,0.0,0.0,0.0,0.0,0.0,0.0,0.0,0.0,0.0,0.0,0.0,0.0,0.0,0.0,0.0,0.0,0.0,0.0,0.0,0.0,0.0,0.0,0.0,0.0,0.0,0.0,0.0,0.0,0.0,0.0,0.0,0.0,0.0,0.0,0.0,0.0,0.0,0.0,0.0,0.0,0.0,0.0,0.0,0.0,0.0,0.0,0.0,0.0,0.0,0.0,0.0,0.0,0.0,0.0,0.0,0.0,0.0,0.0,1.9597,2.3272,2.3988,2.419,2.419,2.419,2.2795,1.9525,0.0,0.0,0.0,0.0,0.0,0.0,0.0,0.0,0.0,0.0,0.0,0.0,0.0,0.0,0.0,0.0,0.0,0.0,0.0,0.0,0.0,0.0,0.0,0.0,0.0,0.0,0.0,0.0,0.0,0.0,0.0,0.0,0.0,0.0,0.0,0.0,0.0,0.0,0.0,0.0,0.0,0.0,0.0,0.0,0.0,0.0,0.0,0.0,0.0,0.0,0.0,0.0,0.0,0.0,0.0,0.0,0.0,0.0,0.0,0.0,0.0,0.0,0.0,0.0,0.0,0.0,0.0,0.0,0.0,0.0,0.0,0.0,0.0,0.0,0.0,0.0,0.0,0.0,0.0,0.0,0.0,0.0,0.0,0.0,0.0,0.0,0.0,0.0,0.0,0.0,0.0,0.0,0.0,0.0,0.0,0.0,0.0,0.0,0.0,0.0,0.0,0.0,0.0,1.9081,2.0678,2.3859,2.419,2.419,2.419,2.419,2.2795,1.9525,1.7803,0.0,0.0,0.0,0.0,0.0,0.0,0.0,0.0,0.0,0.0,0.0,0.0,0.0,0.0,0.0,0.0,0.0,0.0,0.0,0.0,0.0,0.0,0.0,0.0,0.0,0.0,0.0,0.0,0.0,0.0,0.0,0.0,0.0,0.0,0.0,0.0,0.0,0.0,0.0,0.0,0.0,0.0,0.0,0.0,0.0,0.0,0.0,0.0,0.0,0.0,0.0,0.0,0.0,0.0,0.0,0.0,0.0,0.0,0.0,0.0,0.0,0.0,0.0,0.0,0.0,0.0,0.0,0.0,0.0,0.0,0.0,0.0,0.0,0.0,0.0,0.0,0.0,0.0,0.0,0.0,0.0,0.0,0.0,0.0,0.0,0.0,0.0,0.0,0.0,0.0,0.0,0.0,0.0,0.0,0.0,0.0,0.0,0.0,0.0,0.0,0.0,0.0,2.1308,2.2097,2.4006,2.419,2.419,2.419,2.3841,2.2391,1.9473,1.7436,0.0,0.0,0.0,0.0,0.0,0.0,0.0,0.0,0.0,0.0,0.0,0.0,0.0,0.0,0.0,0.0,0.0,0.0,0.0,0.0,0.0,0.0,0.0,0.0,0.0,0.0,0.0,0.0,0.0,0.0,0.0,0.0,0.0,0.0,0.0,0.0,0.0,0.0,0.0,0.0,0.0,0.0,0.0,0.0,0.0,0.0,0.0,0.0,0.0,0.0,0.0,0.0,0.0,0.0,0.0,0.0,0.0,0.0,0.0,0.0,0.0,0.0,0.0,0.0,0.0,0.0,0.0,0.0,0.0,0.0,0.0,0.0,0.0,0.0,0.0,0.0,0.0,0.0,0.0,0.0,0.0,0.0,0.0,0.0,0.0,0.0,0.0,0.0,0.0,0.0,0.0,0.0,0.0,0.0,0.0,0.0,0.0,0.0,0.0,0.0,0.0,0.0,2.2079,2.4006,2.4171,2.419,2.419,2.419,2.2832,2.1215,1.9399,1.639,0.0,0.0,0.0,0.0,0.0,0.0,0.0,0.0,0.0,0.0,0.0,0.0,0.0,0.0,0.0,0.0,0.0,0.0,0.0,0.0,0.0,0.0,0.0,0.0,0.0,0.0,0.0,0.0,0.0,0.0,0.0,0.0,0.0,0.0,0.0,0.0,0.0,0.0,0.0,0.0,0.0,0.0,0.0,0.0,0.0,0.0,0.0,0.0,0.0,0.0,0.0,0.0,0.0,0.0,0.0,0.0,0.0,0.0,0.0,0.0,0.0,0.0,0.0,0.0,0.0,0.0,0.0,0.0,0.0,0.0,0.0,0.0,0.0,0.0,0.0,0.0,0.0,0.0,0.0,0.0,0.0,0.0,0.0,0.0,0.0,0.0,0.0,0.0,0.0,0.0,0.0,0.0,0.0,0.0,0.0,0.0,0.0,0.0,0.0,0.0,0.0,0.0,2.129,2.3088,2.408,2.419,2.419,2.419,2.3639,2.2152,1.947,0.0,0.0,0.0,0.0,0.0,0.0,0.0,0.0,0.0,0.0,0.0,0.0,0.0,0.0,0.0,0.0,0.0,0.0,0.0,0.0,0.0,0.0,0.0,0.0,0.0,0.0,0.0,0.0,0.0,0.0,0.0,0.0,0.0,0.0,0.0,0.0,0.0,0.0,0.0,0.0,0.0,0.0,0.0,0.0,0.0,0.0,0.0,0.0,0.0,0.0,0.0,0.0,0.0,0.0,0.0,0.0,0.0,0.0,0.0,0.0,0.0,0.0,0.0,0.0,0.0,0.0,0.0,0.0,0.0,0.0,0.0,0.0,0.0,0.0,0.0,0.0,0.0,0.0,0.0,0.0,0.0,0.0,0.0,0.0,0.0,0.0,0.0,0.0,0.0,0.0,0.0,0.0,0.0,0.0,0.0,0.0,0.0,0.0,0.0,0.0,0.0,0.0,1.8956,2.1198,2.2978,2.408,2.419,2.419,2.419,2.3474,2.1859,1.9087,0.0,0.0,0.0,0.0,0.0,0.0,0.0,0.0,0.0,0.0,0.0,0.0,0.0,0.0,0.0,0.0,0.0,0.0,0.0,0.0,0.0,0.0,0.0,0.0,0.0,0.0,0.0,0.0,0.0,0.0,0.0,0.0,0.0,0.0,0.0,0.0,0.0,0.0,0.0,0.0,0.0,0.0,0.0,0.0,0.0,0.0,0.0,0.0,0.0,0.0,0.0,0.0,0.0,0.0,0.0,0.0,0.0,0.0,0.0,0.0,0.0,0.0,0.0,0.0,0.0,0.0,0.0,0.0,0.0,0.0,0.0,0.0,0.0,0.0,0.0,0.0,0.0,0.0,0.0,0.0,0.0,0.0,0.0,0.0,0.0,0.0,0.0,0.0,0.0,0.0,0.0,0.0,0.0,0.0,0.0,0.0,0.0,0.0,0.0,0.0,0.0,0.0,1.9084,2.2171,2.419,2.419,2.419,2.419,2.419,2.1951,1.9842,0.0,0.0,0.0,0.0,0.0,0.0,0.0,0.0,0.0,0.0,0.0,0.0,0.0,0.0,0.0,0.0,0.0,0.0,0.0,0.0,0.0,0.0,0.0,0.0,0.0,0.0,0.0,0.0,0.0,0.0,0.0,0.0,0.0,0.0,0.0,0.0,0.0,0.0,0.0,0.0,0.0,0.0,0.0,0.0,0.0,0.0,0.0,0.0,0.0,0.0,0.0,0.0,0.0,0.0,0.0,0.0,0.0,0.0,0.0,0.0,0.0,0.0,0.0,0.0,0.0,0.0,0.0,0.0,0.0,0.0,0.0,0.0,0.0,0.0,0.0,0.0,0.0,0.0,0.0,0.0,0.0,0.0,0.0,0.0,0.0,0.0,0.0,0.0,0.0,0.0,0.0,0.0,0.0,0.0,0.0,0.0,0.0,0.0,0.0,0.0,0.0,0.0,0.0,1.9216,2.224,2.419,2.419,2.419,2.419,2.419,2.3015,2.1308,1.9087,0.0,0.0,0.0,0.0,0.0,0.0,0.0,0.0,0.0,0.0,0.0,0.0,0.0,0.0,0.0,0.0,0.0,0.0,0.0,0.0,0.0,0.0,0.0,0.0,0.0,0.0,0.0,0.0,0.0,0.0,0.0,0.0,0.0,0.0,0.0,0.0,0.0,0.0,0.0,0.0,0.0,0.0,0.0,0.0,0.0,0.0,0.0,0.0,0.0,0.0,0.0,0.0,0.0,0.0,0.0,0.0,0.0,0.0,0.0,0.0,0.0,0.0,0.0,0.0,0.0,0.0,0.0,0.0,0.0,0.0,0.0,0.0,0.0,0.0,0.0,0.0,0.0,0.0,0.0,0.0,0.0,0.0,0.0,0.0,0.0,0.0,0.0,0.0,0.0,0.0,0.0,0.0,0.0,0.0,0.0,0.0,0.0,0.0,0.0,0.0,0.0,0.0,1.922,2.2205,2.419,2.419,2.419,2.419,2.419,2.3474,2.1951,1.9455,0.0,0.0,0.0,0.0,0.0,0.0,0.0,0.0,0.0,0.0,0.0,0.0,0.0,0.0,0.0,0.0,0.0,0.0,0.0,0.0,0.0,0.0,0.0,0.0,0.0,0.0,0.0,0.0,0.0,0.0,0.0,0.0,0.0,0.0,0.0,0.0,0.0,0.0,0.0,0.0,0.0,0.0,0.0,0.0,0.0,0.0,0.0,0.0,0.0,0.0,0.0,0.0,0.0,0.0,0.0,0.0,0.0,0.0,0.0,0.0,0.0,0.0,0.0,0.0,0.0,0.0,0.0,0.0,0.0,0.0,0.0,0.0,0.0,0.0,0.0,0.0,0.0,0.0,0.0,0.0,0.0,0.0,0.0,0.0,0.0,0.0,0.0,0.0,0.0,0.0,0.0,0.0,0.0,0.0,0.0,0.0,0.0,0.0,0.0,0.0,0.0,0.0,1.9133,2.2188,2.419,2.419,2.419,2.419,2.419,2.3474,2.1969,1.9546,0.0,0.0,0.0,0.0,0.0,0.0,0.0,0.0,0.0,0.0,0.0,0.0,0.0,0.0,0.0,0.0,0.0,0.0,0.0,0.0,0.0,0.0,0.0,0.0,0.0,0.0,0.0,0.0,0.0,0.0,0.0,0.0,0.0,0.0,0.0,0.0,0.0,0.0,0.0,0.0,0.0,0.0,0.0,0.0,0.0,0.0,0.0,0.0,0.0,0.0,0.0,0.0,0.0,0.0,0.0,0.0,0.0,0.0,0.0,0.0,1.7844,0.0,0.0,0.0,0.0,0.0,0.0,0.0,0.0,0.0,0.0,0.0,0.0,0.0,0.0,0.0,0.0,0.0,0.0,0.0,0.0,0.0,0.0,0.0,0.0,0.0,0.0,0.0,0.0,0.0,0.0,0.0,0.0,0.0,0.0,0.0,0.0,0.0,0.0,0.0,0.0,0.0,1.9263,2.2222,2.419,2.419,2.419,2.419,2.419,2.3474,2.2208,2.0356,1.7972,0.0,0.0,0.0,0.0,0.0,0.0,0.0,0.0,0.0,0.0,0.0,0.0,0.0,0.0,0.0,0.0,0.0,0.0,0.0,0.0,0.0,0.0,0.0,0.0,0.0,0.0,0.0,0.0,0.0,0.0,0.0,0.0,0.0,0.0,0.0,0.0,0.0,0.0,0.0,0.0,0.0,0.0,0.0,0.0,0.0,0.0,0.0,0.0,0.0,0.0,0.0,0.0,0.0,0.0,0.0,0.0,0.0,0.0,0.0,0.0,1.9832,0.0,0.0,0.0,0.0,0.0,0.0,0.0,0.0,0.0,0.0,0.0,0.0,0.0,0.0,0.0,0.0,0.0,0.0,0.0,0.0,0.0,0.0,0.0,0.0,0.0,0.0,0.0,0.0,0.0,0.0,0.0,0.0,0.0,0.0,0.0,0.0,0.0,0.0,0.0,0.0,1.9763,2.2462,2.419,2.419,2.419,2.419,2.419,2.3823,2.3052,2.1768,1.9418,0.0,0.0,0.0,0.0,0.0,0.0,0.0,0.0,0.0,0.0,0.0,0.0,0.0,0.0,0.0,0.0,0.0,0.0,0.0,0.0,0.0,0.0,0.0,0.0,0.0,0.0,0.0,0.0,0.0,0.0,0.0,0.0,0.0,0.0,0.0,0.0,0.0,0.0,0.0,0.0,0.0,0.0,0.0,0.0,0.0,0.0,0.0,0.0,0.0,0.0,0.0,0.0,0.0,2.4986,2.5276,2.5185,2.5416,2.5479,2.5354,2.3866,2.3179,2.305,2.2319,0.0,0.0,0.0,0.0,0.0,0.0,0.0,0.0,0.0,0.0,0.0,0.0,0.0,0.0,0.0,0.0,0.0,0.0,0.0,0.0,0.0,0.0,0.0,0.0,2.2914,2.3056,2.0401,0.0,0.0,0.0,0.0,0.0,0.0,0.0,0.0,0.0,0.0,0.0,2.0519,2.2758,2.419,2.419,2.419,2.419,2.419,2.419,2.3859,2.3052,2.0941,1.9363,0.0,0.0,0.0,0.0,0.0,0.0,0.0,0.0,0.0,0.0,0.0,0.0,0.0,0.0,0.0,0.0,0.0,0.0,0.0,0.0,0.0,0.0,0.0,0.0,0.0,0.0,0.0,0.0,0.0,0.0,0.0,0.0,1.5695,1.6556,0.0,0.0,0.0,0.0,0.0,0.0,0.0,0.0,0.0,0.0,0.0,0.0,0.0,2.4729,2.6005,2.7227,2.777,2.7676,2.8854,2.9023,2.8308,2.8329,2.8945,2.988,2.8917,0.0,2.4582,2.3179,0.0,0.0,0.0,0.0,0.0,0.0,0.0,0.0,0.0,0.0,0.0,0.0,0.0,0.0,0.0,0.0,0.0,0.0,0.0,0.0,0.0,0.0,2.5825,2.5866,2.6011,2.6048,0.0,2.2959,2.0114,1.8289,1.7893,0.0,0.0,0.0,0.0,0.0,0.0,0.0,2.1435,2.3125,2.419,2.419,2.419,2.419,2.419,2.419,2.3859,2.3052,2.2042,2.107,2.0209,1.7752,0.0,0.0,0.0,0.0,0.0,0.0,0.0,0.0,0.0,0.0,0.0,0.0,0.0,0.0,0.0,0.0,0.0,0.0,0.0,0.0,0.0,0.0,0.0,0.0,0.0,0.0,0.0,0.0,0.0,1.5738,1.7981,1.9193,1.9688,1.9644,0.0,0.0,0.0,0.0,0.0,0.0,0.0,0.0,0.0,2.4919,2.6512,2.7657,2.8323,2.9582,3.0161,3.0054,3.1066,3.111,3.0306,3.0309,3.0348,3.041,2.9597,2.8483,2.716,2.6289,2.5108,2.3819,0.0,0.0,0.0,0.0,2.2257,2.2695,2.2417,2.2594,2.27,2.1399,0.0,0.0,0.0,0.0,0.0,0.0,0.0,0.0,0.0,0.0,2.6612,2.6612,2.6612,2.6612,2.6612,2.5317,2.3521,0.0,2.0656,1.9685,1.7704,0.0,0.0,0.0,0.0,2.1193,2.2318,2.3474,2.419,2.419,2.419,2.419,2.419,2.419,2.4043,2.3694,2.2923,2.2299,2.1915,1.9989,1.832,0.0,0.0,0.0,0.0,0.0,0.0,0.0,0.0,0.0,0.0,0.0,0.0,0.0,0.0,0.0,0.0,0.0,0.0,0.0,0.0,0.0,0.0,0.0,0.0,0.0,0.0,0.0,0.0,1.7821,2.0007,2.1422,2.1901,2.1965,0.0,0.0,0.0,0.0,0.0,0.0,2.5259,2.6527,2.7432,2.7881,2.9437,3.0243,3.0134,3.1589,3.2172,3.1836,3.2718,3.2625,3.1647,3.1635,3.1265,3.0577,2.9988,2.9736,2.9619,2.8631,2.7324,2.5854,2.5222,2.481,2.4615,2.4866,2.5244,2.562,2.5564,2.5685,2.5697,2.4601,2.3967,2.3492,2.2681,0.0,0.0,0.0,0.0,2.5385,2.599,2.6677,2.7218,2.7218,2.7218,2.7218,2.7218,2.7053,2.6321,0.0,2.3508,2.2432,2.0322,0.0,0.0,0.0,0.0,2.2391,2.3199,2.3823,2.419,2.419,2.419,2.419,2.419,2.419,2.419,2.419,2.3639,2.3309,2.3309,2.1896,2.0356,1.8757,0.0,0.0,0.0,0.0,0.0,0.0,0.0,0.0,0.0,0.0,0.0,0.0,0.0,0.0,0.0,0.0,0.0,0.0,0.0,0.0,0.0,0.0,0.0,0.0,0.0,0.0,0.0,0.0,0.0,2.2812,2.4246,0.0,0.0,0.0,0.0,2.4657,2.574,2.6885,2.8052,2.932,3.0002,3.0039,3.1616,3.2256,3.1874,3.3834,3.4176,3.2941,3.4129,3.3824,3.2247,3.2258,3.2068,3.1704,3.1668,3.1685,3.1476,2.8885,2.7964,2.8075,2.733,2.7248,2.7432,2.7157,2.7749,2.8546,2.7469,2.7604,2.8288,2.8587,2.767,2.6611,2.7264,2.6362,0.0,0.0,2.7461,2.809,2.8144,2.8494,2.8865,2.8865,2.8865,2.8865,2.8865,2.8282,2.7475,0.0,2.6392,2.5823,2.419,0.0,2.3713,2.2942,2.2887,2.3235,2.4043,2.4171,2.419,2.419,2.419,2.419,2.419,2.419,2.419,2.419,2.4153,2.4135,2.4135,2.3327,2.208,2.0411,1.8045,0.0,0.0,0.0,0.0,0.0,0.0,0.0,0.0,0.0,0.0,0.0,0.0,0.0,0.0,0.0,0.0,0.0,0.0,0.0,0.0,0.0,0.0,0.0,0.0,0.0,0.0,0.0,0.0,2.5967,2.6417,0.0,2.6454,2.668,2.7121,2.7807,2.8998,3.0184,3.1322,3.2332,3.2853,3.2698,3.3562,3.3815,3.3354,3.4333,3.4753,3.4602,3.4712,3.4624,3.4341,3.3731,3.3399,3.3256,3.2963,3.2804,3.2753,3.1811,3.0658,2.9377,2.8663,2.8594,2.8903,2.8791,2.9204,2.9738,2.9352,2.9378,2.9607,2.9449,2.8843,2.8234,2.8492,2.8297,2.8122,2.8522,2.9047,2.9543,2.9835,3.0017,3.0093,2.9826,2.9769,2.9641,2.9104,2.8755,2.8503,2.8187,2.731,2.6245,2.5144,2.5401,2.5474,2.4667,2.4997,2.5419,2.5713,2.575,2.5548,2.5016,2.498,2.4759,2.4245,2.419,2.419,2.419,2.419,2.419,2.419,2.3914,2.2997,2.1363,1.9934,1.7513,0.0,0.0,0.0,0.0,0.0,0.0,0.0,0.0,0.0,0.0,0.0,0.0,0.0,0.0,0.0,0.0,0.0,0.0,0.0,0.0,0.0,0.0,0.0,0.0,0.0,2.3026,2.5005,2.7634,2.8059,2.8326,2.8816,2.9286,2.9851,3.0574,3.1715,3.2705,3.341,3.4127,3.4512,3.4584,3.4889,3.4818,3.4341,3.5048,3.5297,3.5172,3.5254,3.5236,3.5136,3.451,3.4088,3.3865,3.3515,3.3406,3.3406,3.3406,3.2544,3.114,3.0378,3.0282,3.0487,3.0229,3.0352,3.0606,3.0606,3.0705,3.072,3.0283,2.9882,2.9587,2.9712,2.9834,2.997,3.0252,3.0525,3.082,3.1121,3.1092,3.0902,3.0498,3.0396,3.0177,2.9375,2.9193,2.9144,2.9025,2.8132,2.7163,2.6337,2.6649,2.6722,2.5915,2.6264,2.6612,2.6612,2.6612,2.641,2.586,2.5568,2.5182,2.4649,2.4355,2.419,2.419,2.419,2.419,2.419,2.3933,2.3162,2.1839,2.0152,1.7972,1.5294,0.0,0.0,0.0,0.0,0.0,0.0,0.0,0.0,0.0,0.0,0.0,0.0,0.0,0.0,0.0,0.0,0.0,0.0,0.0,0.0,0.0,0.0,0.0,2.3242,2.5235,2.6951,2.7725,2.9198,3.0131,3.0085,3.1308,3.2303,3.2896,3.3807,3.4298,3.4146,3.4563,3.5012,3.5504,3.5537,3.5321,3.4836,3.6039,3.5948,3.4583,3.5778,3.5761,3.4566,3.4523,3.4134,3.3474,3.3474,3.3474,3.3474,3.3474,3.3474,3.3389,3.2611,3.2347,3.2263,3.1551,3.128,3.1263,3.123,3.1524,3.1752,3.1351,3.1011,3.0837,3.1205,3.1073,3.0939,3.1793,3.2018,3.2018,3.2018,3.1738,3.1338,3.0948,3.0864,3.0648,2.9837,2.9656,2.9546,2.9167,2.9049,2.8796,2.797,2.7842,2.7567,2.6796,2.6686,0.0,2.6686,2.6686,2.6667,2.6649,2.5933,2.5458,2.5403,2.4685,2.4226,2.419,2.419,2.419,2.419,2.3456,2.2666,2.1858,1.8647,1.6963,1.6963,0.0,0.0,0.0,0.0,0.0,0.0,0.0,0.0,0.0,0.0,0.0,0.0,0.0,0.0,0.0,0.0,0.0,0.0,0.0,0.0,0.0,2.3522,2.5213,2.5596,2.6953,2.8481,3.011,3.0903,3.1568,3.2106,3.3,3.3591,3.3779,3.4814,3.542,3.5392,3.6453,3.6756,3.6155,3.6535,3.6292,3.5377,3.5752,3.5897,3.5872,3.5839,3.5822,3.5855,3.546,3.5199,3.5013,3.5013,3.5013,3.5013,3.5013,3.5013,3.4895,3.3592,3.3332,3.3601,3.3395,3.3159,3.2843,3.2354,3.2213,3.2282,3.2196,3.2073,3.2033,3.2133,3.2082,3.2066,3.2296,3.236,3.2442,3.2799,3.2785,3.2591,3.221,3.2109,3.1889,3.1068,3.0929,3.0881,3.0754,3.0265,2.9622,2.8815,2.8686,2.8613,2.8374,2.8333,0.0,2.8333,2.8333,2.8136,2.753,2.7273,2.6667,2.5513,2.5201,2.4814,2.4245,2.419,2.419,2.419,2.3988,2.3492,2.2685,2.0023,1.8647,0.0,0.0,0.0,0.0,0.0,0.0,0.0,0.0,0.0,0.0,0.0,0.0,0.0,0.0,0.0,0.0,0.0,0.0,0.0,0.0,0.0,0.0,2.6082,2.7911,2.8435,2.9145,3.009,3.1549,3.2176,3.2774,3.3551,3.4214,3.4651,3.4734,3.56,3.6025,3.5786,3.6505,3.6768,3.6416,3.6684,3.6563,3.5941,3.5941,3.5985,3.6054,3.5739,3.5783,3.6054,3.5739,3.5622,3.5622,3.5622,3.5622,3.5622,3.5622,3.5622,0.0,0.0,0.0,0.0,0.0,3.4004,3.381,3.3598,3.3294,3.2995,3.2995,3.2765,3.255,3.2745,3.2777,3.2809,3.2996,3.3027,3.3105,3.339,3.3447,3.3338,3.2958,3.2858,3.2611,3.181,3.1646,3.1589,3.1433,3.0742,0.0,2.9586,2.9237,2.8994,2.8994,2.8994,2.8994,2.8994,2.8994,2.881,2.8356,2.7989,2.7273,2.6007,2.5605,0.0,0.0,0.0,2.4043,2.3712,2.3694,0.0,0.0,0.0,0.0,0.0,0.0,0.0,0.0,1.8794,1.8532,0.0,0.0,0.0,0.0,0.0,0.0,0.0,0.0,0.0,0.0,0.0,0.0,0.0,0.0,0.0,0.0,2.8594,3.0514,3.1326,3.1512,3.1765,3.2341,3.3068,3.3778,3.4438,3.5008,3.5418,3.5571,3.614,3.6225,3.5711,0.0,0.0,0.0,0.0,3.6582,3.6446,3.6446,3.614,3.5622,3.5622,3.5622,3.5622,3.5622,3.5622,3.5622,3.5622,3.5622,3.5622,3.5622,3.5622,3.5554,3.4878,3.4624,3.4609,3.4324,3.4246,3.4268,3.4638,0.0,0.0,3.3757,3.3298,3.2831,3.3127,3.328,3.3382,3.3671,3.378,3.3807,3.3807,3.3807,3.3707,3.3361,3.3273,3.3074,3.2358,3.2213,3.2081,3.1737,3.0944,3.0338,3.0338,2.9604,2.8994,2.8994,2.8994,2.8994,2.8994,2.8994,2.8994,2.8994,0.0,0.0,2.6796,2.5988,2.5181,2.4392,2.4245,2.3878,2.3162,2.3144,2.2795,2.2097,2.2078,2.2409,2.3144,2.3144,2.3144,2.307,2.0152,1.9731,0.0,0.0,0.0,0.0,0.0,0.0,0.0,0.0,0.0,0.0,0.0,0.0,0.0,0.0,0.0,2.8965,3.0247,3.1444,3.2797,3.3491,3.3677,3.3237,3.3829,3.4336,3.4472,3.5118,3.5542,3.5605,3.6288,3.6563,3.6259,3.7387,3.781,3.7292,3.7863,3.7696,3.6718,3.6718,3.6322,3.5622,0.0,0.0,3.5622,3.5622,3.5622,3.5622,3.5622,3.5622,3.5622,3.5622,3.5622,3.5605,3.5453,3.5402,3.5301,3.4686,3.444,3.4355,3.385,3.3864,3.4036,3.4036,3.4158,3.4199,3.3683,3.3788,0.0,3.3454,3.355,3.3807,3.3807,3.3807,3.378,3.3707,3.368,3.3643,3.3479,3.3442,3.3433,3.3366,3.2155,3.1164,3.1164,2.9971,2.8994,2.8994,2.8994,2.8994,2.8994,2.8994,2.8994,2.8994,2.8847,2.8448,2.764,2.6833,2.6025,2.5219,2.4557,2.4135,2.3969,2.3969,2.3896,2.3731,2.3731,2.3804,2.3969,2.3969,2.3969,2.3951,2.3327,2.2738,0.0,0.0,0.0,0.0,0.0,0.0,0.0,0.0,0.0,0.0,0.0,2.3814,2.4782,0.0,2.857,2.992,3.1128,3.2232,3.3273,3.4096,3.4415,3.3989,3.4607,3.5064,3.5064,3.5402,3.5774,3.618,3.6552,3.6893,3.7148,3.7832,3.8071,3.7695,3.8037,3.7933,3.7347,3.7347,3.6958,3.6197,3.6197,3.5994,3.5622,3.5622,3.5622,3.5622,3.5622,3.5622,3.5622,3.5622,3.5622,3.5622,3.5622,3.5622,3.5571,3.5471,3.5446,3.5437,3.533,3.517,3.5014,3.5014,3.4883,3.4677,3.4599,3.4422,3.4253,3.4146,3.3963,3.3807,3.3807,3.3807,3.3807,3.3807,3.3807,3.3807,3.3807,3.3807,3.3807,3.3807,3.2834,3.2008,3.2008,3.0668,2.9475,2.9049,2.8994,2.8994,2.8994,2.8994,2.8994,2.8994,2.8994,2.8686,2.786,2.7053,2.6264,2.5458,2.5035,2.4612,2.4208,2.419,2.419,2.419,2.419,2.419,2.419,2.419,2.441,2.4795,2.4795,2.4498,0.0,0.0,0.0,0.0,0.0,0.0,0.0,0.0,2.1236,2.3274,2.4759,2.6078,2.7265,2.8614,2.9767,3.0529,3.1709,3.2755,3.3419,3.4022,3.4378,3.4325,3.5099,3.5622,3.5622,3.5622,3.5876,3.6502,3.6823,3.7195,3.7669,3.8091,3.8261,3.8125,3.8261,3.8261,3.8125,3.8125,3.7736,3.6992,3.6992,3.6671,3.6062,3.6062,3.5977,3.5825,3.569,3.5622,3.5622,3.5622,3.5622,3.5622,3.5622,3.5622,3.5667,3.6097,3.6249,3.6291,3.6764,3.6443,3.5861,3.5861,3.5384,3.4934,3.5348,3.5052,3.4659,3.4845,3.4486,3.4009,3.3844,3.3807,3.3807,3.3807,3.3807,3.3807,3.3807,3.3807,3.3807,3.3807,3.3146,3.2614,3.2614,3.1403,3.0173,2.9342,2.9085,2.8994,2.8994,2.8994,2.8994,2.8994,2.8994,2.8686,2.786,2.7218,2.6484,2.5676,2.5621,2.5328,2.4685,2.4667,2.4667,2.4667,2.4667,2.4667,2.4667,2.4667,2.4997,2.5621,2.5621,2.5601,1.7869,1.8563,1.9453,1.9731,2.0537,2.1839,0.0,0.0,2.4921,2.6561,2.8,2.9007,2.9195,3.0257,3.139,3.2107,3.2363,3.2732,3.3492,3.3636,3.3703,3.3673,3.4797,3.5622,3.5622,3.5622,3.5656,3.574,3.7009,3.7533,3.6941,3.8768,3.9529,3.8886,3.9495,3.9529,3.887,3.887,3.8514,3.7787,3.7787,3.7736,3.7652,3.7652,3.7297,3.662,3.5926,3.5622,3.5622,3.5622,3.5622,3.5622,3.5622,3.5622,3.5622,3.5667,3.5694,3.5694,3.5783,3.5715,3.5647,3.5647,3.5579,3.5479,3.5342,3.5513,3.5545,3.4691,3.467,3.4697,3.399,3.3807,3.3807,3.3807,3.3807,3.3807,3.3807,3.3807,3.3807,3.3807,3.3146,3.2614,3.2614,3.1861,3.098,3.0191,2.9475,2.8994,2.8994,2.8994,2.8994,2.8994,2.8994,2.8686,2.786,2.7714,2.731,2.6521,2.6465,2.6429,2.6337,2.6337,2.6337,2.6337,2.6337,2.6337,2.6337,2.6337,2.6392,2.6465,2.6465,2.6301,1.999,2.0775,2.1432,0.0,2.281,2.4234,2.5272,2.6045,2.6862,2.7894,2.9188,3.0099,3.0099,3.0861,3.1559,0.0,3.1897,3.2207,3.2902,3.3039,3.304,3.3022,3.3843,3.4609,3.4988,3.5362,3.5994,3.6891,3.755,3.8142,3.8667,3.958,3.9935,3.9631,3.9918,3.9935,3.9631,3.9631,3.9259,3.8531,3.8531,3.8328,3.7905,3.7905,3.7499,3.6755,3.6434,3.6045,3.5622,3.5622,3.5622,3.5622,3.5622,3.5622,3.5622,3.5622,3.5622,3.5622,3.5622,3.5622,3.5622,3.5622,3.5622,3.5644,3.587,3.5722,3.5384,3.4781,3.4425,3.4015,3.3224,3.3027,3.3118,3.339,3.3447,3.3522,3.3734,3.3807,3.3807,3.3807,3.3532,3.3311,3.3311,3.2632,3.199,3.1659,3.0522,2.9549,2.9049,2.8994,2.8994,2.8994,2.8994,2.8847,2.8539,2.8503,2.8172,2.7346,2.7291,2.709,2.6631,2.6612,2.6612,2.6612,2.6362,2.6254,2.6254,2.6051,2.6206,2.6655,2.6655,2.6839,2.0898,2.1932,0.0,2.2822,2.4452,2.6051,2.6051,2.7274,2.8517,2.9026,3.0013,3.0791,3.0791,3.1195,3.1482,3.1482,3.1482,3.1697,3.2216,3.2158,3.2075,3.2264,3.276,3.3323,3.3955,3.464,3.5649,3.7163,3.7496,3.8218,3.9715,3.9969,4.007,4.007,4.007,4.007,4.007,4.007,3.9817,3.9292,3.9292,3.9005,3.8497,3.8311,3.7804,3.7077,3.6874,3.6332,3.5622,3.5622,3.5622,3.5622,3.5622,3.5622,3.5622,3.5622,3.5622,3.5622,3.5622,3.5622,3.5622,3.5622,3.5622,3.5694,3.6224,3.5994,3.5416,3.494,3.4394,3.3704,3.2732,3.2484,3.2583,3.2921,3.3124,3.3273,3.3578,3.3734,3.3807,3.3807,3.3807,3.3807,3.3807,3.333,3.2871,3.2632,3.1421,3.0246,2.9439,2.9122,2.8994,2.8994,2.8994,2.8994,2.8994,2.8994,2.8737,2.8172,2.8136,2.7816,2.7123,2.7104,2.7041,2.6949,2.6675,2.6534,2.6534,2.6277,2.6462,2.7038,2.7038,2.7282,0.0,0.0,2.2696,2.3084,2.5222,2.7262,2.7262,2.8884,3.0417,3.0447,3.1001,3.1437,3.1437,3.1467,3.1482,3.1482,3.1482,3.1539,3.1524,3.0956,3.0818,3.1477,3.1634,3.1911,3.2579,3.3287,3.4244,3.5663,3.6455,3.7469,3.8971,3.9698,4.007,4.007,4.007,4.007,4.007,4.007,4.007,4.0054,4.0054,4.0037,3.9986,3.9276,3.8565,3.7838,3.7094,3.6332,3.5622,3.5622,3.5622,3.5622,3.5622,3.5622,3.5622,3.5622,3.5622,3.5622,3.5622,3.5622,3.5622,3.5622,3.5622,3.5694,3.6224,3.6357,3.6151,3.5098,3.4765,3.4411,3.2907,3.2484,3.2517,3.2517,3.289,3.3214,3.3214,3.3522,3.3807,3.3807,3.3807,3.3807,3.3807,3.377,3.3495,3.2724,3.1898,3.1072,3.0265,2.9494,2.8994,2.8994,2.8994,2.8994,2.8994,2.8994,2.8975,2.8957,2.8957,2.8785,2.8373,2.8348,2.8192,2.7883,2.7855,2.7855,2.7855,2.7826,2.7844,2.7862,2.7862,2.766,2.1225,0.0,2.3768,2.4356,2.6144,2.7781,2.7781,2.8651,2.9373,2.9021,2.955,2.9944,2.9491,2.9859,3.0372,3.0791,3.0851,3.1001,3.1407,3.1345,3.1106,3.0881,3.1272,3.1429,3.1243,3.2651,0.0,3.5564,3.6389,3.7453,3.8905,3.9681,4.007,4.007,4.007,4.007,4.007,4.007,4.007,4.007,4.007,4.007,4.007,3.9817,3.9326,3.8582,3.7855,3.7094,3.6349,3.5825,3.5622,3.5622,3.5622,3.5622,3.5622,3.5622,3.5622,3.5622,3.5622,3.5622,3.5622,3.5622,3.5622,3.5605,3.581,3.5854,3.5676,3.4844,3.4232,3.363,3.2616,3.1998,3.1677,3.1968,3.24,3.2763,3.2763,3.3284,3.3734,3.3447,3.3625,3.3807,3.3807,3.3807,3.3715,3.344,3.1806,3.032,2.9512,2.9159,2.8994,2.8994,2.8994,2.8994,2.8994,2.8749,2.859,2.859,2.8386,2.8201,2.8075,2.8075,2.8037,2.7897,2.7619,2.75,2.75,2.7224,2.7115,2.7115,2.7115,2.7019,2.1964,2.3253,2.4292,2.5114,2.6595,2.7859,2.7859,2.831,2.8567,2.8005,2.7947,2.7883,2.7511,2.7683,2.8243,2.9185,2.9616,3.0125,3.0969,3.1127,3.118,3.1225,3.1405,3.1539,3.1569,3.2757,0.0,3.4936,3.5877,3.689,3.8166,3.888,3.9279,3.9279,3.9279,3.9279,3.9279,3.9279,3.9385,3.9662,3.9662,3.9833,4.007,4.007,3.9681,3.8954,3.8227,3.7483,3.6721,3.5943,3.5622,3.5622,3.5622,3.5622,3.5622,3.5622,3.5622,3.5622,3.5622,3.5622,3.5622,3.5622,3.5622,3.5622,3.5622,3.5622,3.547,3.4709,3.3964,3.3288,3.2814,3.1935,3.132,3.1871,3.2141,3.223,3.223,3.2822,3.3255,3.3014,3.3166,3.3361,3.3361,3.3361,3.3252,3.2962,3.1592,3.0368,2.9758,2.9039,2.8601,2.8601,2.8601,2.8601,2.8601,2.8386,2.8237,2.8237,2.802,2.784,2.7678,2.7695,2.7619,2.747,2.721,2.7083,2.7083,2.6825,2.6691,2.6691,2.6691,2.6691,2.2096,2.3226,2.433,2.5372,2.6616,2.7657,2.7564,2.7799,2.7856,2.7152,2.6245,2.5506,2.545,2.5098,2.535,2.6954,2.7968,2.8944,3.0081,3.0382,3.0962,0.0,0.0,0.0,0.0,0.0,0.0,3.3686,0.0,3.5931,3.6774,3.7422,3.7822,3.7822,3.7822,3.7822,3.7822,3.7822,3.8149,3.8854,3.8854,3.9315,4.002,4.007,3.9698,3.9005,3.8278,3.7533,3.6772,3.5994,3.5656,3.5622,3.5622,3.5622,3.5622,3.5622,3.5622,3.5622,3.5622,3.5622,3.5622,3.5622,3.5622,3.5622,3.5622,3.5622,3.547,3.4742,3.4032,3.3457,3.3423,3.2324,3.141,3.211,3.2021,3.1771,3.1789,3.2127,3.2484,3.2484,3.2484,3.2484,3.2484,3.2484,3.2237,3.1476,3.1303,3.116,3.089,2.9165,2.795,2.795,2.7915,2.7897,2.7897,2.7869,2.7869,2.7869,2.784,2.7666,2.7303,2.7272,2.7083,2.6691,2.6691,2.6691,2.6691,2.6691,2.6691,2.6691,2.6691,2.6708,2.3263,2.4356,2.536,2.6063,2.6544,2.6667,2.6222,2.5896,2.529,2.3844,2.3474,2.3164,2.2339,2.3183,2.4448,2.5758,2.6888,0.0,2.9149,2.9694,0.0,3.1395,0.0,3.2328,3.3393,3.3933,0.0,0.0,3.4831,3.5947,3.6678,3.7422,3.7822,3.7822,3.7822,3.7822,3.7822,3.7822,3.7863,3.8092,3.8635,3.9032,3.9209,3.985,3.9969,3.9766,3.9039,3.8294,3.7567,3.6806,3.6146,3.5622,3.5622,3.5622,3.5622,3.5622,3.5622,3.5622,3.5622,3.5622,3.5622,3.5622,3.5622,3.5622,3.5622,3.5622,3.5588,3.5385,3.4793,3.4083,3.3541,3.2713,3.1918,3.1562,3.1644,3.1733,3.1411,3.195,3.2417,3.2074,3.2264,3.2484,3.2484,3.2484,3.2413,3.2219,3.144,3.0725,3.0335,2.9379,2.8718,2.8718,2.8234,2.7897,2.7897,2.7636,2.7439,2.7439,2.7178,2.6971,2.6841,2.6841,2.6808,2.6691,2.6691,2.6691,2.6691,2.6691,2.6691,2.6691,2.6691,2.6996,2.3806,2.47,2.5411,2.573,2.5632,2.5388,2.5006,2.4293,2.3238,2.1556,2.0936,2.0485,1.9885,2.062,2.1854,0.0,0.0,0.0,2.7895,2.909,3.0127,0.0,3.1911,0.0,3.3627,3.449,3.4771,0.0,3.5122,3.56,3.5742,3.6395,3.6784,3.6784,3.6784,3.6784,3.6784,3.6784,3.6935,3.7263,3.77,3.806,3.8414,3.887,3.9102,3.9069,0.0,3.8254,3.7836,3.7424,3.6823,3.6129,3.6129,3.5926,3.5622,3.5622,3.5622,3.5622,3.5622,3.5622,3.5622,3.5622,3.5622,3.5622,3.5622,3.5622,3.5622,3.5622,3.5081,3.4387,3.3981,3.3085,3.2212,3.1765,3.1628,3.147,3.1269,3.1582,3.1842,3.1565,3.175,3.1932,3.1932,3.1932,3.1932,3.1932,3.1334,3.0848,3.0595,2.9363,2.8494,2.8494,2.7799,2.7378,2.7378,2.7178,2.7036,2.7036,2.6808,2.6691,2.6691,2.6691,2.6691,2.6691,2.6691,2.6691,2.6691,2.6691,2.6691,2.6708,2.7029,2.7418,2.3753,2.4472,2.4992,2.4779,2.4295,2.3907,2.364,2.2708,2.1494,1.9936,0.0,1.8078,1.799,1.8103,1.8907,2.1041,0.0,2.4708,2.6488,2.8302,2.9724,3.0527,3.1909,3.31,3.3751,3.4706,3.5294,3.5294,3.5424,3.525,3.4637,3.5175,3.5504,3.5504,3.5504,3.5504,3.5504,3.5504,3.5831,3.6446,3.6554,3.6964,3.7632,3.7748,3.7822,3.779,3.778,3.7724,3.7646,3.7703,3.7326,3.6616,3.6616,3.619,3.5622,3.5622,3.5622,3.5622,3.5622,3.5622,3.5622,3.5622,3.5622,3.5622,3.5622,3.5622,3.5622,3.5622,3.5148,3.459,3.4387,3.3389,3.2374,3.2188,3.1647,3.119,3.119,3.119,3.119,3.119,3.119,3.119,3.119,3.119,3.119,3.119,3.119,3.119,3.119,2.9397,2.806,2.7958,2.73,2.681,2.6708,2.6691,2.6691,2.6691,2.6691,2.6691,2.6691,2.6691,2.6691,2.6691,2.6691,2.6691,2.6691,2.6691,2.6691,2.6708,2.7368,2.7739,2.305,2.3954,2.4684,2.3532,2.2901,2.2363,2.1687,2.0779,0.0,0.0,1.7965,1.7375,1.6898,1.7576,1.8769,2.0526,2.1901,2.3416,2.5559,2.6965,2.8221,0.0,3.0806,3.1852,3.2735,3.3671,0.0,0.0,3.5052,3.5444,3.5325,3.5444,3.5504,3.5504,3.5504,3.5504,3.5504,3.5504,3.5554,3.5733,3.6337,3.6661,3.6843,3.7515,3.7822,3.7806,3.7792,0.0,3.6901,3.6899,3.6466,3.5811,3.5811,3.5719,3.5622,3.5622,3.5622,3.5622,3.5622,3.5622,3.5622,3.5622,3.5622,3.5622,3.5622,3.5622,3.5622,3.5622,3.552,3.5148,3.3914,3.3406,3.2899,3.1681,3.1275,3.119,3.119,3.119,3.119,3.119,3.119,3.119,3.119,3.119,3.119,3.119,3.119,3.119,3.119,3.0328,2.9482,2.8856,2.8095,2.7368,2.6742,2.6691,2.6691,2.6691,2.6691,2.6691,2.6691,2.6691,2.6691,2.6691,2.6691,2.6691,2.6691,2.6691,2.6691,2.6691,2.6826,2.7571,2.2012,2.271,2.3256,2.2335,2.1528,2.0875,2.031,0.0,0.0,0.0,1.6459,1.6082,1.6082,1.6773,0.0,1.9158,2.03,2.1782,2.4004,2.5523,2.7025,2.8569,3.0189,3.1389,3.1815,3.2749,3.3241,3.3241,3.3754,3.4409,3.5439,3.5504,3.5504,3.5504,3.5504,3.5504,3.5504,3.5504,3.5504,3.5504,3.5831,3.6054,3.6054,3.643,3.66,3.66,3.6995,3.6955,3.6699,3.7122,3.6644,3.5623,3.5623,3.5431,3.5098,3.5098,3.5316,3.5622,3.5622,3.5622,3.5622,3.5622,3.5622,3.5622,3.5622,3.5622,3.5622,3.5622,3.5622,3.5284,3.3795,3.3406,3.3034,3.1546,3.119,3.119,3.119,3.119,3.119,3.119,3.119,3.119,3.119,3.119,3.119,3.119,3.119,3.119,3.119,3.0886,3.0395,2.9651,2.8518,2.7637,2.73,2.6911,2.6691,2.6691,2.6691,2.6691,2.6691,2.6691,2.6691,2.6691,2.6691,2.6691,2.6691,2.6691,2.6691,2.6708,2.752,2.8281,2.0855,2.1334,2.1565,2.0959,2.01,1.9225,1.8873,1.7705,0.0,1.5659,1.5174,1.5079,1.5593,1.6045,1.6748,0.0,1.9007,2.0413,2.2648,2.4381,2.605,2.7733,2.9593,0.0,3.0895,3.1756,0.0,3.2321,3.2464,3.3325,3.5067,3.5359,3.5504,3.5504,3.5504,3.5504,3.5504,3.5504,3.5504,3.5504,3.5504,3.5504,3.5504,3.5504,3.5504,3.5504,3.6102,3.6384,3.6384,3.6883,3.6432,3.5458,3.5299,3.4897,3.4382,3.4382,3.4736,3.5207,3.5362,3.5362,3.5362,3.5362,3.547,3.5622,3.5622,3.5622,3.5622,3.5622,3.5622,3.5284,3.3795,3.3406,3.3034,3.1546,3.119,3.119,3.119,3.119,3.119,3.119,3.119,3.119,3.119,3.119,3.119,3.119,3.119,3.119,3.119,3.119,3.097,3.0395,2.9127,2.8144,2.7823,2.7283,2.686,2.6708,2.6691,2.6691,2.6691,2.6691,2.6691,2.6691,2.6691,2.6691,2.6691,2.659,2.6624,2.6725,2.7864,2.8548,1.9543,2.0216,2.0563,1.9203,1.8252,1.7461,1.6832,0.0,1.5308,1.4936,1.4882,1.5079,1.5593,1.5731,1.6308,1.794,0.0,1.9874,2.2071,2.3841,2.5511,2.7155,0.0,0.0,2.9883,3.0771,3.1315,3.1315,3.2105,3.3031,3.4095,3.4986,3.5504,3.5504,3.5504,3.5504,3.5504,3.5504,3.5504,3.5504,3.5504,3.5504,3.5504,3.5504,3.5504,3.5504,3.5554,3.5619,0.0,3.4991,3.4759,3.455,3.3945,3.3723,3.3684,3.3684,3.3735,3.3887,3.4479,3.4688,3.4688,3.4688,3.5098,3.5622,3.5622,3.5622,3.5622,3.5622,3.5622,3.5284,3.3795,3.3406,3.3034,3.1546,3.119,3.119,3.119,3.119,3.119,3.119,3.119,3.119,3.119,3.119,3.119,3.119,3.119,3.119,3.119,3.119,3.1173,3.1106,3.0378,2.933,2.7908,2.7722,2.7418,2.6742,2.6691,2.6691,2.6691,2.6691,2.6691,2.6691,2.6691,2.6691,2.6691,2.6262,2.6297,2.6708,2.6542,2.7081,1.8488,1.9171,1.9675,1.8811,1.7812,1.6898,1.6475,0.0,1.3945,1.4239,1.3631,1.3376,1.4462,1.4728,1.5142,0.0,1.7124,1.8179,2.0075,2.1481,2.3301,2.595,2.7256,2.8423,0.0,0.0,3.0343,3.0343,3.1267,3.1888,3.2321,3.3754,3.4839,3.5504,3.5504,3.5504,3.5504,3.5504,3.5504,3.5504,3.5504,3.5504,3.5504,3.5504,3.5504,3.5489,3.507,3.4891,0.0,3.4158,3.3653,3.3302,3.297,3.2952,3.2986,3.2986,3.3235,3.3633,3.3887,3.3987,3.3987,3.3987,3.4186,3.4399,3.4399,3.4958,3.5424,3.4609,3.4704,3.4672,3.3178,3.242,3.1837,3.0874,3.0658,3.0576,3.0208,3.0393,3.0658,3.0658,3.0958,3.1095,3.0699,3.0658,3.0658,3.0658,3.0658,3.0797,3.1151,3.119,3.1055,3.0699,3.032,2.9854,2.9245,2.8313,2.7654,2.7385,2.6945,2.6691,2.6691,2.6691,2.659,2.6297,2.6297,2.6139,2.5783,2.5598,2.5598,2.5815,2.655,2.7121,1.7314,1.7969,1.8457,1.8144,1.7197,1.6264,1.5968,1.4408,1.3082,1.3414,1.2574,1.2189,1.3506,1.3789,1.424,0.0,1.6086,1.7049,1.8758,1.9974,2.1763,2.4531,0.0,2.7205,2.8888,2.9503,2.9792,2.9792,3.0419,3.0895,3.118,3.2464,3.3754,3.4986,3.5344,3.5504,3.5504,3.5504,3.5504,3.5504,3.5504,3.5504,3.5504,3.5504,3.5385,3.5175,3.4681,3.4367,0.0,3.3469,3.2931,3.2497,3.2302,3.2204,3.2272,3.2272,3.2571,3.3024,3.3235,3.3287,3.3287,3.3287,3.3443,3.3531,3.313,3.3937,3.48,3.3887,3.363,3.3466,3.2376,3.138,3.0559,3.0123,3.0021,2.9935,2.9496,2.9717,3.0021,3.0021,3.0393,3.0518,3.0123,3.0021,3.0021,3.0021,3.0021,3.0208,3.0617,3.0658,3.0518,3.0081,2.9947,2.9809,2.9593,2.8572,2.7848,2.754,2.6897,2.6514,2.6487,2.635,2.6087,2.5779,2.5762,2.5691,2.5502,2.5346,2.5441,2.5799,2.6677,2.7209,1.5957,1.6416,1.6758,1.6694,1.6084,1.5312,1.4893,1.3892,1.2871,1.2392,1.2055,1.2076,1.304,1.3219,1.3754,1.5333,1.6061,1.7025,1.8758,1.9974,2.128,0.0,2.4155,2.5498,2.7143,2.8812,2.9792,2.9792,2.9792,0.0,3.118,3.1254,3.2105,3.3959,3.4986,3.5504,3.5504,3.5504,3.5504,3.5504,3.5504,3.5504,3.5504,3.5504,3.513,3.4487,3.4472,3.4098,0.0,3.2796,3.2527,3.2452,3.1735,3.1482,3.1524,3.1524,3.1539,3.164,3.2382,3.2586,3.2586,3.2586,3.3039,3.3323,3.1936,3.2501,3.3633,3.3582,3.2574,3.1534,3.1518,3.0493,2.9406,2.9406,2.9406,2.9406,2.9406,2.9406,2.9406,2.9406,2.9406,2.9406,2.9406,2.9406,2.9406,2.9406,2.9406,2.9406,2.9406,2.9406,2.9406,2.9406,2.9406,2.9102,2.8398,2.8275,2.7895,2.6962,2.6453,2.6147,2.5994,2.5503,2.5221,2.5221,2.5221,2.5534,2.6174,2.5639,2.5998,2.7185,2.6795,2.698,1.4629,1.5068,1.5332,1.4972,1.4531,1.4004,1.3574,1.273,1.2024,1.1902,1.1292,1.1064,1.2018,1.2474,1.3357,1.5337,0.0,0.0,0.0,0.0,0.0,2.3527,2.6389,2.8423,0.0,0.0,2.9792,2.9792,2.9792,2.9934,3.0203,3.0833,3.2033,3.3945,3.4312,3.4839,3.5504,3.5504,3.5504,3.5504,3.5504,3.5504,3.5504,3.5504,3.513,3.4442,3.4008,3.344,3.2766,3.2108,3.1839,3.1824,3.1556,3.1482,3.1482,3.1482,3.1482,3.1524,3.1739,3.1853,3.1853,3.1853,3.2007,3.2104,3.164,3.2461,3.3479,3.3039,3.1894,3.0829,3.0829,3.0133,2.9316,2.8873,2.8779,2.8685,2.8271,2.8496,2.8779,2.8779,2.9134,2.9271,2.8873,2.8779,2.8779,2.8779,2.8779,2.8904,2.9361,2.9406,2.9225,2.8826,2.8779,2.8871,2.9042,2.8578,2.8185,2.7862,2.723,2.6837,2.6816,2.6654,2.6392,2.6014,2.6014,2.5923,2.5802,2.5637,2.5986,2.6779,2.6675,2.6946,0.0,1.373,1.3994,1.373,1.334,1.2959,1.2695,1.1953,1.1367,1.1368,1.0805,1.0577,1.1491,1.1963,1.2836,1.498,1.569,0.0,0.0,0.0,0.0,2.3967,2.6992,0.0,0.0,2.9541,2.9792,2.9792,2.9792,2.9792,2.9792,3.0343,3.1402,3.289,3.331,3.3754,3.4409,3.4773,3.492,3.492,3.5294,3.5504,3.5489,3.5235,3.4756,3.4068,3.341,3.2751,0.0,3.1646,3.1482,3.1482,3.1482,3.1482,3.1482,3.1482,3.1482,3.1482,3.1482,3.1482,3.1482,3.1482,3.1482,3.1482,3.1482,3.1921,3.2429,3.225,3.1014,2.9837,3.0097,2.9435,2.8638,2.8271,2.814,2.8042,2.766,2.791,2.814,2.814,2.8448,2.8591,2.8238,2.814,2.814,2.814,2.814,2.8319,2.867,2.8717,2.8591,2.8174,2.814,2.8319,2.867,2.828,2.7997,2.7971,2.734,2.6951,2.6902,2.6714,2.6421,2.6077,2.6077,2.6077,2.5974,2.6228,2.6557,2.6961,2.6961,2.7186,0.0,1.2363,1.2695,1.2695,1.2412,1.2083,1.2054,1.1475,0.0,1.0869,1.0557,1.0587,1.1449,1.1606,1.229,1.4413,1.4388,0.0,0.0,1.923,0.0,0.0,2.6477,0.0,2.8172,2.9176,2.9792,2.9792,2.9792,2.9792,2.9792,2.9792,3.0216,3.1031,3.196,3.2464,3.2593,3.3449,3.3876,3.3876,3.4795,3.5285,3.5335,3.4648,3.3976,0.0,3.2781,3.2138,3.1482,3.1482,3.1482,3.1482,3.1482,3.1482,3.1482,3.1482,3.1482,3.1482,3.1482,3.1482,3.1482,3.1482,3.1482,3.1467,3.1422,3.1001,3.0642,3.1285,3.0073,2.8742,2.9355,2.8547,2.7625,2.7625,2.7625,2.7625,2.7625,2.7625,2.7625,2.7625,2.7625,2.7625,2.7625,2.7625,2.7625,2.7625,2.7625,2.7625,2.7625,2.7625,2.7625,2.7625,2.7625,2.7625,2.7625,2.7625,2.7538,2.7411,2.6937,2.6617,2.6502,2.6015,2.5749,2.5749,2.5749,2.6048,2.6662,2.7275,2.7625,2.7625,2.7625,2.7625,1.0001,0.0,1.0898,1.0898,1.1055,1.1133,0.0,1.083,1.082,0.0,0.0,1.0587,1.1449,1.1606,1.2413,1.4853,1.624,1.7622,1.9329,2.2122,0.0,2.708,2.8436,2.9252,2.9377,2.9641,2.9792,2.9792,2.9792,2.9792,2.9792,2.9792,2.9934,3.0139,3.0355,3.1132,3.2593,3.282,3.2961,3.2947,3.2776,3.3054,3.3616,3.3013,3.2765,3.2736,3.2587,3.2138,3.1482,3.1482,3.1482,3.1482,3.1482,3.1482,3.1482,3.1482,3.1482,3.1482,3.1482,3.1482,3.1482,3.1482,3.1482,3.1377,3.0911,3.0627,3.0537,3.0702,2.9714,2.8637,2.8786,2.8203,2.7625,2.7625,2.7625,2.7625,2.7625,2.7625,2.7625,2.7625,2.7625,2.7625,2.7625,2.7625,2.7625,2.7625,2.7625,2.7625,2.7625,2.7625,2.7625,2.7625,2.7625,2.7625,2.7625,2.7625,2.76,2.7534,2.7435,2.736,2.7293,2.721,2.7111,2.7111,2.7111,2.7186,2.7385,2.755,2.7625,2.7625,2.7625,2.7625,0.8936,0.9658,1.0332,1.0518,1.0742,1.085,1.0625,0.0,0.0,0.0,0.0,1.0771,1.1479,1.1939,1.2802,0.0,1.586,0.0,0.0,0.0,2.5767,2.6895,2.8462,2.9402,0.0,2.9641,2.9792,2.9792,2.9792,2.9792,2.9792,2.9792,2.9792,2.9792,2.9792,3.0292,3.1341,3.1756,3.1825,3.1568,3.1722,3.1914,3.2118,3.1854,3.1835,3.1896,3.199,3.1619,3.097,3.1351,3.1278,3.097,3.1351,3.1482,3.1482,3.1482,3.1482,3.1482,3.1482,3.1482,3.1482,3.1482,3.1315,3.0986,3.0612,3.0088,2.9699,2.9998,2.9146,2.8203,2.8517,2.8083,2.7625,2.7625,2.7625,2.7625,2.7625,2.7625,2.7625,2.7625,2.7625,2.7625,2.7625,2.7625,2.7625,2.7625,2.7625,2.7625,2.7625,2.7625,2.7625,2.7625,2.7625,2.7625,2.7625,2.7625,2.7625,2.7625,2.7625,2.7625,2.7625,2.7625,2.7625,2.7625,2.7625,2.7625,2.7625,2.7625,2.7625,2.7625,2.7625,2.7625,0.845,0.9414,1.0371,1.0723,1.0908,1.1006,1.1006,0.0,0.0,0.0,0.0,0.0,0.0,1.2422,0.0,0.0,0.0,0.0,1.977,2.3006,2.5195,2.5755,2.7545,0.0,2.88,2.9315,2.9666,2.9666,2.9741,2.9792,2.9792,2.9792,2.9792,2.9792,2.9704,2.9666,2.9666,3.0416,3.0564,3.0086,3.0794,3.0952,3.0632,3.0658,3.0754,3.085,0.0,0.0,3.0133,3.0837,3.0718,3.0208,3.1029,3.1351,3.1351,3.1467,3.1482,3.1482,3.1482,3.1482,3.1452,3.1347,3.0986,3.0462,3.0268,2.946,2.8697,2.9146,2.8509,2.7709,2.8293,2.8008,2.7625,2.7625,2.7625,2.7625,2.7625,2.7625,2.7625,2.7625,2.7625,2.7625,2.7625,2.7625,2.7625,2.7625,2.7625,2.7625,2.7625,2.7625,2.7625,2.7625,2.7625,2.7625,2.7625,2.7625,2.7625,2.7625,2.7625,2.7625,2.7625,2.7625,2.7625,2.7625,2.7625,2.7625,2.7625,2.7625,2.7625,2.7625,2.7625,2.7625,0.919,0.9853,1.0303,1.0361,1.0969,1.1498,0.0,0.0,0.0,0.0,0.0,0.0,0.0,1.3076,1.3714,0.0,0.0,1.9297,0.0,0.0,2.5195,2.5755,0.0,2.8235,2.8235,2.8737,2.9063,2.9063,2.9515,2.9792,2.9792,2.9792,2.9792,2.9792,2.9315,2.9063,2.9063,2.9189,2.8986,2.8442,2.8163,2.8265,2.8864,2.8438,2.8627,2.9317,0.0,2.9317,2.9192,2.9317,2.9317,2.9317,3.0133,3.0464,3.0584,3.1219,3.1482,3.1482,3.1482,3.1482,3.1377,3.0851,3.0597,3.0298,2.922,2.8757,2.8502,2.8023,2.7775,2.764,2.7745,2.77,2.7625,2.7625,2.7625,2.7625,2.7625,2.7625,2.7625,2.7625,2.7625,2.7625,2.7625,2.7625,2.7625,2.7625,2.7625,2.7625,2.7625,2.7625,2.7625,2.7625,2.7625,2.7625,2.7625,2.7625,2.7625,2.7625,2.7625,2.7625,2.7625,2.7625,2.7625,2.7625,2.7625,2.7625,2.7625,2.7625,2.7625,2.7625,2.7625,2.7625,0.8479,0.9223,0.999,1.0225,1.1113,1.1982,1.2217,0.0,0.0,0.0,0.0,0.0,0.0,0.0,1.5669,1.7012,0.0,1.9551,2.2302,2.3572,2.449,0.0,0.0,2.7657,2.7657,2.816,2.8486,2.8486,2.8737,2.8875,2.8875,2.8875,2.8875,2.8875,2.8624,2.8348,2.8047,2.8047,2.7908,2.7657,2.7406,2.7316,2.7456,2.7589,2.792,2.8298,0.0,2.8748,2.8298,2.8812,2.8748,2.8427,2.9766,3.0329,3.0389,3.1219,3.1482,3.1482,3.1482,3.1482,3.1362,3.0731,3.0283,2.9834,2.8891,2.8338,2.7979,2.7715,2.7625,2.7625,2.7625,2.7625,2.7625,2.7625,2.7625,2.7625,2.7625,2.7625,2.7625,2.7625,2.7625,2.7625,2.7625,2.7625,2.7625,2.7625,2.7625,2.7625,2.7625,2.7625,2.7625,2.7625,2.7625,2.7625,2.7625,2.7625,2.7625,2.7625,2.7625,2.7625,2.7625,2.7625,2.7625,2.7625,2.7625,2.7625,2.7625,2.7203,2.6982,2.6982,2.6602,2.6428,0.8119,0.8842,0.9719,1.0293,0.0,1.2246,1.2881,0.0,0.0,0.0,0.0,0.0,0.0,1.5825,0.0,1.9628,1.9517,1.9849,2.197,2.3134,2.4036,2.4564,2.6088,2.7009,2.6797,2.7438,2.7908,2.7908,2.8034,2.8109,2.8109,2.8109,2.8109,2.8109,2.7984,2.7708,2.7293,2.7155,2.7092,2.7092,2.7092,2.6866,2.6521,2.7162,2.7417,2.7484,2.8117,2.8051,2.7484,2.8117,2.8051,2.7537,2.9129,2.9827,3.0058,3.0734,3.0982,3.0967,3.1006,3.1076,3.0899,3.0101,2.9495,2.8936,2.811,2.7497,2.7071,2.7071,2.7071,2.7137,2.7306,2.7357,2.7306,2.7137,2.7071,2.7071,2.7071,2.7071,2.7071,2.7071,2.7071,2.7071,2.7071,2.7071,2.7071,2.7071,2.7071,2.7071,2.7071,2.7255,2.7357,2.7357,2.7357,2.724,2.7086,2.7071,2.7071,2.7071,2.7255,2.7357,2.7357,2.7188,2.7071,2.7071,2.7071,2.7071,2.7071,2.6496,2.6229,2.6229,2.5673,2.5398,0.9319,0.9536,0.9787,1.0664,0.0,0.0,1.3184,1.3437,0.0,0.0,0.0,0.0,0.0,1.6083,1.744,2.1352,2.1231,2.1588,2.4365,0.0,2.4564,2.3745,2.5382,2.6226,2.5289,2.6498,2.7344,2.7344,2.7821,2.8109,2.8109,2.8109,2.8109,2.8109,2.7607,2.7318,2.7281,2.6848,2.6584,2.6584,2.6584,2.6571,2.6533,2.6589,2.6589,2.6589,2.6658,2.6658,2.6589,2.6658,2.6658,2.6658,2.7537,2.8363,2.9122,2.9354,2.9463,2.9493,2.9688,2.9729,2.9501,2.8137,2.7671,2.7403,2.6035,2.5605,2.5563,2.5563,2.5563,2.5728,2.639,2.6563,2.6404,2.5728,2.5563,2.5563,2.5563,2.5563,2.5563,2.5563,2.5563,2.5563,2.5563,2.5563,2.5563,2.5563,2.5563,2.5563,2.5563,2.6176,2.6563,2.6563,2.6563,2.6283,2.5618,2.5563,2.5563,2.5563,2.6229,2.6563,2.6563,2.5892,2.5563,2.5563,2.5563,2.5563,2.5563,2.5508,2.5453,2.5453,2.5398,2.5398,0.874,0.9495,1.0288,1.0488,0.0,0.0,0.0,0.0,0.0,0.0,1.7539,0.0,0.0,0.0,1.9323,2.2361,2.2115,2.2324,2.4637,2.448,2.4192,2.4409,2.4552,2.4696,2.5004,2.5551,2.611,2.6766,2.6967,2.708,2.708,2.708,2.708,2.708,2.6879,2.6766,2.6766,2.6634,2.6533,2.6533,2.6533,2.6533,2.6533,2.6533,2.6533,2.6533,2.6533,2.6533,2.6533,2.6533,2.6533,2.6564,2.7026,2.7759,2.8491,2.8166,2.8046,2.8076,2.814,2.8183,2.8026,2.7131,2.6821,2.6652,2.5703,2.5398,2.5398,2.5398,2.5398,2.5453,2.5728,2.5837,2.5728,2.5453,2.5398,2.5398,2.5398,2.5398,2.5398,2.5398,2.5398,2.5398,2.5398,2.5398,2.5398,2.5398,2.5398,2.5398,2.5398,2.5618,2.5837,2.5837,2.5837,2.5673,2.5398,2.5398,2.5398,2.5398,2.5673,2.5837,2.5837,2.5563,2.5398,2.5398,2.5398,2.5398,2.5398,2.4951,2.4738,2.4681,2.4208,2.3989,0.9153,1.0211,1.1256,0.0,0.0,0.0,0.0,0.0,0.0,0.0,1.8186,0.0,0.0,0.0,0.0,0.0,2.2378,2.2592,2.4269,2.3963,2.3672,2.4036,2.4036,2.412,2.4492,2.5075,2.5734,2.6465,2.6533,2.6533,2.6533,2.6533,2.6533,2.6533,2.6533,2.6533,2.6533,2.6533,2.6533,2.6533,2.6533,2.6533,2.6533,2.6533,2.6533,2.6533,2.6533,2.6533,2.6533,2.6533,2.642,2.6206,2.6206,2.6601,2.7072,2.6753,2.6594,2.6613,2.6668,2.6715,2.6588,2.5972,2.5734,2.5595,2.4902,2.4654,2.4654,2.4654,2.4654,2.4654,2.4654,2.4838,2.5007,2.4724,2.4654,2.4654,2.4654,2.4654,2.4654,2.4654,2.4654,2.4654,2.4654,2.4654,2.4654,2.4654,2.4654,2.4654,2.4654,2.4894,2.5063,2.5063,2.5063,2.4951,2.4724,2.4654,2.4654,2.4654,2.4654,2.4781,2.5063,2.4838,2.4654,2.4654,2.4654,2.4654,2.4667,2.4163,2.3943,2.3884,2.3365,2.3078,1.0989,1.185,1.2789,0.0,0.0,0.0,0.0,0.0,0.0,0.0,0.0,1.8837,2.1377,1.9733,0.0,2.1586,2.1967,2.2383,2.338,2.3514,2.3147,2.2103,2.3745,2.4564,2.3599,2.5276,2.6465,2.6533,2.6533,2.6533,2.6533,2.6533,2.6533,2.6533,2.6533,2.6533,2.6533,2.6533,2.6533,2.6533,2.6533,2.6533,2.6533,2.6533,2.6533,2.6533,2.6533,2.6533,2.6533,2.6521,2.6113,2.5548,2.5021,2.4808,2.4809,2.501,2.509,2.5117,2.5324,2.5398,2.5231,2.4509,2.4292,2.4118,2.3365,2.3078,2.3078,2.3078,2.3078,2.3078,2.3078,2.3708,2.4118,2.3305,2.3078,2.3078,2.3078,2.3078,2.3078,2.3078,2.3078,2.3078,2.3078,2.3078,2.3078,2.3078,2.3078,2.3078,2.3078,2.3826,2.4292,2.4292,2.4292,2.3943,2.3198,2.3078,2.3078,2.3078,2.3078,2.3484,2.4234,2.3531,2.3078,2.3078,2.3078,2.3078,2.3078,2.3078,2.3078,2.3078,2.3078,2.3078,1.0144,1.1285,0.0,0.0,0.0,0.0,0.0,0.0,0.0,0.0,1.9838,1.9863,2.0019,1.9458,0.0,2.1629,2.1967,2.2383,2.338,2.3514,2.3147,2.2103,2.3147,2.3818,2.3514,2.4707,2.5734,2.6465,2.6533,2.6533,2.6533,2.6533,2.6533,2.6533,2.6533,2.6533,2.6533,2.6533,2.6533,2.6533,2.6533,2.6533,2.6533,2.6533,2.6533,2.6533,2.6533,2.6533,2.6496,2.6013,2.5749,2.5498,2.4594,2.4243,2.4167,2.3834,2.3666,2.3701,2.376,2.3754,2.3754,2.3531,2.3484,2.3424,2.3185,2.3078,2.3078,2.3078,2.3078,2.3078,2.3078,2.3245,2.3424,2.3138,2.3078,2.3078,2.3078,2.3078,2.3078,2.3078,2.3078,2.3078,2.3078,2.3078,2.3078,2.3078,2.3078,2.3078,2.3078,2.3305,2.3484,2.3484,2.3484,2.3365,2.3138,2.3078,2.3078,2.3078,2.3078,2.3185,2.3424,2.3245,2.3078,2.3078,2.3078,2.3078,2.3078,2.3078,2.3078,2.3078,2.3078,2.3078,1.1307,0.0,0.0,0.0,1.5589,1.6973,1.8398,0.0,0.0,0.0,0.0,1.9404,1.9781,1.9663,0.0,2.0978,2.1744,2.223,2.2319,2.2357,2.2361,2.2252,2.2871,2.3458,2.4024,2.5004,2.5873,2.6452,2.6533,2.6533,2.6533,2.6533,2.6533,2.6533,2.6533,2.6533,2.6533,2.6533,2.6533,2.6533,2.6533,2.6339,2.6126,2.642,2.6533,2.6521,2.6214,2.6,2.5762,2.5197,2.4958,2.487,2.4004,2.3653,2.3615,2.3203,2.3078,2.3078,2.3078,2.3078,2.3078,2.3078,2.3078,2.3078,2.3078,2.3078,2.3078,2.3078,2.3078,2.3078,2.3078,2.3078,2.3078,2.3078,2.3078,2.3078,2.3078,2.3078,2.3078,2.3078,2.3078,2.3078,2.3078,2.3078,2.3078,2.3078,2.3078,2.3078,2.3078,2.3078,2.3078,2.3078,2.3078,2.3078,2.3078,2.3078,2.3078,2.3078,2.3078,2.3078,2.3078,2.3078,2.3078,2.3078,2.3078,2.3078,2.3078,2.3078,2.3078,2.3078,2.3078,2.3078,1.3483,0.0,0.0,1.694,1.7716,0.0,1.9672,1.9205,1.8988,2.0233,0.0,1.8187,2.0127,2.0158,1.9894,2.0027,2.1374,2.2019,2.0881,2.0815,2.1317,2.2522,2.2872,2.3559,2.4743,2.5726,2.6382,2.6382,2.6233,2.6233,2.6233,2.6202,2.6158,2.6158,2.6158,2.6227,2.6308,2.6258,2.6233,2.6382,2.6382,2.6038,2.5548,2.6126,2.642,2.6276,2.5749,2.5259,2.4782,2.423,2.4004,2.3941,2.3364,2.3078,2.3078,2.3078,2.3078,2.3078,2.3078,2.3078,2.3078,2.3078,2.3078,2.3078,2.3078,2.3078,2.3078,2.3078,2.3078,2.3078,2.3078,2.3078,2.3078,2.3078,2.3078,2.3078,2.3078,2.3078,2.3078,2.3078,2.3078,2.3078,2.3078,2.3078,2.3078,2.3078,2.3078,2.3078,2.3078,2.3078,2.3078,2.3078,2.3078,2.3078,2.3078,2.3078,2.3078,2.3078,2.3078,2.3078,2.3078,2.3078,2.3078,2.3078,2.3078,2.3078,2.3078,2.3078,2.3078,2.3078,2.3078,2.3078,0.0,1.3275,0.0,0.0,1.7157,1.8316,1.793,1.8265,1.8796,1.9456,1.9225,1.9062,1.9475,1.9477,1.9781,2.0742,2.1241,2.1475,2.1636,2.2252,2.2571,2.2123,2.3467,2.4207,2.3676,2.4607,2.5172,2.5172,2.4541,2.4128,2.4128,2.3884,2.3664,2.3664,2.3664,2.4026,2.4675,2.4333,2.4475,2.5172,2.5172,2.5109,2.5008,2.5536,2.5561,2.5172,2.5046,2.4921,2.4782,2.423,2.4004,2.3941,2.3364,2.3078,2.3078,2.3078,2.3078,2.3078,2.3078,2.3078,2.3078,2.3078,2.3078,2.3078,2.3078,2.3078,2.3078,2.3078,2.3078,2.3078,2.3078,2.3078,2.3078,2.3078,2.3078,2.3078,2.3078,2.3078,2.3078,2.3078,2.3078,2.3078,2.3078,2.3078,2.3078,2.3078,2.3078,2.3078,2.3078,2.3078,2.3078,2.3078,2.3078,2.3078,2.3078,2.3078,2.3078,2.3078,2.3078,2.3078,2.3078,2.3078,2.3078,2.3078,2.3078,2.3078,2.3078,2.3078,2.3078,2.3078,2.3078,2.2763,0.0,0.0,0.0,1.5975,0.0,1.7877,1.7307,1.7421,1.7731,1.7975,1.8744,1.9431,1.9814,2.0268,2.0616,2.0861,2.1608,2.2034,2.1912,2.235,2.2716,2.2899,2.3405,2.3839,2.4018,2.412,2.4198,2.4198,2.3368,2.2887,2.2887,2.2651,2.2579,2.2579,2.2579,2.3006,2.3851,2.3229,2.3501,2.482,2.4406,2.427,2.4443,2.4983,2.4933,2.4431,2.4431,2.4268,2.3929,2.3703,2.359,2.3552,2.319,2.3078,2.3078,2.3078,2.3078,2.3078,2.3078,2.3078,2.3078,2.3078,2.3078,2.3078,2.3078,2.3078,2.3078,2.3078,2.3078,2.3078,2.3078,2.3078,2.3078,2.3078,2.3078,2.3078,2.3078,2.3078,2.3078,2.3078,2.3078,2.3078,2.3078,2.3078,2.3078,2.3078,2.3078,2.3078,2.3078,2.3078,2.3078,2.3078,2.3078,2.3078,2.3078,2.2763,2.2506,2.2506,2.2113,2.1928,2.1928,2.1928,2.231,2.3065,2.3078,2.3078,2.3078,2.3078,2.2884,2.2506,2.2506,2.2063,0.0,0.0,0.0,1.6563,1.7047,0.0,1.6963,1.6718,1.6611,1.6799,1.8107,1.9369,2.0147,2.1043,2.1491,2.091,2.1865,2.2506,2.1939,2.1877,2.2306,2.3268,2.2926,2.2967,2.3944,2.3436,2.3029,2.3029,2.2217,2.1664,2.1664,2.1605,2.1592,2.1592,2.1592,2.2003,2.2881,2.2117,2.2486,2.4057,2.337,2.3143,2.3404,2.3848,2.4014,2.3853,2.3853,2.3577,2.3078,2.3078,2.3078,2.3078,2.3078,2.3078,2.3078,2.3078,2.3078,2.3078,2.3078,2.3078,2.3078,2.3078,2.3078,2.3078,2.3078,2.3078,2.3078,2.3078,2.3078,2.3078,2.3078,2.3078,2.3078,2.3078,2.3005,2.2944,2.3078,2.3078,2.3078,2.3078,2.3078,2.3078,2.3078,2.3078,2.3078,2.3078,2.3005,2.2884,2.2884,2.2763,2.2689,2.2689,2.2689,2.2689,2.2689,2.2063,2.169,2.169,2.0974,2.059,2.059,2.059,2.1227,2.2628,2.2689,2.2689,2.2689,2.2689,2.231,2.169,2.169,2.1239,0.0,0.0,0.0,0.0,1.6018,1.5901,0.0,0.0,1.6386,0.0,1.805,1.8754,1.8818,1.9918,2.0974,2.1616,2.129,2.1164,2.1815,2.1877,2.1714,2.1129,2.1596,2.1745,2.1243,2.105,2.0986,2.0986,2.0205,1.9687,1.9687,1.9328,1.9053,1.9053,1.9053,1.9532,2.0407,1.9945,2.0194,2.1179,2.105,2.1016,2.1076,2.1145,2.1906,2.3251,2.3251,2.314,2.3078,2.3078,2.3078,2.3078,2.3078,2.3078,2.3078,2.3078,2.3078,2.3078,2.3078,2.3078,2.3078,2.3078,2.3078,2.3078,2.3078,2.3078,2.3078,2.3078,2.3078,2.3078,2.3078,2.3078,2.3078,2.3078,2.2567,2.2261,2.2944,2.3078,2.3078,2.3078,2.3078,2.3078,2.3078,2.3078,2.3078,2.3078,2.2506,2.2063,2.2063,2.1428,2.091,2.091,2.091,2.091,2.091,2.0846,2.0782,2.0782,2.0655,2.059,2.059,2.059,2.0719,2.091,2.091,2.091,2.091,2.091,2.091,2.0782,2.0782,2.0333,1.147,0.0,1.4893,0.0,1.5559,1.5415,1.5127,0.0,1.5526,1.6153,1.7189,1.8148,1.8844,1.9505,2.0048,2.0692,2.0489,2.0466,2.1066,2.1164,2.1037,2.0655,2.091,2.1037,2.0655,2.0139,1.9879,1.9879,1.9044,1.8586,1.8586,1.8379,1.8281,1.8281,1.8281,1.8674,1.9536,1.8879,1.8977,1.9879,2.0398,2.059,2.059,2.059,2.129,2.2445,2.2445,2.2689,2.3078,2.3078,2.3078,2.3078,2.3078,2.3078,2.3078,2.3078,2.3078,2.3078,2.3078,2.3078,2.3078,2.3078,2.3078,2.3078,2.3078,2.3078,2.3078,2.3078,2.2763,2.2506,2.3005,2.2372,2.1928,2.2884,2.2125,2.1164,2.1215,2.1479,2.1678,2.1678,2.1678,2.1678,2.1678,2.1678,2.1678,2.1678,2.1416,2.1164,2.1164,2.0846,2.059,2.059,2.059,2.059,2.059,2.0139,1.9879,1.9879,1.9431,1.911,1.911,1.911,1.911,1.911,2.0074,2.059,2.059,2.059,2.0333,1.9879,1.9879,1.9431,0.0,0.0,1.421,1.4744,1.4993,1.5007,0.0,0.0,1.4873,0.0,1.6103,1.7206,1.8148,1.8658,1.9066,1.936,1.923,1.9299,1.9849,2.0004,2.0028,1.9835,2.0062,2.0204,1.9944,1.9365,1.8977,1.8977,1.8405,1.8008,1.8008,1.8008,1.8008,1.8008,1.8008,1.8337,1.8977,1.8337,1.8337,1.8977,1.9628,1.9944,1.9944,1.9944,2.0398,2.1239,2.1491,2.2063,2.2763,2.2567,2.2689,2.3078,2.2884,2.2944,2.3078,2.3078,2.3078,2.3078,2.3078,2.3078,2.3078,2.3078,2.3078,2.3078,2.3078,2.2944,2.2823,2.3065,2.2384,2.1753,2.2567,2.1678,2.091,2.2175,2.1353,2.0204,2.0009,2.0268,2.059,2.059,2.059,2.059,2.059,2.059,2.059,2.059,2.0398,2.0268,2.0268,2.0074,1.9944,1.9944,1.9944,1.9944,1.9944,1.9365,1.8977,1.8977,1.8327,1.8008,1.8008,1.8008,1.8008,1.8008,1.9309,1.9944,1.9944,1.9944,1.9628,1.8977,1.8977,1.8586,0.0,1.1299,0.0,1.3432,1.4159,0.0,0.0,0.0,1.4795,1.4814,1.5204,1.5508,1.5585,1.6979,1.8057,1.8078,1.7429,1.7136,1.7997,1.8428,1.8392,1.7665,1.8598,1.9044,1.8202,1.8066,1.8076,1.8076,1.8008,1.8008,1.8008,1.8008,1.8008,1.8008,1.8008,1.8008,1.8076,1.8008,1.8008,1.8076,1.8144,1.8144,1.8144,1.8144,1.8596,1.9497,2.0333,2.1164,2.1877,2.1037,2.1667,2.3005,2.2261,2.2445,2.3078,2.3078,2.3078,2.3078,2.3078,2.3078,2.3078,2.3078,2.3078,2.3078,2.3078,2.2567,2.2125,2.2884,2.1928,2.0846,2.1753,2.129,2.0655,2.0719,2.0009,1.9562,2.0398,2.059,2.059,2.059,2.059,2.059,2.059,2.059,2.059,2.059,1.989,1.9365,1.9365,1.8654,1.8144,1.8144,1.8144,1.8144,1.8144,1.8076,1.8076,1.8076,1.8008,1.8008,1.8008,1.8008,1.8008,1.8008,1.8076,1.8144,1.8144,1.8144,1.8144,1.8076,1.8076,1.8008,0.0,0.0,0.0,1.2542,1.3029,1.3307,1.3695,1.3899,1.4043,1.4316,1.4482,1.4678,1.4961,1.5712,1.6437,1.6729,1.6535,1.652,1.7119,1.7289,1.7262,1.6963,1.7347,1.7501,1.7187,1.7187,1.7187,1.7187,1.7187,1.7187,1.7187,1.7187,1.7187,1.7187,1.7461,1.7734,1.8008,1.8008,1.8008,1.8008,1.8008,1.8008,1.8008,1.8008,1.8134,1.8462,1.8787,1.9748,2.1037,2.0719,2.0974,2.1479,2.1164,2.1227,2.1542,2.2125,2.2322,2.2384,2.2944,2.2763,2.2322,2.2322,2.1928,2.1479,2.1479,2.129,2.1101,2.1416,2.0655,1.9944,2.0846,2.0009,1.8921,1.8921,1.8721,1.8529,1.8844,1.8921,1.8921,1.8921,1.8921,1.8921,1.8921,1.8921,1.8921,1.8921,1.8654,1.8462,1.8462,1.8202,1.8008,1.8008,1.8008,1.8008,1.8008,1.8008,1.8008,1.8008,1.8008,1.8008,1.8008,1.8008,1.8008,1.8008,1.8008,1.8008,1.8008,1.8008,1.8008,1.8008,1.8008,1.8008,0.8675,0.0,0.0,0.0,0.0,1.2192,1.317,1.3213,1.3242,1.3756,1.398,1.4228,1.4512,1.4795,1.5166,1.5752,1.585,1.5947,1.625,1.6416,1.6514,1.6514,1.6641,1.6665,1.6665,1.6665,1.6665,1.6665,1.6665,1.6665,1.6665,1.6665,1.6665,1.6665,1.7012,1.7363,1.7793,1.7803,1.7871,1.8008,1.8008,1.8008,1.8008,1.8008,1.793,1.7803,1.7803,1.8711,2.0139,1.9814,2.0074,2.0579,2.0081,2.009,2.0471,2.1035,2.1233,2.1295,2.1849,2.1784,2.1467,2.128,2.0963,2.0557,2.0389,2.0264,2.0171,2.0325,1.963,1.9044,1.9944,1.911,1.8008,1.8008,1.8008,1.8008,1.8008,1.8008,1.8008,1.8008,1.8008,1.8008,1.8008,1.8008,1.8008,1.8008,1.8008,1.8008,1.8008,1.8008,1.8008,1.8008,1.8008,1.8008,1.8008,1.8008,1.8008,1.8008,1.8008,1.8008,1.8008,1.8008,1.8008,1.8008,1.8008,1.8008,1.8008,1.8008,1.8008,1.8008,1.8008,1.8008,0.0,0.0,0.0,0.0,0.0,0.0,1.2536,0.0,1.2422,1.3291,1.3779,1.4072,1.4058,1.4058,1.433,1.5234,1.5381,1.5391,1.5391,1.5762,1.6105,1.6105,1.6426,1.6626,1.6626,1.6626,1.6626,1.6626,1.6626,1.6626,1.6626,1.6626,1.6699,1.6709,1.6709,1.6924,1.7363,1.7363,1.7568,1.7978,1.7978,1.7978,1.7978,1.7978,1.7744,1.7363,1.7363,1.8107,1.9135,1.8297,1.8936,2.0373,1.9073,1.9081,1.9829,1.9817,1.9817,1.9817,1.9879,2.0142,2.0467,1.9986,2.0154,2.0392,1.9974,1.9532,1.9293,1.9714,1.891,1.8162,1.9003,1.8623,1.7978,1.7988,1.7988,1.7998,1.8008,1.8008,1.8008,1.8008,1.8008,1.8008,1.8008,1.8008,1.8008,1.8008,1.8008,1.8008,1.8008,1.8008,1.8008,1.8008,1.8008,1.8008,1.8008,1.8008,1.8008,1.8008,1.8008,1.8008,1.8008,1.8008,1.8008,1.8008,1.8008,1.8008,1.8008,1.8008,1.8008,1.8008,1.8008,1.8008,0.8474,0.0,0.0,0.0,0.0,0.0,0.0,0.0,1.1468,1.2381,1.2599,1.2842,1.3557,1.3682,1.3857,1.435,1.4756,1.4961,1.4961,1.5322,1.5586,1.5586,1.5703,1.5781,1.5781,1.5781,1.5781,0.0,1.5781,1.5781,1.5781,1.5781,1.5918,1.624,1.625,1.6465,1.6914,1.6914,1.6973,1.709,1.709,1.709,1.709,1.709,1.7021,1.6914,1.6914,1.7101,1.7392,1.7145,1.7328,1.7744,1.7379,1.7393,1.7634,1.8299,1.8545,1.8595,1.9264,1.9111,1.8717,1.8588,1.8207,1.7734,1.7612,1.7483,1.7426,1.7549,1.7356,1.7145,1.7328,1.7273,1.7168,1.748,1.7559,1.7637,1.7939,1.8008,1.8008,1.8008,1.8008,1.8008,1.8008,1.8008,1.8008,1.8008,1.8008,1.8008,1.8008,1.8008,1.8008,1.8008,1.8008,1.8008,1.8008,1.8008,1.8008,1.8008,1.8008,1.8008,1.8008,1.8008,1.8008,1.8008,1.8008,1.8008,1.8008,1.8008,1.8008,1.8008,1.8008,1.8008,0.0,0.0,0.0,0.0,0.0,0.0,1.1583,1.121,1.0817,0.0,1.2064,1.2298,1.2832,1.3125,1.333,1.3574,1.3975,1.4316,1.4492,1.4727,1.4883,1.4883,1.5039,1.5146,1.5146,1.5312,1.541,1.541,1.541,1.541,1.541,1.541,1.5527,1.5781,1.5791,1.6006,1.6445,1.6455,1.6543,1.6665,1.6665,1.6665,1.6665,1.6665,1.6631,1.6455,1.6455,1.6348,1.6182,1.6182,1.6396,1.6655,1.6523,1.6455,1.6517,1.7042,1.7216,1.7277,1.7811,1.7767,1.742,1.7287,1.6999,1.6699,1.6514,1.6582,1.6699,1.6504,1.6592,1.6665,1.6665,1.6665,1.6797,1.7051,1.7256,1.7451,1.7695,1.7881,1.8008,1.8008,1.8008,1.8008,1.8008,1.8008,1.8008,1.8008,1.8008,1.8008,1.8008,1.8008,1.8008,1.8008,1.8008,1.8008,1.8008,1.8008,1.8008,1.8008,1.8008,1.8008,1.8008,1.8008,1.8008,1.8008,1.8008,1.8008,1.8008,1.8008,1.8008,1.8008,1.8008,1.8008,1.1132,1.1425,0.0,1.2234,1.1337,0.0,1.1837,1.1058,1.0374,0.0,1.1665,1.1959,1.2051,1.2402,1.2676,1.2725,1.3086,1.3525,1.3941,1.4048,1.4077,1.4077,1.4473,1.4717,1.4717,1.5049,1.5293,1.5342,1.5381,1.541,1.541,1.541,1.541,1.541,1.541,1.5596,1.6047,1.5986,1.6191,1.6582,1.6582,1.6582,1.6582,1.6582,1.6367,1.5986,1.5986,1.5771,1.541,1.541,1.5879,1.6543,1.6143,1.5986,1.5986,1.5986,1.5986,1.5986,1.5986,1.625,1.6523,1.6123,1.626,1.6514,1.6113,1.6269,1.6504,1.6103,1.6279,1.6582,1.6582,1.6582,1.6602,1.665,1.6992,1.7324,1.7373,1.7715,1.8008,1.8008,1.8008,1.8008,1.8008,1.8008,1.8008,1.8008,1.8008,1.8008,1.8008,1.8008,1.8008,1.8008,1.8008,1.8008,1.8008,1.8008,1.8008,1.8008,1.8008,1.8008,1.8008,1.8008,1.8008,1.8008,1.8008,1.8008,1.8008,1.8008,1.8008,1.8008,1.8008,1.8008,1.2893,1.3144,1.3408,1.2597,1.1927,0.0,1.0797,1.0184,0.9764,0.0,1.0053,1.0305,1.1018,1.124,1.1406,1.1802,1.2187,1.2744,1.3525,1.3926,1.4077,1.4077,1.4155,1.4258,1.4258,1.4336,1.4531,1.4883,1.5215,1.541,1.541,1.541,1.541,1.541,1.541,1.5449,1.5537,1.5537,1.5586,1.5664,1.5664,1.5664,1.5664,1.5664,1.5615,1.5537,1.5537,1.5488,1.541,1.541,1.5518,1.5664,1.5576,1.5537,1.5537,1.5537,1.5537,1.5537,1.5537,1.5596,1.5654,1.5566,1.5596,1.5654,1.5566,1.5596,1.5654,1.5566,1.5605,1.5664,1.5664,1.5664,1.5762,1.6113,1.6533,1.6953,1.7305,1.7715,1.8008,1.8008,1.8008,1.8008,1.8008,1.8008,1.8008,1.8008,1.8008,1.8008,1.8008,1.8008,1.8008,1.8008,1.8008,1.8008,1.8008,1.8008,1.8008,1.8008,1.8008,1.8008,1.8008,1.8008,1.8008,1.8008,1.8008,1.8008,1.8008,1.8008,1.8008,1.8008,1.8008,1.8008,1.4199,1.4249,1.4362,1.3772,1.3069,0.0,0.0,1.0978,1.0318,1.0583,1.0429,1.0436,1.1116,1.1416,1.1641,1.1855,1.2266,1.2627,1.2842,1.3242,1.3506,1.3506,1.3691,1.3818,1.3818,1.3951,1.4228,1.4443,1.4658,1.4775,1.4775,1.498,1.5098,1.5098,1.5303,1.541,1.541,1.541,1.541,1.541,1.541,1.541,1.541,1.541,1.541,1.541,1.541,1.541,1.541,1.541,1.541,1.541,1.541,1.541,1.541,1.541,1.541,1.541,1.541,1.541,1.541,1.541,1.541,1.541,1.541,1.541,1.541,1.541,1.541,1.541,1.541,1.541,1.5469,1.5684,1.6074,1.6514,1.6963,1.7393,1.7764,1.7969,1.8008,1.8008,1.8008,1.8008,1.8008,1.8008,1.8008,1.8008,1.8008,1.8008,1.8008,1.8008,1.8008,1.8008,1.8008,1.8008,1.8008,1.8008,1.8008,1.8008,1.8008,1.8008,1.8008,1.8008,1.8008,1.8008,1.8008,1.8008,1.8008,1.8008,1.8008,1.8008,1.5316,1.5191,1.518,1.4966,1.4212,1.341,0.0,0.0,0.0,1.139,1.1094,1.0943,1.1381,0.0,0.0,1.1963,0.0,0.0,0.0,1.2353,0.0,1.2627,1.3076,1.335,1.3271,1.3564,1.3786,1.3951,1.3883,1.3965,1.4068,1.4463,1.4697,1.4785,1.5117,1.5332,1.541,1.541,1.541,1.541,1.541,1.541,1.541,1.541,1.541,1.541,1.541,1.541,1.541,1.541,1.541,1.541,1.541,1.541,1.541,1.541,1.541,1.541,1.541,1.541,1.541,1.541,1.541,1.541,1.541,1.541,1.541,1.541,1.541,1.541,1.541,1.541,1.541,1.541,1.5742,1.6182,1.6641,1.708,1.751,1.793,1.8008,1.8008,1.8008,1.8008,1.8008,1.8008,1.8008,1.8008,1.8008,1.8008,1.8008,1.8008,1.8008,1.8008,1.8008,1.8008,1.8008,1.8008,1.8008,1.8008,1.8008,1.8008,1.8008,1.8008,1.8008,1.8008,1.8008,1.8008,1.8008,1.8008,1.8008,1.8008,1.6346,1.6333,1.6095,1.5155,1.4743,1.4153,1.2376,0.0,1.1486,1.0701,0.0,1.0582,1.0912,0.0,0.0,0.0,0.0,0.0,1.1113,1.1436,1.1753,1.1753,1.2488,1.2803,1.2412,1.2375,1.2764,1.3525,1.3232,1.335,1.4038,1.4126,1.4385,1.4775,1.4834,1.5039,1.541,1.541,1.541,1.541,1.541,1.541,1.541,1.541,1.541,1.541,1.541,1.541,1.541,1.541,1.541,1.541,1.541,1.541,1.541,1.541,1.541,1.541,1.541,1.541,1.541,1.541,1.541,1.541,1.541,1.541,1.541,1.541,1.541,1.541,1.541,1.541,1.541,1.541,1.5742,1.6182,1.6641,1.708,1.751,1.793,1.8008,1.8008,1.8008,1.8008,1.8008,1.8008,1.8008,1.8008,1.8008,1.8008,1.8008,1.8008,1.8008,1.8008,1.8008,1.8008,1.8008,1.8008,1.8008,1.8008,1.8008,1.8008,1.8008,1.8008,1.8008,1.8008,1.8008,1.8008,1.8008,1.8008,1.8008,1.8008,1.6522,1.6238,1.5868,1.5461,1.4837,0.0,1.33,0.0,1.2161,0.0,0.0,0.0,0.0,0.0,0.0,0.0,1.123,0.0,0.0,0.0,1.1279,1.1577,0.0,0.0,1.2151,1.1992,1.2197,1.3076,1.251,1.249,1.3359,1.3643,1.3848,1.4033,1.4277,1.4619,1.5039,1.5049,1.5176,1.541,1.541,1.541,1.541,1.541,1.541,1.541,1.541,1.541,1.541,1.541,1.541,1.541,1.541,1.541,1.541,1.541,1.541,1.541,1.541,1.541,1.541,1.541,1.541,1.541,1.541,1.541,1.541,1.541,1.541,1.541,1.541,1.541,1.541,1.541,1.5557,1.5801,1.625,1.6689,1.7129,1.7568,1.7842,1.8008,1.8008,1.8008,1.8008,1.8008,1.8008,1.8008,1.8008,1.8008,1.8008,1.8008,1.8008,1.8008,1.8008,1.8008,1.8008,1.8008,1.8008,1.8008,1.8008,1.8008,1.79,1.7656,1.7881,1.7764,1.7275,1.7764,1.7881,1.7656,1.79,1.8008,1.6522,0.0,0.0,0.0,0.0,0.0,0.0,0.0,0.0,0.0,0.0,0.0,0.0,0.0,0.0,0.0,0.0,1.0925,0.0,1.0264,0.0,0.0,0.0,0.0,0.0,1.1426,1.1489,1.2488,1.1636,1.1523,1.2637,1.2998,1.3262,1.3496,1.3799,1.4228,1.4775,1.4785,1.5,1.541,1.541,1.541,1.541,1.541,1.541,1.541,1.541,1.541,1.541,1.541,1.541,1.541,1.541,1.541,1.541,1.541,1.541,1.541,1.541,1.541,1.541,1.541,1.541,1.541,1.541,1.541,1.541,1.541,1.541,1.541,1.541,1.541,1.541,1.541,1.541,1.5527,1.6027,1.6416,1.6865,1.7305,1.7725,1.8008,1.8008,1.8008,1.8008,1.8008,1.8008,1.8008,1.8008,1.8008,1.8008,1.8008,1.8008,1.8008,1.8008,1.8008,1.8008,1.8008,1.79,1.7842,1.7842,1.7725,1.7519,1.7207,1.7617,1.7471,1.6665,1.748,1.7532,1.7034,1.7668,1.8008,0.0,0.0,0.0,1.5166,0.0,0.0,0.0,0.0,1.4026,0.0,0.0,0.0,0.0,0.0,0.0,0.0,0.0,0.0,0.0,0.0,0.0,0.0,0.0,0.0,0.0,1.0439,1.0225,0.0,1.041,1.04,1.2112,1.2219,1.2646,1.3477,1.3516,1.3936,1.4775,1.4785,1.5,1.541,1.541,1.541,1.541,1.541,1.541,1.541,1.541,1.541,1.541,1.541,1.541,1.541,1.541,1.541,1.541,1.541,1.541,1.541,1.541,1.541,1.541,1.541,1.541,1.541,1.541,1.541,1.541,1.541,1.541,1.541,1.541,1.541,1.541,1.541,1.541,1.5527,1.6027,1.6416,1.6865,1.7305,1.7725,1.8008,1.8008,1.8008,1.8008,1.8008,1.8008,1.8008,1.8008,1.8008,1.8008,1.8008,1.8008,1.8008,1.8008,1.8008,1.8008,1.8008,1.7627,1.7402,1.7402,1.7002,1.6768,1.6694,1.7178,1.7178,1.6665,1.7178,1.6892,1.5981,1.7378,1.8008,0.0,0.0,1.5837,1.5511,0.0,0.0,0.0,0.0,0.0,0.0,0.0,0.0,0.0,0.0,0.0,0.0,0.0,0.0,0.0,0.0,0.0,0.0,0.0,0.0,0.0,0.0,1.0361,1.1074,1.0723,0.0,1.2122,1.25,1.2793,1.3086,1.3096,1.3369,1.3936,1.3936,1.4297,1.5,1.5,1.5146,1.541,1.541,1.541,1.541,1.541,1.541,1.541,1.541,1.541,1.541,1.541,1.541,1.541,1.541,1.541,1.541,1.541,1.541,1.541,1.541,1.541,1.541,1.541,1.541,1.541,1.541,1.541,1.541,1.541,1.541,1.541,1.541,1.541,1.5449,1.5596,1.5977,1.6426,1.6865,1.7305,1.7686,1.7959,1.8008,1.8008,1.8008,1.7773,1.7695,1.7978,1.7764,1.7598,1.7598,1.7598,1.748,1.7187,1.7432,1.7598,1.7598,1.7461,1.7256,1.6963,1.6807,1.6592,1.6299,1.6728,1.6592,1.5859,1.6592,1.6741,1.641,1.6542,1.646,1.6423,1.6051,0.0,1.5695,1.4972,0.0,1.435,0.0,1.4358,0.0,0.0,0.0,0.0,0.0,0.0,0.0,0.0,0.0,0.0,0.8682,0.0,0.0,0.0,0.0,0.0,0.957,0.9736,1.0615,1.0264,0.0,0.0,1.2256,1.2606,1.2871,1.2881,1.3076,1.3506,1.3506,1.3857,1.4551,1.4551,1.4697,1.4961,1.5117,1.5186,1.5195,1.5352,1.541,1.541,1.541,1.541,1.541,1.541,1.541,1.541,1.541,1.541,1.541,1.541,1.541,1.541,1.541,1.541,1.541,1.541,1.541,1.541,1.541,1.541,1.541,1.541,1.541,1.541,1.541,1.541,1.541,1.541,1.5752,1.6213,1.6436,1.6855,1.7236,1.751,1.7422,1.748,1.7939,1.7783,1.7705,1.7978,1.7646,1.7383,1.7383,1.7383,1.7275,1.6982,1.7227,1.7314,1.7168,1.7002,1.6787,1.6504,1.6348,1.6133,1.584,1.6269,1.6143,1.541,1.6143,1.6172,1.5523,1.518,1.4689]},{"header":{"parameterUnit":"m.s-1","parameterCategory":1,"la1":30.6,"la2":29.2853,"lo1":-89.7004,"lo2":-87.6739,"dy":0.0162,"dx":0.0183,"nx":112,"ny":82,"refTime":"2024-08-09T12:00:00:Z","depth":0,"parameterNumber":3,"parameterNumberName":"V-component_of_WINDS"},"data":[0.0,0.0,0.0,0.0,0.0,0.0,0.0,0.0,0.0,0.0,0.0,0.0,0.0,0.0,0.0,0.0,0.0,0.0,0.0,0.0,0.0,0.0,0.0,0.0,0.0,0.0,0.0,0.0,0.0,0.0,0.0,0.0,0.0,0.0,0.0,0.0,0.0,0.0,0.0,0.0,0.0,0.0,0.0,0.0,0.0,0.0,0.0,0.0,0.0,0.0,0.0,0.0,0.0,0.0,0.0,0.0,0.0,0.0,0.0,0.0,0.0,0.0,0.0,0.0,0.0,0.0,0.0,0.0,0.0,0.0,0.0,0.0,0.0,0.0,0.0,0.0,0.0,0.0,0.0,0.0,0.0,0.0,0.0,0.0,0.0,0.0,0.0,0.0,0.0,0.0,-0.6441,-0.7034,-0.8099,-0.8804,-0.8804,-0.8804,-0.8297,-0.7058,0.0,0.0,0.0,0.0,0.0,0.0,0.0,0.0,0.0,0.0,0.0,0.0,0.0,0.0,0.0,0.0,0.0,0.0,0.0,0.0,0.0,0.0,0.0,0.0,0.0,0.0,0.0,0.0,0.0,0.0,0.0,0.0,0.0,0.0,0.0,0.0,0.0,0.0,0.0,0.0,0.0,0.0,0.0,0.0,0.0,0.0,0.0,0.0,0.0,0.0,0.0,0.0,0.0,0.0,0.0,0.0,0.0,0.0,0.0,0.0,0.0,0.0,0.0,0.0,0.0,0.0,0.0,0.0,0.0,0.0,0.0,0.0,0.0,0.0,0.0,0.0,0.0,0.0,0.0,0.0,0.0,0.0,0.0,0.0,0.0,0.0,0.0,0.0,0.0,0.0,0.0,0.0,0.0,0.0,0.0,0.0,0.0,0.0,0.0,0.0,0.0,0.0,0.0,0.0,-0.6796,-0.8355,-0.8672,-0.8804,-0.8804,-0.8804,-0.8297,-0.7058,0.0,0.0,0.0,0.0,0.0,0.0,0.0,0.0,0.0,0.0,0.0,0.0,0.0,0.0,0.0,0.0,0.0,0.0,0.0,0.0,0.0,0.0,0.0,0.0,0.0,0.0,0.0,0.0,0.0,0.0,0.0,0.0,0.0,0.0,0.0,0.0,0.0,0.0,0.0,0.0,0.0,0.0,0.0,0.0,0.0,0.0,0.0,0.0,0.0,0.0,0.0,0.0,0.0,0.0,0.0,0.0,0.0,0.0,0.0,0.0,0.0,0.0,0.0,0.0,0.0,0.0,0.0,0.0,0.0,0.0,0.0,0.0,0.0,0.0,0.0,0.0,0.0,0.0,0.0,0.0,0.0,0.0,0.0,0.0,0.0,0.0,0.0,0.0,0.0,0.0,0.0,0.0,0.0,0.0,0.0,0.0,0.0,0.0,0.0,0.0,0.0,0.0,0.0,-0.6617,-0.7373,-0.8684,-0.8804,-0.8804,-0.8804,-0.8804,-0.8297,-0.7058,-0.648,0.0,0.0,0.0,0.0,0.0,0.0,0.0,0.0,0.0,0.0,0.0,0.0,0.0,0.0,0.0,0.0,0.0,0.0,0.0,0.0,0.0,0.0,0.0,0.0,0.0,0.0,0.0,0.0,0.0,0.0,0.0,0.0,0.0,0.0,0.0,0.0,0.0,0.0,0.0,0.0,0.0,0.0,0.0,0.0,0.0,0.0,0.0,0.0,0.0,0.0,0.0,0.0,0.0,0.0,0.0,0.0,0.0,0.0,0.0,0.0,0.0,0.0,0.0,0.0,0.0,0.0,0.0,0.0,0.0,0.0,0.0,0.0,0.0,0.0,0.0,0.0,0.0,0.0,0.0,0.0,0.0,0.0,0.0,0.0,0.0,0.0,0.0,0.0,0.0,0.0,0.0,0.0,0.0,0.0,0.0,0.0,0.0,0.0,0.0,0.0,0.0,0.0,-0.7756,-0.8043,-0.8738,-0.8804,-0.8804,-0.8804,-0.8677,-0.815,-0.7088,-0.6346,0.0,0.0,0.0,0.0,0.0,0.0,0.0,0.0,0.0,0.0,0.0,0.0,0.0,0.0,0.0,0.0,0.0,0.0,0.0,0.0,0.0,0.0,0.0,0.0,0.0,0.0,0.0,0.0,0.0,0.0,0.0,0.0,0.0,0.0,0.0,0.0,0.0,0.0,0.0,0.0,0.0,0.0,0.0,0.0,0.0,0.0,0.0,0.0,0.0,0.0,0.0,0.0,0.0,0.0,0.0,0.0,0.0,0.0,0.0,0.0,0.0,0.0,0.0,0.0,0.0,0.0,0.0,0.0,0.0,0.0,0.0,0.0,0.0,0.0,0.0,0.0,0.0,0.0,0.0,0.0,0.0,0.0,0.0,0.0,0.0,0.0,0.0,0.0,0.0,0.0,0.0,0.0,0.0,0.0,0.0,0.0,0.0,0.0,0.0,0.0,0.0,0.0,-0.8036,-0.8738,-0.8798,-0.8804,-0.8804,-0.8804,-0.831,-0.7669,-0.7061,-0.5965,0.0,0.0,0.0,0.0,0.0,0.0,0.0,0.0,0.0,0.0,0.0,0.0,0.0,0.0,0.0,0.0,0.0,0.0,0.0,0.0,0.0,0.0,0.0,0.0,0.0,0.0,0.0,0.0,0.0,0.0,0.0,0.0,0.0,0.0,0.0,0.0,0.0,0.0,0.0,0.0,0.0,0.0,0.0,0.0,0.0,0.0,0.0,0.0,0.0,0.0,0.0,0.0,0.0,0.0,0.0,0.0,0.0,0.0,0.0,0.0,0.0,0.0,0.0,0.0,0.0,0.0,0.0,0.0,0.0,0.0,0.0,0.0,0.0,0.0,0.0,0.0,0.0,0.0,0.0,0.0,0.0,0.0,0.0,0.0,0.0,0.0,0.0,0.0,0.0,0.0,0.0,0.0,0.0,0.0,0.0,0.0,0.0,0.0,0.0,0.0,0.0,0.0,-0.7749,-0.8404,-0.8764,-0.8804,-0.8804,-0.8804,-0.8604,-0.8063,-0.7038,0.0,0.0,0.0,0.0,0.0,0.0,0.0,0.0,0.0,0.0,0.0,0.0,0.0,0.0,0.0,0.0,0.0,0.0,0.0,0.0,0.0,0.0,0.0,0.0,0.0,0.0,0.0,0.0,0.0,0.0,0.0,0.0,0.0,0.0,0.0,0.0,0.0,0.0,0.0,0.0,0.0,0.0,0.0,0.0,0.0,0.0,0.0,0.0,0.0,0.0,0.0,0.0,0.0,0.0,0.0,0.0,0.0,0.0,0.0,0.0,0.0,0.0,0.0,0.0,0.0,0.0,0.0,0.0,0.0,0.0,0.0,0.0,0.0,0.0,0.0,0.0,0.0,0.0,0.0,0.0,0.0,0.0,0.0,0.0,0.0,0.0,0.0,0.0,0.0,0.0,0.0,0.0,0.0,0.0,0.0,0.0,0.0,0.0,0.0,0.0,0.0,0.0,-0.6852,-0.7715,-0.8363,-0.8764,-0.8804,-0.8804,-0.8804,-0.8544,-0.7956,-0.6947,0.0,0.0,0.0,0.0,0.0,0.0,0.0,0.0,0.0,0.0,0.0,0.0,0.0,0.0,0.0,0.0,0.0,0.0,0.0,0.0,0.0,0.0,0.0,0.0,0.0,0.0,0.0,0.0,0.0,0.0,0.0,0.0,0.0,0.0,0.0,0.0,0.0,0.0,0.0,0.0,0.0,0.0,0.0,0.0,0.0,0.0,0.0,0.0,0.0,0.0,0.0,0.0,0.0,0.0,0.0,0.0,0.0,0.0,0.0,0.0,0.0,0.0,0.0,0.0,0.0,0.0,0.0,0.0,0.0,0.0,0.0,0.0,0.0,0.0,0.0,0.0,0.0,0.0,0.0,0.0,0.0,0.0,0.0,0.0,0.0,0.0,0.0,0.0,0.0,0.0,0.0,0.0,0.0,0.0,0.0,0.0,0.0,0.0,0.0,0.0,0.0,0.0,-0.6899,-0.807,-0.8804,-0.8804,-0.8804,-0.8804,-0.8804,-0.7989,-0.7271,0.0,0.0,0.0,0.0,0.0,0.0,0.0,0.0,0.0,0.0,0.0,0.0,0.0,0.0,0.0,0.0,0.0,0.0,0.0,0.0,0.0,0.0,0.0,0.0,0.0,0.0,0.0,0.0,0.0,0.0,0.0,0.0,0.0,0.0,0.0,0.0,0.0,0.0,0.0,0.0,0.0,0.0,0.0,0.0,0.0,0.0,0.0,0.0,0.0,0.0,0.0,0.0,0.0,0.0,0.0,0.0,0.0,0.0,0.0,0.0,0.0,0.0,0.0,0.0,0.0,0.0,0.0,0.0,0.0,0.0,0.0,0.0,0.0,0.0,0.0,0.0,0.0,0.0,0.0,0.0,0.0,0.0,0.0,0.0,0.0,0.0,0.0,0.0,0.0,0.0,0.0,0.0,0.0,0.0,0.0,0.0,0.0,0.0,0.0,0.0,0.0,0.0,0.0,-0.6523,-0.7876,-0.8804,-0.8804,-0.8804,-0.8804,-0.8804,-0.8377,-0.7756,-0.6947,0.0,0.0,0.0,0.0,0.0,0.0,0.0,0.0,0.0,0.0,0.0,0.0,0.0,0.0,0.0,0.0,0.0,0.0,0.0,0.0,0.0,0.0,0.0,0.0,0.0,0.0,0.0,0.0,0.0,0.0,0.0,0.0,0.0,0.0,0.0,0.0,0.0,0.0,0.0,0.0,0.0,0.0,0.0,0.0,0.0,0.0,0.0,0.0,0.0,0.0,0.0,0.0,0.0,0.0,0.0,0.0,0.0,0.0,0.0,0.0,0.0,0.0,0.0,0.0,0.0,0.0,0.0,0.0,0.0,0.0,0.0,0.0,0.0,0.0,0.0,0.0,0.0,0.0,0.0,0.0,0.0,0.0,0.0,0.0,0.0,0.0,0.0,0.0,0.0,0.0,0.0,0.0,0.0,0.0,0.0,0.0,0.0,0.0,0.0,0.0,0.0,0.0,-0.6571,-0.7918,-0.8804,-0.8804,-0.8804,-0.8804,-0.8804,-0.8544,-0.7989,-0.7081,0.0,0.0,0.0,0.0,0.0,0.0,0.0,0.0,0.0,0.0,0.0,0.0,0.0,0.0,0.0,0.0,0.0,0.0,0.0,0.0,0.0,0.0,0.0,0.0,0.0,0.0,0.0,0.0,0.0,0.0,0.0,0.0,0.0,0.0,0.0,0.0,0.0,0.0,0.0,0.0,0.0,0.0,0.0,0.0,0.0,0.0,0.0,0.0,0.0,0.0,0.0,0.0,0.0,0.0,0.0,0.0,0.0,0.0,0.0,0.0,0.0,0.0,0.0,0.0,0.0,0.0,0.0,0.0,0.0,0.0,0.0,0.0,0.0,0.0,0.0,0.0,0.0,0.0,0.0,0.0,0.0,0.0,0.0,0.0,0.0,0.0,0.0,0.0,0.0,0.0,0.0,0.0,0.0,0.0,0.0,0.0,0.0,0.0,0.0,0.0,0.0,0.0,-0.6822,-0.8021,-0.8804,-0.8804,-0.8804,-0.8804,-0.8804,-0.8544,-0.7996,-0.7114,0.0,0.0,0.0,0.0,0.0,0.0,0.0,0.0,0.0,0.0,0.0,0.0,0.0,0.0,0.0,0.0,0.0,0.0,0.0,0.0,0.0,0.0,0.0,0.0,0.0,0.0,0.0,0.0,0.0,0.0,0.0,0.0,0.0,0.0,0.0,0.0,0.0,0.0,0.0,0.0,0.0,0.0,0.0,0.0,0.0,0.0,0.0,0.0,0.0,0.0,0.0,0.0,0.0,0.0,0.0,0.0,0.0,0.0,0.0,0.0,-0.6188,0.0,0.0,0.0,0.0,0.0,0.0,0.0,0.0,0.0,0.0,0.0,0.0,0.0,0.0,0.0,0.0,0.0,0.0,0.0,0.0,0.0,0.0,0.0,0.0,0.0,0.0,0.0,0.0,0.0,0.0,0.0,0.0,0.0,0.0,0.0,0.0,0.0,0.0,0.0,0.0,0.0,-0.6445,-0.7869,-0.8804,-0.8804,-0.8804,-0.8804,-0.8804,-0.8544,-0.8138,-0.7459,-0.6586,0.0,0.0,0.0,0.0,0.0,0.0,0.0,0.0,0.0,0.0,0.0,0.0,0.0,0.0,0.0,0.0,0.0,0.0,0.0,0.0,0.0,0.0,0.0,0.0,0.0,0.0,0.0,0.0,0.0,0.0,0.0,0.0,0.0,0.0,0.0,0.0,0.0,0.0,0.0,0.0,0.0,0.0,0.0,0.0,0.0,0.0,0.0,0.0,0.0,0.0,0.0,0.0,0.0,0.0,0.0,0.0,0.0,0.0,0.0,0.0,-0.7071,0.0,0.0,0.0,0.0,0.0,0.0,0.0,0.0,0.0,0.0,0.0,0.0,0.0,0.0,0.0,0.0,0.0,0.0,0.0,0.0,0.0,0.0,0.0,0.0,0.0,0.0,0.0,0.0,0.0,0.0,0.0,0.0,0.0,0.0,0.0,0.0,0.0,0.0,0.0,0.0,-0.6853,-0.801,-0.8804,-0.8804,-0.8804,-0.8804,-0.8804,-0.8671,-0.839,-0.7977,-0.7068,0.0,0.0,0.0,0.0,0.0,0.0,0.0,0.0,0.0,0.0,0.0,0.0,0.0,0.0,0.0,0.0,0.0,0.0,0.0,0.0,0.0,0.0,0.0,0.0,0.0,0.0,0.0,0.0,0.0,0.0,0.0,0.0,0.0,0.0,0.0,0.0,0.0,0.0,0.0,0.0,0.0,0.0,0.0,0.0,0.0,0.0,0.0,0.0,0.0,0.0,0.0,0.0,0.0,-0.8664,-0.9075,-0.898,-1.0398,-1.1344,-1.1621,-0.9221,-0.8666,-0.9372,-0.8512,0.0,0.0,0.0,0.0,0.0,0.0,0.0,0.0,0.0,0.0,0.0,0.0,0.0,0.0,0.0,0.0,0.0,0.0,0.0,0.0,0.0,0.0,0.0,0.0,-0.728,-0.7603,-0.6481,0.0,0.0,0.0,0.0,0.0,0.0,0.0,0.0,0.0,0.0,0.0,-0.7468,-0.8283,-0.8804,-0.8804,-0.8804,-0.8804,-0.8804,-0.8804,-0.8684,-0.839,-0.7622,-0.7047,0.0,0.0,0.0,0.0,0.0,0.0,0.0,0.0,0.0,0.0,0.0,0.0,0.0,0.0,0.0,0.0,0.0,0.0,0.0,0.0,0.0,0.0,0.0,0.0,0.0,0.0,0.0,0.0,0.0,0.0,0.0,0.0,-0.4575,-0.5101,0.0,0.0,0.0,0.0,0.0,0.0,0.0,0.0,0.0,0.0,0.0,0.0,0.0,-0.7561,-0.845,-0.9709,-1.066,-1.1322,-1.2696,-1.3226,-1.305,-1.3285,-1.3115,-1.2683,-1.2052,0.0,-1.2458,-1.1683,0.0,0.0,0.0,0.0,0.0,0.0,0.0,0.0,0.0,0.0,0.0,0.0,0.0,0.0,0.0,0.0,0.0,0.0,0.0,0.0,0.0,0.0,-0.9336,-0.9223,-0.9339,-0.9352,0.0,-0.746,-0.5815,-0.5374,-0.5471,0.0,0.0,0.0,0.0,0.0,0.0,0.0,-0.7749,-0.8417,-0.8804,-0.8804,-0.8804,-0.8804,-0.8804,-0.8804,-0.8684,-0.839,-0.8023,-0.7669,-0.7406,-0.6505,0.0,0.0,0.0,0.0,0.0,0.0,0.0,0.0,0.0,0.0,0.0,0.0,0.0,0.0,0.0,0.0,0.0,0.0,0.0,0.0,0.0,0.0,0.0,0.0,0.0,0.0,0.0,0.0,0.0,-0.3887,-0.4734,-0.5413,-0.5599,-0.554,0.0,0.0,0.0,0.0,0.0,0.0,0.0,0.0,0.0,-0.9255,-0.9846,-1.0409,-1.0801,-1.106,-1.1352,-1.1687,-1.2473,-1.2728,-1.2476,-1.3653,-1.3991,-1.3619,-1.4435,-1.4907,-1.4977,-1.2751,-1.1642,-1.117,0.0,0.0,0.0,0.0,-0.9793,-0.9517,-1.0573,-1.0837,-1.0706,-1.0437,0.0,0.0,0.0,0.0,0.0,0.0,0.0,0.0,0.0,0.0,-0.9686,-0.9686,-0.9686,-0.9686,-0.9686,-0.8841,-0.7813,0.0,-0.6711,-0.6349,-0.5286,0.0,0.0,0.0,0.0,-0.7557,-0.8123,-0.8544,-0.8804,-0.8804,-0.8804,-0.8804,-0.8804,-0.8804,-0.8751,-0.8624,-0.8343,-0.8116,-0.8031,-0.7325,-0.6713,0.0,0.0,0.0,0.0,0.0,0.0,0.0,0.0,0.0,0.0,0.0,0.0,0.0,0.0,0.0,0.0,0.0,0.0,0.0,0.0,0.0,0.0,0.0,0.0,0.0,0.0,0.0,0.0,-0.465,-0.5548,-0.6143,-0.6591,-0.6715,0.0,0.0,0.0,0.0,0.0,0.0,-0.9007,-0.9918,-1.0668,-1.1336,-1.1968,-1.2373,-1.2636,-1.2047,-1.2109,-1.2862,-1.2971,-1.3099,-1.3271,-1.4836,-1.5249,-1.4831,-1.6113,-1.6653,-1.6503,-1.3964,-1.3033,-1.3102,-1.2575,-1.1635,-1.0639,-1.1927,-1.2041,-1.1743,-1.3026,-1.3514,-1.3449,-1.2806,-1.2543,-1.2229,-1.137,0.0,0.0,0.0,0.0,-0.9681,-0.9847,-0.9908,-0.9907,-0.9907,-0.9907,-0.9907,-0.9907,-0.9846,-0.9515,0.0,-0.8037,-0.756,-0.6408,0.0,0.0,0.0,0.0,-0.815,-0.8444,-0.8671,-0.8804,-0.8804,-0.8804,-0.8804,-0.8804,-0.8804,-0.8804,-0.8804,-0.8604,-0.8484,-0.8484,-0.8024,-0.7459,-0.6827,0.0,0.0,0.0,0.0,0.0,0.0,0.0,0.0,0.0,0.0,0.0,0.0,0.0,0.0,0.0,0.0,0.0,0.0,0.0,0.0,0.0,0.0,0.0,0.0,0.0,0.0,0.0,0.0,0.0,-0.8191,-0.8705,0.0,0.0,0.0,0.0,-0.9775,-0.9624,-1.0186,-1.1691,-1.1255,-1.0994,-1.1008,-1.1585,-1.2382,-1.3284,-1.2903,-1.4156,-1.6875,-1.6279,-1.6772,-1.8245,-1.8344,-1.7684,-1.6504,-1.6573,-1.6582,-1.656,-1.6094,-1.5501,-1.4928,-1.4455,-1.3809,-1.3305,-1.3987,-1.3986,-1.3692,-1.4148,-1.4523,-1.4648,-1.3789,-1.3124,-1.2622,-1.2932,-1.2645,0.0,0.0,-1.1586,-1.1851,-1.1874,-1.1224,-1.0577,-1.0577,-1.0577,-1.0577,-1.0577,-1.0294,-1.0,0.0,-0.9606,-0.9399,-0.8745,0.0,-0.8572,-0.835,-0.833,-0.8457,-0.8751,-0.8798,-0.8804,-0.8804,-0.8804,-0.8804,-0.8804,-0.8804,-0.8804,-0.8804,-0.8791,-0.8784,-0.8784,-0.849,-0.8091,-0.7479,-0.6613,0.0,0.0,0.0,0.0,0.0,0.0,0.0,0.0,0.0,0.0,0.0,0.0,0.0,0.0,0.0,0.0,0.0,0.0,0.0,0.0,0.0,0.0,0.0,0.0,0.0,0.0,0.0,0.0,-0.8752,-0.9877,0.0,-1.0487,-1.0712,-1.1027,-1.1518,-1.1059,-1.1511,-1.3135,-1.3145,-1.3777,-1.5421,-1.4943,-1.5144,-1.6268,-1.5466,-1.5292,-1.5678,-1.6094,-1.6237,-1.6196,-1.7559,-1.7852,-1.7497,-1.8084,-1.8371,-1.8342,-1.8182,-1.7523,-1.6536,-1.6052,-1.5364,-1.4647,-1.4908,-1.4481,-1.3867,-1.4,-1.417,-1.4281,-1.4603,-1.4935,-1.525,-1.539,-1.4967,-1.4329,-1.4143,-1.3777,-1.3308,-1.2741,-1.2357,-1.1854,-1.1077,-1.0835,-1.0788,-1.0665,-1.0537,-1.0374,-1.0329,-0.994,-0.9552,-0.9152,-0.9245,-0.9272,-0.8978,-0.9098,-0.9252,-0.9359,-0.9372,-0.9299,-0.9105,-0.903,-0.9011,-0.8824,-0.8804,-0.8804,-0.8804,-0.8804,-0.8804,-0.8804,-0.8704,-0.837,-0.7776,-0.7305,-0.6418,0.0,0.0,0.0,0.0,0.0,0.0,0.0,0.0,0.0,0.0,0.0,0.0,0.0,0.0,0.0,0.0,0.0,0.0,0.0,0.0,0.0,0.0,0.0,0.0,0.0,-0.9012,-1.0166,-1.047,-1.1622,-1.2538,-1.283,-1.2582,-1.2902,-1.4014,-1.3056,-1.3214,-1.5138,-1.5016,-1.5546,-1.6774,-1.6084,-1.6236,-1.7309,-1.6436,-1.6179,-1.6494,-1.7004,-1.6996,-1.6571,-1.7965,-1.8508,-1.8387,-1.9058,-1.9287,-1.9287,-1.9287,-1.8789,-1.7978,-1.7539,-1.6959,-1.6381,-1.6243,-1.58,-1.526,-1.526,-1.5059,-1.4983,-1.5933,-1.6309,-1.64,-1.6132,-1.5863,-1.5519,-1.4919,-1.4397,-1.3803,-1.321,-1.272,-1.2251,-1.1783,-1.1668,-1.1584,-1.1276,-1.1206,-1.1114,-1.0708,-1.0309,-0.9886,-0.9586,-0.9699,-0.9726,-0.9432,-0.9559,-0.9686,-0.9686,-0.9686,-0.9613,-0.9412,-0.9243,-0.9103,-0.8971,-0.8864,-0.8804,-0.8804,-0.8804,-0.8804,-0.8804,-0.8711,-0.843,-0.7895,-0.7335,-0.6586,-0.5605,0.0,0.0,0.0,0.0,0.0,0.0,0.0,0.0,0.0,0.0,0.0,0.0,0.0,0.0,0.0,0.0,0.0,0.0,0.0,0.0,0.0,0.0,0.0,-1.0838,-1.1969,-1.2999,-1.3373,-1.4005,-1.4453,-1.4592,-1.3858,-1.4552,-1.7216,-1.5585,-1.545,-1.7775,-1.6951,-1.5956,-1.4979,-1.4902,-1.5358,-1.6337,-1.5764,-1.6954,-1.9866,-1.9325,-1.9316,-1.9856,-1.9932,-1.9707,-1.9326,-1.9326,-1.9326,-1.9326,-1.9326,-1.9326,-1.9277,-1.8828,-1.8582,-1.8533,-1.8125,-1.7969,-1.7959,-1.794,-1.7295,-1.6706,-1.7647,-1.7013,-1.5712,-1.4968,-1.524,-1.551,-1.3824,-1.3344,-1.3344,-1.3344,-1.2422,-1.1717,-1.2661,-1.2863,-1.2773,-1.2435,-1.236,-1.2012,-1.0832,-1.0645,-1.0481,-1.018,-1.0134,-1.0033,-0.9753,-0.9713,0.0,-0.9713,-0.9713,-0.9706,-0.9699,-0.9439,-0.9203,-0.9183,-0.8985,-0.8818,-0.8804,-0.8804,-0.8804,-0.8804,-0.8537,-0.825,-0.7902,-0.6787,-0.6216,-0.6216,0.0,0.0,0.0,0.0,0.0,0.0,0.0,0.0,0.0,0.0,0.0,0.0,0.0,0.0,0.0,0.0,0.0,0.0,0.0,0.0,0.0,-1.2507,-1.3195,-1.2346,-1.3438,-1.4356,-1.4362,-1.5408,-1.6171,-1.6447,-1.6543,-1.6931,-1.7678,-1.6792,-1.6517,-1.7167,-1.6325,-1.6461,-1.783,-1.7037,-1.7505,-1.9409,-1.921,-1.9187,-1.9275,-1.9866,-1.9856,-1.9266,-2.0062,-2.0322,-2.0215,-2.0215,-2.0215,-2.0215,-2.0215,-2.0215,-2.0146,-1.9394,-1.8667,-1.8055,-1.7944,-1.7261,-1.6375,-1.6043,-1.5799,-1.5658,-1.5877,-1.573,-1.5365,-1.5155,-1.5217,-1.5295,-1.4803,-1.4662,-1.4529,-1.3754,-1.3329,-1.292,-1.2284,-1.2165,-1.2082,-1.177,-1.1641,-1.1546,-1.127,-1.1015,-1.0782,-1.0488,-1.0441,-1.0414,-1.0327,-1.0383,0.0,-1.0383,-1.0383,-1.0241,-1.002,-0.9927,-0.9706,-0.9223,-0.911,-0.9031,-0.8824,-0.8804,-0.8804,-0.8804,-0.8731,-0.855,-0.8257,-0.7288,-0.6787,0.0,0.0,0.0,0.0,0.0,0.0,0.0,0.0,0.0,0.0,0.0,0.0,0.0,0.0,0.0,0.0,0.0,0.0,0.0,0.0,0.0,0.0,-1.4383,-1.5313,-1.504,-1.566,-1.6253,-1.6336,-1.7199,-1.7981,-1.8311,-1.8192,-1.8327,-1.8957,-1.8237,-1.7961,-1.8431,-1.8002,-1.8132,-1.8957,-1.839,-1.863,-1.9923,-1.9923,-1.9844,-1.9678,-2.0323,-2.0245,-1.9678,-2.0323,-2.0566,-2.0566,-2.0566,-2.0566,-2.0566,-2.0566,-2.0566,0.0,0.0,0.0,0.0,0.0,-1.7326,-1.649,-1.5756,-1.5437,-1.5386,-1.5386,-1.5279,-1.5092,-1.4665,-1.4593,-1.4522,-1.4091,-1.4019,-1.3882,-1.3237,-1.3091,-1.3048,-1.2734,-1.2613,-1.26,-1.229,-1.2227,-1.2047,-1.1518,-1.1189,0.0,-1.0768,-1.0641,-1.0624,-1.0624,-1.0624,-1.0624,-1.0624,-1.0624,-1.0557,-1.0321,-1.0187,-0.9927,-0.9466,-0.9256,0.0,0.0,0.0,-0.8751,-0.8631,-0.8624,0.0,0.0,0.0,0.0,0.0,0.0,0.0,0.0,-0.684,-0.6929,0.0,0.0,0.0,0.0,0.0,0.0,0.0,0.0,0.0,0.0,0.0,0.0,0.0,0.0,0.0,0.0,-1.6095,-1.7617,-1.8086,-1.8193,-1.834,-1.8672,-1.9092,-1.9502,-1.9883,-1.9107,-1.913,-2.0537,-1.9724,-1.9566,-2.0411,0.0,0.0,0.0,0.0,-1.9145,-1.9277,-1.9277,-1.9724,-2.0566,-2.0566,-2.0566,-2.0566,-2.0566,-2.0566,-2.0566,-2.0566,-2.0566,-2.0566,-2.0566,-2.0566,-2.0527,-2.0137,-1.999,-1.9781,-1.8443,-1.7922,-1.7839,-1.6707,0.0,0.0,-1.5831,-1.5615,-1.5135,-1.4232,-1.387,-1.3572,-1.2673,-1.2378,-1.2305,-1.2305,-1.2305,-1.2519,-1.331,-1.3528,-1.3447,-1.3238,-1.3179,-1.288,-1.1708,-1.1263,-1.1042,-1.1042,-1.0775,-1.0624,-1.0624,-1.0624,-1.0624,-1.0624,-1.0624,-1.0624,-1.0624,0.0,0.0,-0.9753,-0.9459,-0.9165,-0.8878,-0.8824,-0.8691,-0.843,-0.8424,-0.8297,-0.7988,-0.7981,-0.8156,-0.8424,-0.8424,-0.8424,-0.8397,-0.7335,-0.7623,0.0,0.0,0.0,0.0,0.0,0.0,0.0,0.0,0.0,0.0,0.0,0.0,0.0,0.0,0.0,-1.6471,-1.7375,-1.8154,-1.8936,-1.9336,-1.9443,-1.9189,-1.9531,-1.9824,-1.9902,-2.0072,-2.0314,-2.0557,-2.074,-2.0372,-1.9381,-1.9879,-1.9998,-1.9516,-1.9815,-2.0255,-2.0774,-2.0774,-2.076,-2.0566,0.0,0.0,-2.0566,-2.0566,-2.0566,-2.0566,-2.0566,-2.0566,-2.0566,-2.0566,-2.0566,-2.0557,-2.0469,-2.0439,-2.0381,-1.9725,-1.9485,-1.9437,-1.886,-1.8101,-1.7436,-1.7436,-1.6845,-1.6038,-1.5528,-1.4867,0.0,-1.3601,-1.2879,-1.2305,-1.2305,-1.2305,-1.2378,-1.2519,-1.2592,-1.2579,-1.2517,-1.2503,-1.2417,-1.2144,-1.1703,-1.1343,-1.1343,-1.0909,-1.0624,-1.0624,-1.0624,-1.0624,-1.0624,-1.0624,-1.0624,-1.0624,-1.0571,-1.0354,-1.006,-0.9766,-0.9472,-0.9117,-0.8938,-0.8784,-0.8724,-0.8724,-0.8697,-0.8637,-0.8637,-0.8664,-0.8724,-0.8724,-0.8724,-0.8717,-0.849,-0.8728,0.0,0.0,0.0,0.0,0.0,0.0,0.0,0.0,0.0,0.0,0.0,-1.5613,-1.6559,0.0,-1.8114,-1.9337,-2.0022,-2.0435,-2.039,-2.069,-2.0577,-1.9723,-1.998,-2.0244,-2.0244,-2.0439,-2.0654,-2.0889,-2.1103,-2.098,-2.0485,-2.0863,-2.0995,-2.0787,-2.0976,-2.1244,-2.1562,-2.1562,-2.1338,-2.0898,-2.0898,-2.0781,-2.0566,-2.0566,-2.0566,-2.0566,-2.0566,-2.0566,-2.0566,-2.0566,-2.0566,-2.0566,-2.0566,-2.0566,-2.0537,-1.9763,-1.9446,-1.9341,-1.8588,-1.792,-1.7362,-1.7362,-1.6919,-1.6262,-1.5495,-1.4878,-1.4276,-1.345,-1.2783,-1.2305,-1.2305,-1.2305,-1.2305,-1.2305,-1.2305,-1.2305,-1.2305,-1.2305,-1.2305,-1.2305,-1.1951,-1.165,-1.165,-1.1162,-1.0728,-1.0645,-1.0624,-1.0624,-1.0624,-1.0624,-1.0624,-1.0624,-1.0624,-1.0441,-1.014,-0.9846,-0.9559,-0.9203,-0.905,-0.8958,-0.8811,-0.8804,-0.8804,-0.8804,-0.8804,-0.8804,-0.8804,-0.8804,-0.8884,-0.9025,-0.9025,-0.9098,0.0,0.0,0.0,0.0,0.0,0.0,0.0,0.0,-1.5858,-1.7143,-1.8321,-1.9297,-1.9991,-2.0694,-2.1331,-2.1776,-2.2409,-2.2617,-2.191,-2.2094,-2.1901,-2.0727,-2.0572,-2.0566,-2.0566,-2.0566,-2.0713,-2.1074,-2.126,-2.1475,-2.1748,-2.1992,-2.209,-2.2012,-2.209,-2.209,-2.2012,-2.2012,-2.1787,-2.1357,-2.1357,-2.1172,-2.082,-2.082,-2.0771,-2.0684,-2.0605,-2.0566,-2.0566,-2.0566,-2.0566,-2.0566,-2.0566,-2.0566,-2.0489,-1.9599,-1.9274,-1.9195,-1.823,-1.7775,-1.7587,-1.7587,-1.745,-1.7038,-1.583,-1.5241,-1.4623,-1.3376,-1.2722,-1.2378,-1.2318,-1.2305,-1.2305,-1.2305,-1.2305,-1.2305,-1.2305,-1.2305,-1.2305,-1.2305,-1.2064,-1.187,-1.187,-1.143,-1.0982,-1.0752,-1.0658,-1.0624,-1.0624,-1.0624,-1.0624,-1.0624,-1.0624,-1.0441,-1.014,-0.9907,-0.9639,-0.9345,-0.9325,-0.9218,-0.8985,-0.8978,-0.8978,-0.8978,-0.8978,-0.8978,-0.8978,-0.8978,-0.9098,-0.9325,-0.9325,-0.9381,-1.3961,-1.4116,-1.446,-1.5416,-1.5617,-1.616,0.0,0.0,-1.9558,-2.0473,-2.1485,-2.2258,-2.2301,-2.2186,-2.2184,-2.2691,-2.2872,-2.3026,-2.3234,-2.3334,-2.3272,-2.3143,-2.1638,-2.0566,-2.0566,-2.0566,-2.0586,-2.0635,-2.1367,-2.167,-2.1328,-2.2383,-2.2822,-2.2451,-2.2803,-2.2822,-2.2441,-2.2441,-2.2236,-2.1816,-2.1816,-2.1787,-2.1738,-2.1738,-2.1533,-2.1143,-2.0742,-2.0566,-2.0566,-2.0566,-2.0566,-2.0566,-2.0566,-2.0566,-2.0566,-2.0489,-2.0401,-2.0401,-2.0245,-2.0207,-2.0168,-2.0168,-2.013,-1.9869,-1.8398,-1.7321,-1.6293,-1.4547,-1.3395,-1.2714,-1.2371,-1.2305,-1.2305,-1.2305,-1.2305,-1.2305,-1.2305,-1.2305,-1.2305,-1.2305,-1.2064,-1.187,-1.187,-1.1597,-1.1276,-1.0989,-1.0728,-1.0624,-1.0624,-1.0624,-1.0624,-1.0624,-1.0624,-1.0441,-1.014,-1.0087,-0.994,-0.9653,-0.9633,-0.9619,-0.9586,-0.9586,-0.9586,-0.9586,-0.9586,-0.9586,-0.9586,-0.9586,-0.9606,-0.9633,-0.9633,-0.9964,-1.7224,-1.7355,-1.7355,0.0,-1.8971,-1.945,-2.0465,-2.128,-2.1947,-2.2689,-2.3636,-2.4374,-2.4374,-2.4548,-2.4767,0.0,-2.5033,-2.4825,-2.4457,-2.4337,-2.4005,-2.3122,-2.2613,-2.2048,-2.1441,-2.0934,-2.0781,-2.1299,-2.168,-2.2021,-2.2324,-2.2852,-2.3057,-2.2881,-2.3047,-2.3057,-2.2881,-2.2881,-2.2666,-2.2246,-2.2246,-2.2129,-2.1885,-2.1885,-2.165,-2.1221,-2.1035,-2.081,-2.0566,-2.0566,-2.0566,-2.0566,-2.0566,-2.0566,-2.0566,-2.0566,-2.0566,-2.0566,-2.0566,-2.0566,-2.0566,-2.0566,-2.0566,-2.0372,-1.9072,-1.83,-1.745,-1.5851,-1.4969,-1.4439,-1.4103,-1.4019,-1.3803,-1.3237,-1.3091,-1.2952,-1.2445,-1.2305,-1.2305,-1.2305,-1.2204,-1.2124,-1.2124,-1.1877,-1.1643,-1.1523,-1.1109,-1.0755,-1.0645,-1.0624,-1.0624,-1.0624,-1.0624,-1.0571,-1.0388,-1.0374,-1.0254,-0.9953,-0.9933,-0.986,-0.9693,-0.9686,-0.9686,-0.9686,-1.0186,-1.0408,-1.0408,-1.0857,-1.1191,-1.1383,-1.1383,-1.16,-1.9573,-2.0009,0.0,-2.1376,-2.2114,-2.2546,-2.2546,-2.3191,-2.3929,-2.4356,-2.5184,-2.5837,-2.5837,-2.6176,-2.6533,-2.6533,-2.6533,-2.6245,-2.5511,-2.5238,-2.4835,-2.3874,-2.3693,-2.3441,-2.2903,-2.1962,-2.1632,-2.2109,-2.2197,-2.2512,-2.293,-2.3076,-2.3135,-2.3135,-2.3135,-2.3135,-2.3135,-2.3135,-2.2988,-2.2685,-2.2685,-2.2519,-2.2227,-2.2119,-2.1826,-2.1406,-2.1289,-2.0977,-2.0566,-2.0566,-2.0566,-2.0566,-2.0566,-2.0566,-2.0566,-2.0566,-2.0566,-2.0566,-2.0566,-2.0566,-2.0566,-2.0566,-2.0566,-2.0401,-1.9362,-1.8837,-1.8339,-1.6665,-1.6038,-1.5806,-1.535,-1.5234,-1.5021,-1.4314,-1.389,-1.3528,-1.2806,-1.2445,-1.2305,-1.2305,-1.2305,-1.2305,-1.2305,-1.2131,-1.1964,-1.1877,-1.1436,-1.1009,-1.0715,-1.0672,-1.0624,-1.0624,-1.0624,-1.0624,-1.0624,-1.0624,-1.053,-1.0254,-1.0241,-1.0262,-1.0276,-1.0269,-1.038,-1.0616,-1.1186,-1.1468,-1.1468,-1.2045,-1.248,-1.268,-1.268,-1.294,0.0,0.0,-2.2796,-2.3593,-2.4463,-2.5091,-2.5091,-2.5331,-2.5523,-2.5548,-2.6013,-2.6496,-2.6496,-2.6521,-2.6533,-2.6533,-2.6533,-2.6465,-2.6452,-2.5975,-2.5745,-2.6296,-2.505,-2.4376,-2.4886,-2.3963,-2.3207,-2.272,-2.3002,-2.3074,-2.25,-2.292,-2.3135,-2.3135,-2.3135,-2.3135,-2.3135,-2.3135,-2.3135,-2.3125,-2.3125,-2.3115,-2.3086,-2.2676,-2.2266,-2.1846,-2.1416,-2.0977,-2.0566,-2.0566,-2.0566,-2.0566,-2.0566,-2.0566,-2.0566,-2.0566,-2.0566,-2.0566,-2.0566,-2.0566,-2.0566,-2.0566,-2.0566,-2.0401,-1.9362,-1.9027,-1.8619,-1.6741,-1.6211,-1.6046,-1.5345,-1.5234,-1.5163,-1.5163,-1.4386,-1.3673,-1.3673,-1.2952,-1.2305,-1.2305,-1.2305,-1.2305,-1.2305,-1.2291,-1.2191,-1.1911,-1.161,-1.1309,-1.1015,-1.0735,-1.0624,-1.0624,-1.0624,-1.0624,-1.0624,-1.0624,-1.0618,-1.0611,-1.0611,-1.0905,-1.168,-1.1742,-1.2112,-1.2854,-1.2915,-1.2915,-1.2915,-1.2976,-1.2984,-1.2992,-1.2992,-1.3416,-2.2562,0.0,-2.4399,-2.5891,-2.672,-2.7182,-2.7182,-2.7547,-2.7752,-2.73,-2.6959,-2.6609,-2.6207,-2.5728,-2.5485,-2.5837,-2.5887,-2.6013,-2.6471,-2.6302,-2.6101,-2.5912,-2.5779,-2.5679,-2.5413,-2.4271,0.0,-2.2766,-2.3071,-2.3063,-2.2575,-2.291,-2.3135,-2.3135,-2.3135,-2.3135,-2.3135,-2.3135,-2.3135,-2.3135,-2.3135,-2.3135,-2.3135,-2.2988,-2.2705,-2.2275,-2.1855,-2.1416,-2.0986,-2.0684,-2.0566,-2.0566,-2.0566,-2.0566,-2.0566,-2.0566,-2.0566,-2.0566,-2.0566,-2.0566,-2.0566,-2.0566,-2.0566,-2.0557,-2.0157,-2.0079,-1.9877,-1.8919,-1.849,-1.8165,-1.7617,-1.7283,-1.6932,-1.6289,-1.5367,-1.4673,-1.4673,-1.3448,-1.2445,-1.3091,-1.2739,-1.2305,-1.2305,-1.2305,-1.2271,-1.2171,-1.1577,-1.1035,-1.0742,-1.0685,-1.0624,-1.0624,-1.0624,-1.0624,-1.0624,-1.1108,-1.1406,-1.1406,-1.1903,-1.2336,-1.2573,-1.2573,-1.2704,-1.3009,-1.3545,-1.3786,-1.3786,-1.4323,-1.4569,-1.4569,-1.4569,-1.4746,-2.4717,-2.5713,-2.651,-2.8137,-2.877,-2.8975,-2.8975,-2.8809,-2.8443,-2.7762,-2.6871,-2.6115,-2.5655,-2.5035,-2.4877,-2.5934,-2.5858,-2.5957,-2.6803,-2.6468,-2.6163,-2.6201,-2.6352,-2.6465,-2.649,-2.5708,0.0,-2.3787,-2.4314,-2.4417,-2.3618,-2.406,-2.4307,-2.4307,-2.4307,-2.4307,-2.4307,-2.4307,-2.4135,-2.3714,-2.3714,-2.3464,-2.3135,-2.3135,-2.291,-2.249,-2.207,-2.1641,-2.1201,-2.0752,-2.0566,-2.0566,-2.0566,-2.0566,-2.0566,-2.0566,-2.0566,-2.0566,-2.0566,-2.0566,-2.0566,-2.0566,-2.0566,-2.0566,-2.0566,-2.0566,-2.0478,-2.0039,-1.9609,-1.9219,-1.8945,-1.8437,-1.7901,-1.7394,-1.6465,-1.572,-1.572,-1.4442,-1.352,-1.4099,-1.3738,-1.331,-1.331,-1.331,-1.3266,-1.315,-1.2684,-1.2115,-1.1423,-1.1439,-1.1483,-1.1483,-1.1483,-1.1483,-1.1483,-1.1903,-1.2205,-1.2205,-1.2696,-1.313,-1.3425,-1.3433,-1.3545,-1.3846,-1.4392,-1.4628,-1.4628,-1.5177,-1.541,-1.541,-1.541,-1.541,-2.6333,-2.7679,-2.8996,-3.0238,-3.0484,-3.0315,-3.0346,-2.9167,-2.7856,-2.7152,-2.5903,-2.4955,-2.4901,-2.445,-2.4695,-2.6603,-2.631,-2.6291,-2.7565,-2.6644,-2.6211,0.0,0.0,0.0,0.0,0.0,0.0,-2.5849,0.0,-2.6831,-2.563,-2.6203,-2.6483,-2.6483,-2.6483,-2.6483,-2.6483,-2.6483,-2.5975,-2.4872,-2.4872,-2.4211,-2.3222,-2.3135,-2.292,-2.2519,-2.21,-2.167,-2.123,-2.0781,-2.0586,-2.0566,-2.0566,-2.0566,-2.0566,-2.0566,-2.0566,-2.0566,-2.0566,-2.0566,-2.0566,-2.0566,-2.0566,-2.0566,-2.0566,-2.0566,-2.0478,-2.0059,-1.9648,-1.9316,-1.9297,-1.8662,-1.8135,-1.8446,-1.7567,-1.6627,-1.6636,-1.593,-1.5234,-1.5234,-1.5234,-1.5234,-1.5234,-1.5234,-1.5118,-1.4761,-1.4763,-1.4283,-1.2953,-1.2909,-1.3033,-1.3033,-1.3017,-1.3009,-1.3009,-1.307,-1.307,-1.307,-1.313,-1.3494,-1.4213,-1.4273,-1.4628,-1.541,-1.541,-1.541,-1.541,-1.541,-1.541,-1.541,-1.541,-1.542,-2.7724,-2.9026,-3.0223,-3.1061,-3.1217,-3.1086,-3.0567,-2.979,-2.8712,-2.707,-2.5617,-2.4303,-2.3336,-2.3386,-2.4025,-2.5423,-2.6308,0.0,-2.852,-2.8801,0.0,-2.8268,0.0,-2.8601,-2.8145,-2.8473,0.0,0.0,-2.7336,-2.6843,-2.5801,-2.6203,-2.6483,-2.6483,-2.6483,-2.6483,-2.6483,-2.6483,-2.6389,-2.6058,-2.521,-2.4628,-2.4382,-2.3474,-2.3076,-2.2959,-2.2539,-2.2109,-2.1689,-2.125,-2.0869,-2.0566,-2.0566,-2.0566,-2.0566,-2.0566,-2.0566,-2.0566,-2.0566,-2.0566,-2.0566,-2.0566,-2.0566,-2.0566,-2.0566,-2.0566,-2.0547,-2.043,-2.0088,-1.9678,-1.9365,-1.8887,-1.8428,-1.8223,-1.7361,-1.6784,-1.7501,-1.6367,-1.5376,-1.6079,-1.5649,-1.5234,-1.5234,-1.5234,-1.5201,-1.511,-1.5334,-1.5152,-1.4065,-1.3621,-1.3468,-1.3468,-1.3166,-1.3009,-1.3009,-1.3554,-1.3906,-1.3906,-1.4451,-1.4874,-1.5108,-1.5108,-1.5167,-1.541,-1.541,-1.541,-1.541,-1.541,-1.541,-1.541,-1.541,-1.5586,-2.9529,-3.0639,-3.1521,-3.1916,-3.1794,-3.1213,-2.9933,-2.8951,-2.7694,-2.5689,-2.419,-2.3053,-2.228,-2.2405,-2.3231,0.0,0.0,0.0,-2.8886,-2.9603,-2.9866,0.0,-2.9757,0.0,-2.949,-2.9328,-2.9176,0.0,-2.8568,-2.8065,-2.7179,-2.7676,-2.7971,-2.7971,-2.7971,-2.7971,-2.7971,-2.7971,-2.7706,-2.7197,-2.6521,-2.6036,-2.5546,-2.4882,-2.4553,-2.4532,0.0,-2.3099,-2.2847,-2.1935,-2.126,-2.0859,-2.0859,-2.0742,-2.0566,-2.0566,-2.0566,-2.0566,-2.0566,-2.0566,-2.0566,-2.0566,-2.0566,-2.0566,-2.0566,-2.0566,-2.0566,-2.0566,-2.0254,-1.9853,-1.9619,-1.9102,-1.8504,-1.834,-1.7712,-1.7354,-1.7872,-1.7148,-1.6576,-1.7139,-1.6793,-1.6446,-1.6446,-1.6446,-1.6446,-1.6446,-1.6661,-1.6575,-1.6012,-1.5204,-1.4675,-1.4675,-1.4317,-1.4025,-1.4025,-1.4451,-1.4756,-1.4756,-1.5167,-1.541,-1.541,-1.541,-1.541,-1.541,-1.541,-1.541,-1.541,-1.541,-1.541,-1.542,-1.5605,-1.583,-3.1379,-3.2182,-3.2571,-3.2586,-3.2095,-3.1016,-2.8934,-2.7425,-2.5843,-2.3759,0.0,-2.1545,-2.144,-2.1575,-2.2532,-2.5076,0.0,-2.7083,-2.916,-2.9955,-3.0513,-3.0929,-3.0949,-3.1002,-3.1336,-3.057,-3.0011,-3.0011,-2.9856,-2.9578,-2.9063,-2.9515,-2.9792,-2.9792,-2.9792,-2.9792,-2.9792,-2.9792,-2.9275,-2.8347,-2.8176,-2.7602,-2.6719,-2.6554,-2.6483,-2.6461,-2.5124,-2.4498,-2.4331,-2.2991,-2.1987,-2.1461,-2.1461,-2.1105,-2.0566,-2.0566,-2.0566,-2.0566,-2.0566,-2.0566,-2.0566,-2.0566,-2.0566,-2.0566,-2.0566,-2.0566,-2.0566,-2.0566,-2.0293,-1.9971,-1.9853,-1.9277,-1.8691,-1.8584,-1.8271,-1.8008,-1.8008,-1.8008,-1.8008,-1.8008,-1.8008,-1.8008,-1.8008,-1.8008,-1.8008,-1.8008,-1.8008,-1.8008,-1.8008,-1.6973,-1.6282,-1.6223,-1.5762,-1.5478,-1.542,-1.541,-1.541,-1.541,-1.541,-1.541,-1.541,-1.541,-1.541,-1.541,-1.541,-1.541,-1.541,-1.541,-1.541,-1.542,-1.5801,-1.6096,-3.2019,-3.2521,-3.2609,-3.2538,-3.1958,-3.078,-2.8263,-2.6595,0.0,0.0,-2.141,-2.0707,-2.0139,-2.0946,-2.2368,-2.4462,-2.5756,-2.7416,-2.9926,-3.1294,-3.2038,0.0,-3.2748,-3.3128,-3.2451,-3.1536,0.0,0.0,-3.0203,-2.9741,-2.9641,-2.9741,-2.9792,-2.9792,-2.9792,-2.9792,-2.9792,-2.9792,-2.9702,-2.9456,-2.8518,-2.8004,-2.7763,-2.6883,-2.6483,-2.6472,-2.6218,0.0,-2.548,-2.5242,-2.4136,-2.2595,-2.2595,-2.1781,-2.0566,-2.0566,-2.0566,-2.0566,-2.0566,-2.0566,-2.0566,-2.0566,-2.0566,-2.0566,-2.0566,-2.0566,-2.0566,-2.0566,-2.0508,-2.0293,-1.958,-1.9287,-1.8994,-1.8291,-1.8057,-1.8008,-1.8008,-1.8008,-1.8008,-1.8008,-1.8008,-1.8008,-1.8008,-1.8008,-1.8008,-1.8008,-1.8008,-1.8008,-1.8008,-1.751,-1.7021,-1.666,-1.6221,-1.5801,-1.5439,-1.541,-1.541,-1.541,-1.541,-1.541,-1.541,-1.541,-1.541,-1.541,-1.541,-1.541,-1.541,-1.541,-1.541,-1.541,-1.5488,-1.5918,-3.2789,-3.3354,-3.3524,-3.3113,-3.2219,-3.0516,-2.7199,0.0,0.0,0.0,-1.9615,-1.9166,-1.9166,-1.9989,0.0,-2.2832,-2.4193,-2.5959,-2.8607,-3.0417,-3.1782,-3.272,-3.3529,-3.3808,-3.338,-3.2464,-3.196,-3.196,-3.1476,-3.0846,-2.9869,-2.9792,-2.9792,-2.9792,-2.9792,-2.9792,-2.9792,-2.9792,-2.9792,-2.9792,-2.9275,-2.8937,-2.8937,-2.8462,-2.8211,-2.8211,-2.7626,-2.7221,-2.6909,-2.6357,-2.5303,-2.4028,-2.4028,-2.29,-2.1298,-2.1298,-2.1011,-2.0566,-2.0566,-2.0566,-2.0566,-2.0566,-2.0566,-2.0566,-2.0566,-2.0566,-2.0566,-2.0566,-2.0566,-2.0371,-1.9512,-1.9287,-1.9072,-1.8213,-1.8008,-1.8008,-1.8008,-1.8008,-1.8008,-1.8008,-1.8008,-1.8008,-1.8008,-1.8008,-1.8008,-1.8008,-1.8008,-1.8008,-1.8008,-1.7832,-1.7549,-1.7119,-1.6465,-1.6037,-1.5762,-1.5537,-1.541,-1.541,-1.541,-1.541,-1.541,-1.541,-1.541,-1.541,-1.541,-1.541,-1.541,-1.541,-1.541,-1.542,-1.5889,-1.6328,-3.3214,-3.3813,-3.4013,-3.3379,-3.2166,-3.0178,-2.6459,-2.3927,0.0,-1.9338,-1.8245,-1.7891,-1.8583,-1.9121,-1.9959,0.0,-2.2652,-2.4328,-2.6991,-2.9056,-3.1046,-3.3051,-3.3745,0.0,-3.4312,-3.3463,0.0,-3.289,-3.2749,-3.1901,-3.0216,-2.9934,-2.9792,-2.9792,-2.9792,-2.9792,-2.9792,-2.9792,-2.9792,-2.9792,-2.9792,-2.9792,-2.9792,-2.9792,-2.9792,-2.9792,-2.8846,-2.8426,-2.8426,-2.7417,-2.6348,-2.5292,-2.5179,-2.3984,-2.2328,-2.2328,-2.1811,-2.1155,-2.0934,-2.0934,-2.0934,-2.0934,-2.0789,-2.0566,-2.0566,-2.0566,-2.0566,-2.0566,-2.0566,-2.0371,-1.9512,-1.9287,-1.9072,-1.8213,-1.8008,-1.8008,-1.8008,-1.8008,-1.8008,-1.8008,-1.8008,-1.8008,-1.8008,-1.8008,-1.8008,-1.8008,-1.8008,-1.8008,-1.8008,-1.8008,-1.7881,-1.7549,-1.6816,-1.6331,-1.6145,-1.5752,-1.5508,-1.542,-1.541,-1.541,-1.541,-1.541,-1.541,-1.541,-1.541,-1.541,-1.541,-1.5584,-1.5526,-1.543,-1.6577,-1.7069,-3.2849,-3.299,-3.259,-3.2437,-3.1297,-2.9496,-2.6677,0.0,-2.166,-1.9731,-1.8459,-1.7891,-1.8583,-1.8747,-1.9435,-2.138,0.0,-2.3684,-2.6303,-2.8412,-3.0402,-3.2362,0.0,0.0,-3.5299,-3.4476,-3.3876,-3.3876,-3.3101,-3.2177,-3.1106,-3.0279,-2.9792,-2.9792,-2.9792,-2.9792,-2.9792,-2.9792,-2.9792,-2.9792,-2.9792,-2.9792,-2.9792,-2.9792,-2.9792,-2.9792,-2.9702,-2.9624,0.0,-2.8973,-2.7773,-2.6391,-2.5929,-2.4726,-2.3368,-2.3368,-2.3294,-2.3073,-2.2178,-2.1886,-2.1886,-2.1886,-2.1298,-2.0566,-2.0566,-2.0566,-2.0566,-2.0566,-2.0566,-2.0371,-1.9512,-1.9287,-1.9072,-1.8213,-1.8008,-1.8008,-1.8008,-1.8008,-1.8008,-1.8008,-1.8008,-1.8008,-1.8008,-1.8008,-1.8008,-1.8008,-1.8008,-1.8008,-1.8008,-1.8008,-1.7998,-1.7959,-1.7539,-1.6934,-1.6194,-1.6086,-1.583,-1.5439,-1.541,-1.541,-1.541,-1.541,-1.541,-1.541,-1.541,-1.541,-1.541,-1.6093,-1.6036,-1.542,-1.7402,-1.818,-3.1702,-3.2547,-3.2907,-3.2418,-3.0852,-2.8831,-2.6623,0.0,-2.0773,-1.9155,-1.7926,-1.7432,-1.8344,-1.8433,-1.8951,0.0,-2.0865,-2.1665,-2.3924,-2.56,-2.7769,-3.0926,-3.2482,-3.3873,0.0,0.0,-3.4905,-3.4905,-3.3973,-3.331,-3.289,-3.1476,-3.0419,-2.9792,-2.9792,-2.9792,-2.9792,-2.9792,-2.9792,-2.9792,-2.9792,-2.9792,-2.9792,-2.9792,-2.9792,-2.9779,-2.9428,-2.9277,0.0,-2.8662,-2.7865,-2.6967,-2.6818,-2.5745,-2.4409,-2.4409,-2.4036,-2.3441,-2.3073,-2.2925,-2.2925,-2.2925,-2.2627,-2.2339,-2.2339,-2.1527,-2.0867,-2.2048,-2.1897,-2.1247,-2.0431,-1.9384,-1.8567,-1.8735,-1.8787,-1.8921,-1.9431,-1.9177,-1.8787,-1.8787,-1.8327,-1.8134,-1.8721,-1.8787,-1.8787,-1.8787,-1.8787,-1.8596,-1.8076,-1.8008,-1.8202,-1.8721,-1.7949,-1.7236,-1.6885,-1.6429,-1.6047,-1.5811,-1.5557,-1.541,-1.541,-1.541,-1.5584,-1.6036,-1.6036,-1.6255,-1.6743,-1.7024,-1.7024,-1.6765,-1.8162,-1.8814,-2.9989,-3.1123,-3.1968,-3.1427,-2.9786,-2.7889,-2.6315,-2.3171,-2.0242,-1.898,-1.7709,-1.7168,-1.8336,-1.8466,-1.8812,0.0,-2.0222,-2.0775,-2.2454,-2.3804,-2.5821,-2.9235,0.0,-3.2422,-3.4427,-3.516,-3.5504,-3.5504,-3.4839,-3.4312,-3.4027,-3.2749,-3.1476,-3.0279,-2.9921,-2.9792,-2.9792,-2.9792,-2.9792,-2.9792,-2.9792,-2.9792,-2.9792,-2.9792,-2.9691,-2.9515,-2.9101,-2.8837,0.0,-2.8084,-2.7632,-2.7268,-2.7105,-2.6429,-2.5441,-2.5441,-2.4992,-2.4325,-2.4036,-2.3963,-2.3963,-2.3963,-2.3745,-2.3588,-2.4181,-2.2999,-2.1745,-2.3073,-2.2791,-2.1837,-2.1328,-1.9991,-1.8911,-1.9562,-1.9683,-1.9814,-2.0462,-2.0139,-1.9683,-1.9683,-1.9177,-1.8977,-1.9562,-1.9683,-1.9683,-1.9683,-1.9683,-1.9431,-1.8854,-1.8787,-1.8977,-1.9628,-1.8895,-1.8267,-1.8134,-1.7595,-1.6982,-1.6548,-1.6402,-1.6168,-1.5758,-1.5911,-1.6301,-1.6821,-1.681,-1.7166,-1.7857,-1.8079,-1.8147,-1.8149,-1.9471,-2.0133,-2.7638,-2.8433,-2.9025,-2.9062,-2.7858,-2.6522,-2.5795,-2.3006,-2.04,-1.964,-1.8042,-1.7247,-1.8623,-1.8879,-1.9194,-2.0164,-2.0837,-2.1596,-2.2555,-2.3804,-2.536,0.0,-2.8786,-3.0387,-3.2347,-3.4337,-3.5504,-3.5504,-3.5504,0.0,-3.4027,-3.3959,-3.3101,-3.1254,-3.0279,-2.9792,-2.9792,-2.9792,-2.9792,-2.9792,-2.9792,-2.9792,-2.9792,-2.9792,-2.9478,-2.8938,-2.8925,-2.8612,0.0,-2.7519,-2.7293,-2.7231,-2.6747,-2.6533,-2.6452,-2.6452,-2.6465,-2.6314,-2.53,-2.5004,-2.5004,-2.5004,-2.4337,-2.3879,-2.5861,-2.5052,-2.3441,-2.3514,-2.2809,-2.1978,-2.1967,-2.1252,-2.059,-2.059,-2.059,-2.059,-2.059,-2.059,-2.059,-2.059,-2.059,-2.059,-2.059,-2.059,-2.059,-2.059,-2.059,-2.059,-2.059,-2.059,-2.059,-2.059,-2.059,-2.0378,-1.9885,-1.989,-1.9171,-1.7509,-1.8096,-1.7887,-1.656,-1.7202,-1.7578,-1.7578,-1.7578,-1.7879,-1.8498,-1.9233,-1.9502,-1.9301,-2.1314,-2.2539,-2.5338,-2.6099,-2.6556,-2.6064,-2.5169,-2.4255,-2.3511,-2.172,-1.9913,-1.8956,-1.8071,-1.7706,-1.8418,-1.8936,-1.9709,-2.111,0.0,0.0,0.0,0.0,0.0,-2.8038,-3.145,-3.3873,0.0,0.0,-3.5504,-3.5504,-3.5504,-3.5359,-3.5052,-3.4394,-3.3171,-3.1241,-3.0895,-3.0419,-2.9792,-2.9792,-2.9792,-2.9792,-2.9792,-2.9792,-2.9792,-2.9792,-2.9478,-2.89,-2.8536,-2.8059,-2.7494,-2.6942,-2.6716,-2.6703,-2.6596,-2.6533,-2.6533,-2.6533,-2.6533,-2.6452,-2.6164,-2.6025,-2.6025,-2.6025,-2.5804,-2.5652,-2.6314,-2.5134,-2.3661,-2.4337,-2.3816,-2.3021,-2.3021,-2.1793,-2.0719,-2.1365,-2.1491,-2.1616,-2.2187,-2.1865,-2.1491,-2.1491,-2.0974,-2.0782,-2.1365,-2.1491,-2.1491,-2.1491,-2.1491,-2.129,-2.0655,-2.059,-2.0846,-2.1428,-2.1491,-2.1169,-2.043,-2.0104,-1.9644,-1.9149,-1.9067,-1.8879,-1.843,-1.8664,-1.8999,-1.9514,-1.9514,-1.9892,-2.0523,-2.076,-2.1043,-2.1397,-2.1989,-2.2611,0.0,-2.3782,-2.4239,-2.3782,-2.3105,-2.2446,-2.1989,-2.0703,-1.9395,-1.8735,-1.8162,-1.8047,-1.8843,-1.9332,-2.0052,-2.1294,-2.1795,0.0,0.0,0.0,0.0,-2.8689,-3.2168,0.0,0.0,-3.5205,-3.5504,-3.5504,-3.5504,-3.5504,-3.5504,-3.4905,-3.3822,-3.2321,-3.1888,-3.1476,-3.0846,-3.0495,-3.0355,-3.0355,-3.0011,-2.9792,-2.9779,-2.9566,-2.9164,-2.8586,-2.8034,-2.7482,0.0,-2.6672,-2.6533,-2.6533,-2.6533,-2.6533,-2.6533,-2.6533,-2.6533,-2.6533,-2.6533,-2.6533,-2.6533,-2.6533,-2.6533,-2.6533,-2.6533,-2.5505,-2.4437,-2.531,-2.467,-2.3733,-2.394,-2.2791,-2.1678,-2.2187,-2.2384,-2.2506,-2.3005,-2.2702,-2.2384,-2.2384,-2.1928,-2.1741,-2.2261,-2.2384,-2.2384,-2.2384,-2.2384,-2.2125,-2.1604,-2.1542,-2.1741,-2.231,-2.2384,-2.2125,-2.1604,-2.131,-2.0906,-2.0415,-2.0415,-2.0217,-1.9726,-1.9948,-2.0366,-2.0836,-2.0836,-2.1117,-2.1794,-2.2008,-2.2284,-2.2623,-2.2623,-2.2811,0.0,-2.1414,-2.1989,-2.1989,-2.1498,-2.1034,-2.0983,-1.9875,0.0,-1.8826,-1.8285,-1.8245,-1.9731,-2.0002,-2.0254,-2.1069,-2.1534,0.0,0.0,-2.396,0.0,0.0,-3.1554,0.0,-3.3574,-3.4771,-3.5504,-3.5504,-3.5504,-3.5504,-3.5504,-3.5504,-3.5067,-3.4163,-3.3241,-3.2749,-3.2593,-3.1742,-3.1315,-3.1315,-3.038,-2.9871,-2.9781,-2.9202,-2.8635,0.0,-2.7507,-2.6967,-2.6533,-2.6533,-2.6533,-2.6533,-2.6533,-2.6533,-2.6533,-2.6533,-2.6533,-2.6533,-2.6533,-2.6533,-2.6533,-2.6533,-2.6533,-2.6521,-2.6483,-2.6013,-2.5711,-2.6251,-2.5234,-2.4117,-2.4632,-2.3954,-2.3078,-2.3078,-2.3078,-2.3078,-2.3078,-2.3078,-2.3078,-2.3078,-2.3078,-2.3078,-2.3078,-2.3078,-2.3078,-2.3078,-2.3078,-2.3078,-2.3078,-2.3078,-2.3078,-2.3078,-2.3078,-2.3078,-2.3078,-2.3078,-2.26,-2.1416,-2.2009,-2.1844,-2.0613,-2.1255,-2.1606,-2.1606,-2.1606,-2.1857,-2.2372,-2.2887,-2.3078,-2.3078,-2.3078,-2.3078,-1.741,0.0,-1.8877,-1.8877,-1.9147,-1.9283,0.0,-1.8758,-1.8741,0.0,0.0,-1.8245,-1.9731,-2.0002,-2.0659,-2.2655,-2.3629,-2.4255,-2.4629,-2.7197,0.0,-3.2273,-3.3888,-3.4861,-3.5011,-3.5325,-3.5504,-3.5504,-3.5504,-3.5504,-3.5504,-3.5504,-3.5359,-3.5133,-3.492,-3.4124,-3.2593,-3.2393,-3.2249,-3.2236,-3.1514,-3.0823,-3.0268,-2.9595,-2.8607,-2.7469,-2.7344,-2.6967,-2.6533,-2.6533,-2.6533,-2.6533,-2.6533,-2.6533,-2.6533,-2.6533,-2.6533,-2.6533,-2.6533,-2.6533,-2.6533,-2.6533,-2.6533,-2.6445,-2.5937,-2.5699,-2.5624,-2.5762,-2.4933,-2.4029,-2.4155,-2.3665,-2.3078,-2.3078,-2.3078,-2.3078,-2.3078,-2.3078,-2.3078,-2.3078,-2.3078,-2.3078,-2.3078,-2.3078,-2.3078,-2.3078,-2.3078,-2.3078,-2.3078,-2.3078,-2.3078,-2.3078,-2.3078,-2.3078,-2.3078,-2.3078,-2.2955,-2.2698,-2.2817,-2.2755,-2.2499,-2.263,-2.2749,-2.2749,-2.2749,-2.2811,-2.2877,-2.3015,-2.3078,-2.3078,-2.3078,-2.3078,-1.5477,-1.6728,-1.7896,-1.8217,-1.8606,-1.8792,-1.8403,0.0,0.0,0.0,0.0,-1.8657,-1.9782,-2.0576,-2.1519,0.0,-2.4307,0.0,0.0,0.0,-3.1962,-3.3361,-3.4375,-3.504,0.0,-3.5325,-3.5504,-3.5504,-3.5504,-3.5504,-3.5504,-3.5504,-3.5504,-3.5504,-3.5504,-3.5001,-3.3905,-3.3463,-3.31,-3.2833,-3.2,-3.1225,-3.0478,-2.9446,-2.8538,-2.785,-2.7202,-2.7005,-2.704,-2.6658,-2.6714,-2.704,-2.6658,-2.6533,-2.6533,-2.6533,-2.6533,-2.6533,-2.6533,-2.6533,-2.6533,-2.6533,-2.6276,-2.6,-2.5686,-2.5247,-2.4921,-2.5172,-2.4456,-2.3665,-2.3929,-2.3565,-2.3078,-2.3078,-2.3078,-2.3078,-2.3078,-2.3078,-2.3078,-2.3078,-2.3078,-2.3078,-2.3078,-2.3078,-2.3078,-2.3078,-2.3078,-2.3078,-2.3078,-2.3078,-2.3078,-2.3078,-2.3078,-2.3078,-2.3078,-2.3078,-2.3078,-2.3078,-2.3078,-2.3078,-2.3078,-2.3078,-2.3078,-2.3078,-2.3078,-2.3078,-2.3078,-2.3078,-2.3078,-2.3078,-2.3078,-2.3078,-1.4562,-1.6306,-1.7963,-1.8572,-1.8894,-1.9063,-1.9063,0.0,0.0,0.0,0.0,0.0,0.0,-2.1515,0.0,0.0,0.0,0.0,-3.0011,-3.1665,-3.2834,-3.3413,-3.4015,0.0,-3.4322,-3.4936,-3.5355,-3.5355,-3.5444,-3.5504,-3.5504,-3.5504,-3.5504,-3.5504,-3.54,-3.5355,-3.5355,-3.453,-3.3796,-3.3122,-3.2168,-3.136,-3.0632,-2.9349,-2.8678,-2.8518,0.0,0.0,-2.7855,-2.7162,-2.7297,-2.7802,-2.6973,-2.6658,-2.6658,-2.6521,-2.6533,-2.6533,-2.6533,-2.6533,-2.6508,-2.642,-2.6,-2.5561,-2.5398,-2.472,-2.4079,-2.4456,-2.3816,-2.3251,-2.374,-2.3502,-2.3078,-2.3078,-2.3078,-2.3078,-2.3078,-2.3078,-2.3078,-2.3078,-2.3078,-2.3078,-2.3078,-2.3078,-2.3078,-2.3078,-2.3078,-2.3078,-2.3078,-2.3078,-2.3078,-2.3078,-2.3078,-2.3078,-2.3078,-2.3078,-2.3078,-2.3078,-2.3078,-2.3078,-2.3078,-2.3078,-2.3078,-2.3078,-2.3078,-2.3078,-2.3078,-2.3078,-2.3078,-2.3078,-2.3078,-2.3078,-1.5758,-1.7067,-1.7845,-1.7946,-1.8903,-1.9816,0.0,0.0,0.0,0.0,0.0,0.0,0.0,-2.2649,-2.3634,0.0,0.0,-2.9293,0.0,0.0,-3.2834,-3.3413,0.0,-3.3649,-3.3649,-3.4247,-3.4637,-3.4637,-3.5175,-3.5504,-3.5504,-3.5504,-3.5504,-3.5504,-3.4936,-3.4637,-3.4637,-3.448,-3.4088,-3.3449,-3.2685,-3.1948,-3.1088,-3.0363,-2.9645,-2.8935,0.0,-2.8684,-2.8812,-2.8684,-2.8684,-2.8684,-2.7855,-2.755,-2.7417,-2.6782,-2.6533,-2.6533,-2.6533,-2.6533,-2.6445,-2.5887,-2.5674,-2.5423,-2.4519,-2.413,-2.3916,-2.3514,-2.3203,-2.309,-2.3178,-2.314,-2.3078,-2.3078,-2.3078,-2.3078,-2.3078,-2.3078,-2.3078,-2.3078,-2.3078,-2.3078,-2.3078,-2.3078,-2.3078,-2.3078,-2.3078,-2.3078,-2.3078,-2.3078,-2.3078,-2.3078,-2.3078,-2.3078,-2.3078,-2.3078,-2.3078,-2.3078,-2.3078,-2.3078,-2.3078,-2.3078,-2.3078,-2.3078,-2.3078,-2.3078,-2.3078,-2.3078,-2.3078,-2.3078,-2.3078,-2.3078,-1.4613,-1.6055,-1.7304,-1.771,-1.9249,-2.0754,-2.116,0.0,0.0,0.0,0.0,0.0,0.0,0.0,-2.5445,-2.7761,0.0,-3.1288,-3.245,-3.2895,-3.3096,0.0,0.0,-3.2961,-3.2961,-3.3559,-3.3948,-3.3948,-3.4247,-3.4412,-3.4412,-3.4412,-3.4412,-3.4412,-3.4113,-3.3784,-3.3425,-3.3425,-3.326,-3.2961,-3.2662,-3.2124,-3.1307,-3.064,-3.0072,-2.969,0.0,-2.9254,-2.969,-2.9192,-2.9254,-2.9566,-2.8247,-2.767,-2.7604,-2.6782,-2.6533,-2.6533,-2.6533,-2.6533,-2.6433,-2.5787,-2.541,-2.5034,-2.4243,-2.3778,-2.3477,-2.3153,-2.3078,-2.3078,-2.3078,-2.3078,-2.3078,-2.3078,-2.3078,-2.3078,-2.3078,-2.3078,-2.3078,-2.3078,-2.3078,-2.3078,-2.3078,-2.3078,-2.3078,-2.3078,-2.3078,-2.3078,-2.3078,-2.3078,-2.3078,-2.3078,-2.3078,-2.3078,-2.3078,-2.3078,-2.3078,-2.3078,-2.3078,-2.3078,-2.3078,-2.3078,-2.3078,-2.3078,-2.3078,-2.3078,-2.3078,-2.3543,-2.3767,-2.3767,-2.4163,-2.4323,-1.3715,-1.5238,-1.6919,-1.7828,0.0,-2.1211,-2.231,0.0,0.0,0.0,0.0,0.0,0.0,-2.484,0.0,-3.0081,-3.1539,-3.255,-3.3192,-3.3347,-3.3235,-3.2895,-3.2505,-3.2332,-3.2508,-3.2991,-3.326,-3.326,-3.341,-3.3499,-3.3499,-3.3499,-3.3499,-3.3499,-3.335,-3.3021,-3.2527,-3.2362,-3.2287,-3.2287,-3.2287,-3.2018,-3.1467,-3.0837,-3.0584,-3.0524,-2.9889,-2.995,-3.0524,-2.9889,-2.995,-3.045,-2.8876,-2.8182,-2.7907,-2.6953,-2.6578,-2.6566,-2.6249,-2.6076,-2.6043,-2.5595,-2.5191,-2.4823,-2.4436,-2.4009,-2.3636,-2.3636,-2.3636,-2.359,-2.3424,-2.3365,-2.3424,-2.359,-2.3636,-2.3636,-2.3636,-2.3636,-2.3636,-2.3636,-2.3636,-2.3636,-2.3636,-2.3636,-2.3636,-2.3636,-2.3636,-2.3636,-2.3636,-2.3484,-2.3365,-2.3365,-2.3365,-2.3471,-2.3649,-2.3636,-2.3636,-2.3636,-2.3484,-2.3365,-2.3365,-2.3531,-2.3636,-2.3636,-2.3636,-2.3636,-2.3636,-2.4279,-2.4567,-2.4567,-2.5119,-2.5398,-1.4628,-1.5871,-1.7037,-1.8471,0.0,0.0,-2.2835,-2.3274,0.0,0.0,0.0,0.0,0.0,-2.6245,-2.846,-3.0923,-3.1925,-3.2461,-3.2629,0.0,-3.2895,-3.3443,-3.2342,-3.1814,-3.2514,-3.2576,-3.2587,-3.2587,-3.3155,-3.3499,-3.3499,-3.3499,-3.3499,-3.3499,-3.2901,-3.2557,-3.2512,-3.1855,-3.1541,-3.1541,-3.1541,-3.1526,-3.1482,-3.1409,-3.1409,-3.1409,-3.1351,-3.1351,-3.1409,-3.1351,-3.1351,-3.1351,-3.045,-2.9628,-2.8743,-2.7373,-2.688,-2.6673,-2.5356,-2.4946,-2.4974,-2.5114,-2.5135,-2.511,-2.5252,-2.5272,-2.5231,-2.5231,-2.5231,-2.5063,-2.4394,-2.4234,-2.4408,-2.5063,-2.5231,-2.5231,-2.5231,-2.5231,-2.5231,-2.5231,-2.5231,-2.5231,-2.5231,-2.5231,-2.5231,-2.5231,-2.5231,-2.5231,-2.5231,-2.4624,-2.4234,-2.4234,-2.4234,-2.4509,-2.5175,-2.5231,-2.5231,-2.5231,-2.4567,-2.4234,-2.4234,-2.4894,-2.5231,-2.5231,-2.5231,-2.5231,-2.5231,-2.5287,-2.5342,-2.5342,-2.5398,-2.5398,-1.3653,-1.5048,-1.6625,-1.7895,0.0,0.0,0.0,0.0,0.0,0.0,-2.6499,0.0,0.0,0.0,-2.8783,-3.0637,-3.1438,-3.2031,-3.2547,-3.2933,-3.3145,-3.2986,-3.2879,-3.2772,-3.2586,-3.2557,-3.2387,-3.1898,-3.2138,-3.2273,-3.2273,-3.2273,-3.2273,-3.2273,-3.2033,-3.1898,-3.1898,-3.1601,-3.1482,-3.1482,-3.1482,-3.1482,-3.1482,-3.1482,-3.1482,-3.1482,-3.1482,-3.1482,-3.1482,-3.1482,-3.1482,-3.1379,-3.0148,-2.9124,-2.8243,-2.7319,-2.6965,-2.6877,-2.6356,-2.6166,-2.6134,-2.5859,-2.5788,-2.5738,-2.5479,-2.5398,-2.5398,-2.5398,-2.5398,-2.5342,-2.5063,-2.4951,-2.5063,-2.5342,-2.5398,-2.5398,-2.5398,-2.5398,-2.5398,-2.5398,-2.5398,-2.5398,-2.5398,-2.5398,-2.5398,-2.5398,-2.5398,-2.5398,-2.5398,-2.5175,-2.4951,-2.4951,-2.4951,-2.5119,-2.5398,-2.5398,-2.5398,-2.5398,-2.5119,-2.4951,-2.4951,-2.5231,-2.5398,-2.5398,-2.5398,-2.5398,-2.5398,-2.5837,-2.6068,-2.6122,-2.6534,-2.6759,-1.338,-1.4927,-1.6767,0.0,0.0,0.0,0.0,0.0,0.0,0.0,-2.7476,0.0,0.0,0.0,0.0,0.0,-3.1228,-3.1819,-3.2798,-3.3287,-3.3495,-3.3235,-3.3235,-3.3198,-3.2949,-3.2532,-3.2064,-3.1539,-3.1482,-3.1482,-3.1482,-3.1482,-3.1482,-3.1482,-3.1482,-3.1482,-3.1482,-3.1482,-3.1482,-3.1482,-3.1482,-3.1482,-3.1482,-3.1482,-3.1482,-3.1482,-3.1482,-3.1482,-3.1482,-3.1482,-3.1347,-3.1093,-2.9883,-2.903,-2.8403,-2.7463,-2.7181,-2.7081,-2.6668,-2.6483,-2.6472,-2.6314,-2.6302,-2.6274,-2.6127,-2.6094,-2.6094,-2.6094,-2.6094,-2.6094,-2.6094,-2.5946,-2.5783,-2.6054,-2.6094,-2.6094,-2.6094,-2.6094,-2.6094,-2.6094,-2.6094,-2.6094,-2.6094,-2.6094,-2.6094,-2.6094,-2.6094,-2.6094,-2.6094,-2.5892,-2.5728,-2.5728,-2.5728,-2.5837,-2.6054,-2.6094,-2.6094,-2.6094,-2.6094,-2.6,-2.5728,-2.5946,-2.6094,-2.6094,-2.6094,-2.6094,-2.6108,-2.6602,-2.6826,-2.6878,-2.7357,-2.7625,-1.4192,-1.5869,-1.7602,0.0,0.0,0.0,0.0,0.0,0.0,0.0,0.0,-2.8192,-2.8498,-2.8313,0.0,-3.1117,-3.1518,-3.1966,-3.339,-3.3582,-3.3836,-3.4528,-3.3443,-3.2895,-3.3547,-3.2351,-3.1539,-3.1482,-3.1482,-3.1482,-3.1482,-3.1482,-3.1482,-3.1482,-3.1482,-3.1482,-3.1482,-3.1482,-3.1482,-3.1482,-3.1482,-3.1482,-3.1482,-3.1482,-3.1482,-3.1482,-3.1482,-3.1482,-3.1482,-3.1467,-3.112,-3.0447,-2.9819,-2.9564,-2.9436,-2.8021,-2.7501,-2.7291,-2.5883,-2.5398,-2.5563,-2.6283,-2.651,-2.6669,-2.7357,-2.7625,-2.7625,-2.7625,-2.7625,-2.7625,-2.7625,-2.7034,-2.6669,-2.7408,-2.7625,-2.7625,-2.7625,-2.7625,-2.7625,-2.7625,-2.7625,-2.7625,-2.7625,-2.7625,-2.7625,-2.7625,-2.7625,-2.7625,-2.7625,-2.693,-2.651,-2.651,-2.651,-2.6826,-2.7524,-2.7625,-2.7625,-2.7625,-2.7625,-2.7255,-2.6563,-2.7188,-2.7625,-2.7625,-2.7625,-2.7625,-2.7625,-2.7625,-2.7625,-2.7625,-2.7625,-2.7625,-1.3899,-1.5749,0.0,0.0,0.0,0.0,0.0,0.0,0.0,0.0,-2.9,-2.9173,-2.968,-2.9678,0.0,-3.1324,-3.1518,-3.1966,-3.339,-3.3582,-3.3836,-3.4528,-3.3836,-3.3391,-3.3582,-3.2788,-3.2064,-3.1539,-3.1482,-3.1482,-3.1482,-3.1482,-3.1482,-3.1482,-3.1482,-3.1482,-3.1482,-3.1482,-3.1482,-3.1482,-3.1482,-3.1482,-3.1482,-3.1482,-3.1482,-3.1482,-3.1482,-3.1482,-3.1437,-3.1001,-3.0687,-3.0387,-2.931,-2.8891,-2.8801,-2.7906,-2.7587,-2.7506,-2.7093,-2.6967,-2.6967,-2.7188,-2.7255,-2.7306,-2.7509,-2.7625,-2.7625,-2.7625,-2.7625,-2.7625,-2.7625,-2.7458,-2.7306,-2.7575,-2.7625,-2.7625,-2.7625,-2.7625,-2.7625,-2.7625,-2.7625,-2.7625,-2.7625,-2.7625,-2.7625,-2.7625,-2.7625,-2.7625,-2.7625,-2.7408,-2.7255,-2.7255,-2.7255,-2.7357,-2.7575,-2.7625,-2.7625,-2.7625,-2.7625,-2.7509,-2.7306,-2.7458,-2.7625,-2.7625,-2.7625,-2.7625,-2.7625,-2.7625,-2.7625,-2.7625,-2.7625,-2.7625,-1.4736,0.0,0.0,0.0,-2.0876,-2.2524,-2.5091,0.0,0.0,0.0,0.0,-2.9737,-2.9886,-2.9707,0.0,-3.1248,-3.1054,-3.1309,-3.2935,-3.3145,-3.3307,-3.3779,-3.3433,-3.3192,-3.3219,-3.2586,-3.1951,-3.1524,-3.1482,-3.1482,-3.1482,-3.1482,-3.1482,-3.1482,-3.1482,-3.1482,-3.1482,-3.1482,-3.1482,-3.1482,-3.1482,-3.139,-3.1135,-3.1347,-3.1482,-3.1467,-3.124,-3.0986,-3.0702,-3.0028,-2.9744,-2.9639,-2.8607,-2.8188,-2.8143,-2.7775,-2.7625,-2.7625,-2.7625,-2.7625,-2.7625,-2.7625,-2.7625,-2.7625,-2.7625,-2.7625,-2.7625,-2.7625,-2.7625,-2.7625,-2.7625,-2.7625,-2.7625,-2.7625,-2.7625,-2.7625,-2.7625,-2.7625,-2.7625,-2.7625,-2.7625,-2.7625,-2.7625,-2.7625,-2.7625,-2.7625,-2.7625,-2.7625,-2.7625,-2.7625,-2.7625,-2.7625,-2.7625,-2.7625,-2.7625,-2.7625,-2.7625,-2.7625,-2.7625,-2.7625,-2.7625,-2.7625,-2.7625,-2.7625,-2.7625,-2.7625,-2.7625,-2.7625,-2.7625,-2.7625,-2.7625,-2.7625,-1.6069,0.0,0.0,-2.0459,-2.1491,0.0,-2.587,-2.7943,-2.9239,-2.944,0.0,-2.9972,-2.956,-2.8922,-2.9081,-3.0986,-3.0384,-3.0306,-3.2154,-3.236,-3.236,-3.2465,-3.2363,-3.2278,-3.2392,-3.1769,-3.1302,-3.1302,-3.1402,-3.1402,-3.1402,-3.1504,-3.1592,-3.1592,-3.1592,-3.1534,-3.1492,-3.1432,-3.1402,-3.1302,-3.1302,-3.1031,-3.0447,-3.1135,-3.1347,-3.1315,-3.0687,-3.0103,-2.9535,-2.8876,-2.8607,-2.8532,-2.7844,-2.7625,-2.7625,-2.7625,-2.7625,-2.7625,-2.7625,-2.7625,-2.7625,-2.7625,-2.7625,-2.7625,-2.7625,-2.7625,-2.7625,-2.7625,-2.7625,-2.7625,-2.7625,-2.7625,-2.7625,-2.7625,-2.7625,-2.7625,-2.7625,-2.7625,-2.7625,-2.7625,-2.7625,-2.7625,-2.7625,-2.7625,-2.7625,-2.7625,-2.7625,-2.7625,-2.7625,-2.7625,-2.7625,-2.7625,-2.7625,-2.7625,-2.7625,-2.7625,-2.7625,-2.7625,-2.7625,-2.7625,-2.7625,-2.7625,-2.7625,-2.7625,-2.7625,-2.7625,-2.7625,-2.7625,-2.7625,-2.7625,-2.7625,-2.7625,0.0,-1.6991,0.0,0.0,-2.3506,-2.556,-2.6708,-2.8125,-2.9362,-2.9959,-3.0178,-3.0212,-3.0133,-2.9992,-3.0027,-3.0606,-3.0477,-3.067,-3.1628,-3.1341,-3.1209,-3.1742,-3.0861,-3.0433,-3.0996,-3.0388,-2.9998,-2.9998,-3.0441,-3.0744,-3.0744,-3.1696,-3.2273,-3.2273,-3.2273,-3.2029,-3.1582,-3.1006,-3.0495,-2.9998,-2.9998,-2.9924,-2.9804,-3.0432,-3.0462,-2.9998,-2.9849,-2.9699,-2.9535,-2.8876,-2.8607,-2.8532,-2.7844,-2.7625,-2.7625,-2.7625,-2.7625,-2.7625,-2.7625,-2.7625,-2.7625,-2.7625,-2.7625,-2.7625,-2.7625,-2.7625,-2.7625,-2.7625,-2.7625,-2.7625,-2.7625,-2.7625,-2.7625,-2.7625,-2.7625,-2.7625,-2.7625,-2.7625,-2.7625,-2.7625,-2.7625,-2.7625,-2.7625,-2.7625,-2.7625,-2.7625,-2.7625,-2.7625,-2.7625,-2.7625,-2.7625,-2.7625,-2.7625,-2.7625,-2.7625,-2.7625,-2.7625,-2.7625,-2.7625,-2.7625,-2.7625,-2.7625,-2.7625,-2.7625,-2.7625,-2.7625,-2.7625,-2.7625,-2.7625,-2.7625,-2.7625,-2.786,0.0,0.0,0.0,-2.149,0.0,-2.6011,-2.6907,-2.8151,-2.9221,-2.9621,-2.9996,-3.0208,-2.9935,-2.9629,-2.9579,-2.9932,-2.947,-2.9373,-3.0022,-2.9795,-2.9738,-3.0114,-2.9823,-2.9703,-3.006,-3.0053,-3.0015,-3.0015,-3.0592,-3.093,-3.093,-3.1609,-3.1948,-3.1948,-3.1948,-3.1665,-3.1083,-3.0967,-3.049,-2.9579,-2.9872,-2.9705,-2.9131,-2.9774,-2.9714,-2.9116,-2.9116,-2.8921,-2.8644,-2.8248,-2.8113,-2.8068,-2.776,-2.7625,-2.7625,-2.7625,-2.7625,-2.7625,-2.7625,-2.7625,-2.7625,-2.7625,-2.7625,-2.7625,-2.7625,-2.7625,-2.7625,-2.7625,-2.7625,-2.7625,-2.7625,-2.7625,-2.7625,-2.7625,-2.7625,-2.7625,-2.7625,-2.7625,-2.7625,-2.7625,-2.7625,-2.7625,-2.7625,-2.7625,-2.7625,-2.7625,-2.7625,-2.7625,-2.7625,-2.7625,-2.7625,-2.7625,-2.7625,-2.7625,-2.7625,-2.786,-2.8042,-2.8042,-2.8304,-2.8448,-2.8448,-2.8448,-2.8174,-2.761,-2.7625,-2.7625,-2.7625,-2.7625,-2.776,-2.8042,-2.8042,-2.8367,0.0,0.0,0.0,-2.1781,-2.3899,0.0,-2.6755,-2.7961,-2.8772,-2.8662,-2.9403,-2.9969,-2.9452,-2.8963,-2.8779,-2.918,-2.8496,-2.8042,-2.8463,-2.8511,-2.855,-2.8733,-2.9081,-2.9396,-2.9568,-2.9997,-3.0285,-3.0285,-3.0862,-3.1229,-3.1229,-3.1436,-3.1563,-3.1563,-3.1563,-3.1278,-3.0642,-3.1006,-3.0667,-2.9576,-3.0048,-2.9755,-2.8773,-2.9319,-2.9132,-2.8427,-2.8427,-2.8098,-2.7625,-2.7625,-2.7625,-2.7625,-2.7625,-2.7625,-2.7625,-2.7625,-2.7625,-2.7625,-2.7625,-2.7625,-2.7625,-2.7625,-2.7625,-2.7625,-2.7625,-2.7625,-2.7625,-2.7625,-2.7625,-2.7625,-2.7625,-2.7625,-2.7625,-2.7625,-2.766,-2.771,-2.7625,-2.7625,-2.7625,-2.7625,-2.7625,-2.7625,-2.7625,-2.7625,-2.7625,-2.7625,-2.766,-2.776,-2.776,-2.786,-2.7894,-2.7894,-2.7894,-2.7894,-2.7894,-2.8367,-2.8654,-2.8654,-2.9134,-2.9406,-2.9406,-2.9406,-2.895,-2.7944,-2.7894,-2.7894,-2.7894,-2.7894,-2.8174,-2.8654,-2.8654,-2.8966,0.0,0.0,0.0,0.0,-2.4086,-2.5324,0.0,0.0,-2.7818,0.0,-2.8333,-2.9297,-2.9256,-2.9253,-2.9134,-2.8685,-2.8904,-2.8996,-2.8559,-2.8511,-2.8685,-2.9215,-2.892,-2.8857,-2.9373,-2.9512,-2.9557,-2.9557,-3.0097,-3.0461,-3.0461,-3.1541,-3.2185,-3.2185,-3.2185,-3.1874,-3.1275,-3.0713,-3.008,-2.9419,-2.9512,-2.9464,-2.9277,-2.9372,-2.8808,-2.7709,-2.7709,-2.77,-2.7625,-2.7625,-2.7625,-2.7625,-2.7625,-2.7625,-2.7625,-2.7625,-2.7625,-2.7625,-2.7625,-2.7625,-2.7625,-2.7625,-2.7625,-2.7625,-2.7625,-2.7625,-2.7625,-2.7625,-2.7625,-2.7625,-2.7625,-2.7625,-2.7625,-2.7625,-2.7993,-2.8238,-2.771,-2.7625,-2.7625,-2.7625,-2.7625,-2.7625,-2.7625,-2.7625,-2.7625,-2.7625,-2.8042,-2.8367,-2.8367,-2.8826,-2.918,-2.918,-2.918,-2.918,-2.918,-2.9225,-2.9271,-2.9271,-2.9361,-2.9406,-2.9406,-2.9406,-2.9316,-2.918,-2.918,-2.918,-2.918,-2.918,-2.918,-2.9271,-2.9271,-2.9585,-1.373,0.0,-1.9148,0.0,-2.2959,-2.3851,-2.5681,0.0,-2.6624,-2.6751,-2.7375,-2.7945,-2.807,-2.8116,-2.8236,-2.8349,-2.8592,-2.8825,-2.8995,-2.8996,-2.9088,-2.9361,-2.918,-2.9088,-2.9361,-2.9717,-2.9892,-2.9892,-3.0477,-3.0781,-3.0781,-3.1358,-3.1664,-3.1664,-3.1664,-3.1388,-3.0813,-3.0808,-3.0518,-2.9892,-2.954,-2.9406,-2.9406,-2.9406,-2.8904,-2.8091,-2.8091,-2.7894,-2.7625,-2.7625,-2.7625,-2.7625,-2.7625,-2.7625,-2.7625,-2.7625,-2.7625,-2.7625,-2.7625,-2.7625,-2.7625,-2.7625,-2.7625,-2.7625,-2.7625,-2.7625,-2.7625,-2.7625,-2.786,-2.8042,-2.766,-2.8125,-2.8448,-2.776,-2.8319,-2.8996,-2.8934,-2.8764,-2.8638,-2.8638,-2.8638,-2.8638,-2.8638,-2.8638,-2.8638,-2.8638,-2.881,-2.8996,-2.8996,-2.9225,-2.9406,-2.9406,-2.9406,-2.9406,-2.9406,-2.9717,-2.9892,-2.9892,-3.0208,-3.0435,-3.0435,-3.0435,-3.0435,-3.0435,-2.9761,-2.9406,-2.9406,-2.9406,-2.9585,-2.9892,-2.9892,-3.0208,0.0,0.0,-1.747,-2.0767,-2.1713,-2.2459,0.0,0.0,-2.5761,0.0,-2.6668,-2.6879,-2.7032,-2.7276,-2.7612,-2.8168,-2.8375,-2.8611,-2.9016,-2.9242,-2.9415,-2.9545,-2.9604,-2.9673,-2.9848,-3.0251,-3.0518,-3.0518,-3.0935,-3.119,-3.119,-3.119,-3.119,-3.119,-3.119,-3.0975,-3.0518,-3.0975,-3.0975,-3.0518,-3.0081,-2.9848,-2.9848,-2.9848,-2.954,-2.8966,-2.8779,-2.8367,-2.786,-2.7993,-2.7894,-2.7625,-2.776,-2.771,-2.7625,-2.7625,-2.7625,-2.7625,-2.7625,-2.7625,-2.7625,-2.7625,-2.7625,-2.7625,-2.7625,-2.771,-2.781,-2.761,-2.814,-2.8606,-2.7993,-2.8638,-2.918,-2.8255,-2.8857,-2.9673,-2.9805,-2.9629,-2.9406,-2.9406,-2.9406,-2.9406,-2.9406,-2.9406,-2.9406,-2.9406,-2.954,-2.9629,-2.9629,-2.9761,-2.9848,-2.9848,-2.9848,-2.9848,-2.9848,-3.0251,-3.0518,-3.0518,-3.0958,-3.119,-3.119,-3.119,-3.119,-3.119,-3.0309,-2.9848,-2.9848,-2.9848,-3.0081,-3.0518,-3.0518,-3.0781,0.0,-1.3466,0.0,-1.9183,-2.0698,0.0,0.0,0.0,-2.5625,-2.5659,-2.6201,-2.6725,-2.6725,-2.7437,-2.8073,-2.8106,-2.8581,-2.8803,-2.825,-2.8787,-2.9433,-2.9989,-3.0202,-3.0477,-3.1055,-3.1134,-3.1151,-3.1151,-3.119,-3.119,-3.119,-3.119,-3.119,-3.119,-3.119,-3.119,-3.1151,-3.119,-3.119,-3.1151,-3.1112,-3.1112,-3.1112,-3.1112,-3.0797,-3.0166,-2.9585,-2.8996,-2.8511,-2.9088,-2.8622,-2.766,-2.8238,-2.8091,-2.7625,-2.7625,-2.7625,-2.7625,-2.7625,-2.7625,-2.7625,-2.7625,-2.7625,-2.7625,-2.7625,-2.7993,-2.8319,-2.776,-2.8448,-2.9225,-2.8606,-2.8904,-2.9361,-2.9316,-2.9805,-3.0123,-2.954,-2.9406,-2.9406,-2.9406,-2.9406,-2.9406,-2.9406,-2.9406,-2.9406,-2.9406,-2.9908,-3.0251,-3.0251,-3.074,-3.1112,-3.1112,-3.1112,-3.1112,-3.1112,-3.1151,-3.1151,-3.1151,-3.119,-3.119,-3.119,-3.119,-3.119,-3.119,-3.1151,-3.1112,-3.1112,-3.1112,-3.1112,-3.1151,-3.1151,-3.119,0.0,0.0,0.0,-1.7105,-1.8869,-2.0492,-2.2348,-2.3479,-2.4323,-2.4797,-2.5084,-2.5423,-2.5913,-2.6673,-2.7356,-2.7841,-2.807,-2.8328,-2.8632,-2.8917,-2.916,-2.9381,-2.945,-2.9563,-2.977,-2.977,-2.977,-2.977,-2.977,-2.977,-2.977,-2.977,-2.977,-2.977,-3.0243,-3.0717,-3.119,-3.119,-3.119,-3.119,-3.119,-3.119,-3.119,-3.119,-3.1095,-3.0878,-3.0658,-2.9978,-2.9088,-2.9316,-2.9134,-2.8764,-2.8996,-2.895,-2.8717,-2.8319,-2.8189,-2.814,-2.771,-2.786,-2.8189,-2.8189,-2.8448,-2.8764,-2.8764,-2.8904,-2.9042,-2.881,-2.9361,-2.9848,-2.9225,-2.9805,-3.0576,-3.0576,-3.0699,-3.0838,-3.0601,-3.0576,-3.0576,-3.0576,-3.0576,-3.0576,-3.0576,-3.0576,-3.0576,-3.0576,-3.074,-3.0878,-3.0878,-3.1055,-3.119,-3.119,-3.119,-3.119,-3.119,-3.119,-3.119,-3.119,-3.119,-3.119,-3.119,-3.119,-3.119,-3.119,-3.119,-3.119,-3.119,-3.119,-3.119,-3.119,-3.119,-3.119,-1.0339,0.0,0.0,0.0,0.0,-1.8864,-2.1387,-2.232,-2.2936,-2.3947,-2.4337,-2.4644,-2.5135,-2.5625,-2.6268,-2.7283,-2.7452,-2.7621,-2.8146,-2.8433,-2.8602,-2.8602,-2.8822,-2.9011,-2.9011,-2.9011,-2.9011,-2.9011,-2.9011,-2.9011,-2.9011,-2.9011,-2.9011,-2.9011,-2.9465,-3.0074,-3.0818,-3.0835,-3.0954,-3.119,-3.119,-3.119,-3.119,-3.119,-3.1055,-3.0835,-3.0835,-3.0384,-2.9717,-2.9935,-2.9761,-2.939,-2.9355,-2.9231,-2.8965,-2.8558,-2.8435,-2.8389,-2.7965,-2.8262,-2.8748,-2.8498,-2.8853,-2.9358,-2.9118,-2.9347,-2.9625,-2.9163,-2.9799,-3.0477,-2.9848,-3.0435,-3.119,-3.119,-3.119,-3.119,-3.119,-3.119,-3.119,-3.119,-3.119,-3.119,-3.119,-3.119,-3.119,-3.119,-3.119,-3.119,-3.119,-3.119,-3.119,-3.119,-3.119,-3.119,-3.119,-3.119,-3.119,-3.119,-3.119,-3.119,-3.119,-3.119,-3.119,-3.119,-3.119,-3.119,-3.119,-3.119,-3.119,-3.119,-3.119,-3.119,0.0,0.0,0.0,0.0,0.0,0.0,-2.1177,0.0,-2.1515,-2.3021,-2.3866,-2.4374,-2.4472,-2.4472,-2.4946,-2.6387,-2.664,-2.6657,-2.6657,-2.73,-2.7755,-2.7755,-2.845,-2.8943,-2.8943,-2.8943,-2.8943,-2.8943,-2.8943,-2.8943,-2.8943,-2.8943,-2.8924,-2.8941,-2.8941,-2.9313,-3.0074,-3.0074,-3.0429,-3.114,-3.114,-3.114,-3.114,-3.114,-3.0734,-3.0074,-3.0074,-3.0135,-3.0327,-3.0908,-3.0452,-2.9367,-2.923,-2.8828,-2.8318,-2.8302,-2.8302,-2.8302,-2.8259,-2.8766,-2.923,-2.8542,-2.8782,-2.9259,-2.8526,-2.9231,-2.9995,-2.8683,-2.9683,-3.0988,-3.041,-3.069,-3.114,-3.1157,-3.1157,-3.1173,-3.119,-3.119,-3.119,-3.119,-3.119,-3.119,-3.119,-3.119,-3.119,-3.119,-3.119,-3.119,-3.119,-3.119,-3.119,-3.119,-3.119,-3.119,-3.119,-3.119,-3.119,-3.119,-3.119,-3.119,-3.119,-3.119,-3.119,-3.119,-3.119,-3.119,-3.119,-3.119,-3.119,-3.119,-3.119,-3.119,-1.0099,0.0,0.0,0.0,0.0,0.0,0.0,0.0,-1.9085,-2.1336,-2.1389,-2.1586,-2.3363,-2.3697,-2.4002,-2.498,-2.5558,-2.5913,-2.5913,-2.6539,-2.6996,-2.6996,-2.7199,-2.7334,-2.7334,-2.7334,-2.7334,0.0,-2.7334,-2.7334,-2.7334,-2.7334,-2.7571,-2.8129,-2.8146,-2.8518,-2.9296,-2.9296,-2.9397,-2.96,-2.96,-2.96,-2.96,-2.96,-2.9482,-2.9296,-2.9296,-2.9323,-2.9379,-2.9546,-2.9416,-2.9098,-2.9068,-2.8946,-2.8777,-2.8312,-2.8152,-2.8095,-2.764,-2.7936,-2.8412,-2.8217,-2.858,-2.9082,-2.8882,-2.9097,-2.929,-2.892,-2.9173,-2.9546,-2.9416,-2.9471,-2.9736,-3.0277,-3.0412,-3.0548,-3.1072,-3.119,-3.119,-3.119,-3.119,-3.119,-3.119,-3.119,-3.119,-3.119,-3.119,-3.119,-3.119,-3.119,-3.119,-3.119,-3.119,-3.119,-3.119,-3.119,-3.119,-3.119,-3.119,-3.119,-3.119,-3.119,-3.119,-3.119,-3.119,-3.119,-3.119,-3.119,-3.119,-3.119,-3.119,-3.119,0.0,0.0,0.0,0.0,0.0,0.0,-1.7418,-1.7429,-1.7652,0.0,-2.048,-2.0773,-2.2226,-2.2733,-2.3088,-2.3511,-2.4205,-2.4797,-2.5101,-2.5507,-2.5778,-2.5778,-2.6048,-2.6234,-2.6234,-2.6522,-2.6691,-2.6691,-2.6691,-2.6691,-2.6691,-2.6691,-2.6894,-2.7334,-2.7351,-2.7723,-2.8484,-2.8501,-2.8653,-2.9011,-2.9011,-2.9011,-2.9011,-2.9011,-2.8805,-2.8501,-2.8501,-2.8315,-2.8027,-2.8027,-2.8399,-2.8994,-2.8619,-2.8501,-2.8465,-2.8085,-2.7956,-2.7919,-2.7558,-2.7888,-2.8427,-2.8073,-2.8431,-2.8924,-2.8602,-2.8721,-2.8924,-2.8586,-2.8738,-2.9011,-2.9011,-2.9011,-2.9093,-2.9533,-2.9888,-3.0226,-3.0649,-3.097,-3.119,-3.119,-3.119,-3.119,-3.119,-3.119,-3.119,-3.119,-3.119,-3.119,-3.119,-3.119,-3.119,-3.119,-3.119,-3.119,-3.119,-3.119,-3.119,-3.119,-3.119,-3.119,-3.119,-3.119,-3.119,-3.119,-3.119,-3.119,-3.119,-3.119,-3.119,-3.119,-3.119,-3.119,-1.3325,-1.3615,0.0,-1.5871,-1.4909,0.0,-1.814,-1.7526,-1.6847,0.0,-2.0103,-2.061,-2.0873,-2.1481,-2.1955,-2.204,-2.2665,-2.3427,-2.4269,-2.4455,-2.4506,-2.4506,-2.5067,-2.549,-2.549,-2.6065,-2.6488,-2.6573,-2.664,-2.6691,-2.6691,-2.6691,-2.6691,-2.6691,-2.6691,-2.7012,-2.7654,-2.7689,-2.8044,-2.8721,-2.8721,-2.8721,-2.8721,-2.8721,-2.8349,-2.7689,-2.7689,-2.7317,-2.6691,-2.6691,-2.7503,-2.8653,-2.796,-2.7689,-2.7689,-2.7689,-2.7689,-2.7689,-2.7689,-2.8146,-2.8619,-2.7926,-2.8163,-2.8602,-2.7909,-2.818,-2.8586,-2.7892,-2.8197,-2.8721,-2.8721,-2.8721,-2.8755,-2.8839,-2.9431,-3.0006,-3.0091,-3.0683,-3.119,-3.119,-3.119,-3.119,-3.119,-3.119,-3.119,-3.119,-3.119,-3.119,-3.119,-3.119,-3.119,-3.119,-3.119,-3.119,-3.119,-3.119,-3.119,-3.119,-3.119,-3.119,-3.119,-3.119,-3.119,-3.119,-3.119,-3.119,-3.119,-3.119,-3.119,-3.119,-3.119,-3.119,-1.5366,-1.5665,-1.5979,-1.5282,-1.5614,0.0,-1.571,-1.5533,-1.5778,0.0,-1.6814,-1.6981,-1.8988,-1.9469,-1.9756,-2.0339,-2.1109,-2.2073,-2.3427,-2.412,-2.4506,-2.4506,-2.4642,-2.4695,-2.4695,-2.4831,-2.5169,-2.5778,-2.6353,-2.6691,-2.6691,-2.6691,-2.6691,-2.6691,-2.6691,-2.6759,-2.6911,-2.6911,-2.6996,-2.7131,-2.7131,-2.7131,-2.7131,-2.7131,-2.7046,-2.6911,-2.6911,-2.6826,-2.6691,-2.6691,-2.6877,-2.7131,-2.6979,-2.6911,-2.6911,-2.6911,-2.6911,-2.6911,-2.6911,-2.7012,-2.7114,-2.6962,-2.7012,-2.7114,-2.6962,-2.7012,-2.7114,-2.6962,-2.7029,-2.7131,-2.7131,-2.7131,-2.73,-2.7909,-2.8636,-2.9364,-2.9973,-3.0683,-3.119,-3.119,-3.119,-3.119,-3.119,-3.119,-3.119,-3.119,-3.119,-3.119,-3.119,-3.119,-3.119,-3.119,-3.119,-3.119,-3.119,-3.119,-3.119,-3.119,-3.119,-3.119,-3.119,-3.119,-3.119,-3.119,-3.119,-3.119,-3.119,-3.119,-3.119,-3.119,-3.119,-3.119,-1.6922,-1.6982,-1.704,-1.6413,-1.6283,0.0,0.0,-1.5751,-1.5889,-1.7269,-1.7271,-1.7541,-1.9157,-1.9773,-2.0162,-2.0534,-2.1245,-2.187,-2.2243,-2.2936,-2.3393,-2.3393,-2.3714,-2.3934,-2.3934,-2.4286,-2.4644,-2.5017,-2.5389,-2.5592,-2.5592,-2.5947,-2.615,-2.615,-2.6505,-2.6691,-2.6691,-2.6691,-2.6691,-2.6691,-2.6691,-2.6691,-2.6691,-2.6691,-2.6691,-2.6691,-2.6691,-2.6691,-2.6691,-2.6691,-2.6691,-2.6691,-2.6691,-2.6691,-2.6691,-2.6691,-2.6691,-2.6691,-2.6691,-2.6691,-2.6691,-2.6691,-2.6691,-2.6691,-2.6691,-2.6691,-2.6691,-2.6691,-2.6691,-2.6691,-2.6691,-2.6691,-2.6793,-2.7165,-2.7841,-2.8602,-2.9381,-3.0125,-3.0768,-3.1123,-3.119,-3.119,-3.119,-3.119,-3.119,-3.119,-3.119,-3.119,-3.119,-3.119,-3.119,-3.119,-3.119,-3.119,-3.119,-3.119,-3.119,-3.119,-3.119,-3.119,-3.119,-3.119,-3.119,-3.119,-3.119,-3.119,-3.119,-3.119,-3.119,-3.119,-3.119,-3.119,-1.8253,-1.8104,-1.8011,-1.7757,-1.7089,-1.656,0.0,0.0,0.0,-1.7708,-1.8193,-1.867,-1.9613,0.0,0.0,-2.072,0.0,0.0,0.0,-2.1397,0.0,-2.187,-2.2649,-2.3122,-2.2987,-2.3494,-2.3998,-2.4286,-2.4167,-2.4188,-2.4489,-2.505,-2.5456,-2.5609,-2.6184,-2.6556,-2.6691,-2.6691,-2.6691,-2.6691,-2.6691,-2.6691,-2.6691,-2.6691,-2.6691,-2.6691,-2.6691,-2.6691,-2.6691,-2.6691,-2.6691,-2.6691,-2.6691,-2.6691,-2.6691,-2.6691,-2.6691,-2.6691,-2.6691,-2.6691,-2.6691,-2.6691,-2.6691,-2.6691,-2.6691,-2.6691,-2.6691,-2.6691,-2.6691,-2.6691,-2.6691,-2.6691,-2.6691,-2.6691,-2.7266,-2.8027,-2.8822,-2.9583,-3.0328,-3.1055,-3.119,-3.119,-3.119,-3.119,-3.119,-3.119,-3.119,-3.119,-3.119,-3.119,-3.119,-3.119,-3.119,-3.119,-3.119,-3.119,-3.119,-3.119,-3.119,-3.119,-3.119,-3.119,-3.119,-3.119,-3.119,-3.119,-3.119,-3.119,-3.119,-3.119,-3.119,-3.119,-1.948,-1.9465,-1.9181,-1.7981,-1.837,-1.8362,-1.5984,0.0,-1.6635,-1.6479,0.0,-1.7017,-1.8711,0.0,0.0,0.0,0.0,0.0,-1.9249,-1.9807,-2.0255,-2.0255,-2.1522,-2.2175,-2.1498,-2.1542,-2.2107,-2.3427,-2.2919,-2.3122,-2.4438,-2.4591,-2.4915,-2.5592,-2.5693,-2.6048,-2.6691,-2.6691,-2.6691,-2.6691,-2.6691,-2.6691,-2.6691,-2.6691,-2.6691,-2.6691,-2.6691,-2.6691,-2.6691,-2.6691,-2.6691,-2.6691,-2.6691,-2.6691,-2.6691,-2.6691,-2.6691,-2.6691,-2.6691,-2.6691,-2.6691,-2.6691,-2.6691,-2.6691,-2.6691,-2.6691,-2.6691,-2.6691,-2.6691,-2.6691,-2.6691,-2.6691,-2.6691,-2.6691,-2.7266,-2.8027,-2.8822,-2.9583,-3.0328,-3.1055,-3.119,-3.119,-3.119,-3.119,-3.119,-3.119,-3.119,-3.119,-3.119,-3.119,-3.119,-3.119,-3.119,-3.119,-3.119,-3.119,-3.119,-3.119,-3.119,-3.119,-3.119,-3.119,-3.119,-3.119,-3.119,-3.119,-3.119,-3.119,-3.119,-3.119,-3.119,-3.119,-1.969,-1.9874,-1.9771,-1.859,-1.857,0.0,-1.6498,0.0,-1.6586,0.0,0.0,0.0,0.0,0.0,0.0,0.0,-1.9452,0.0,0.0,0.0,-1.9536,-1.9951,0.0,0.0,-2.1153,-2.0771,-2.1126,-2.2649,-2.1667,-2.1634,-2.3139,-2.363,-2.3985,-2.4306,-2.4729,-2.5321,-2.6048,-2.6065,-2.6285,-2.6691,-2.6691,-2.6691,-2.6691,-2.6691,-2.6691,-2.6691,-2.6691,-2.6691,-2.6691,-2.6691,-2.6691,-2.6691,-2.6691,-2.6691,-2.6691,-2.6691,-2.6691,-2.6691,-2.6691,-2.6691,-2.6691,-2.6691,-2.6691,-2.6691,-2.6691,-2.6691,-2.6691,-2.6691,-2.6691,-2.6691,-2.6691,-2.6691,-2.6691,-2.6691,-2.6945,-2.7368,-2.8146,-2.8907,-2.9668,-3.0429,-3.0903,-3.119,-3.119,-3.119,-3.119,-3.119,-3.119,-3.119,-3.119,-3.119,-3.119,-3.119,-3.119,-3.119,-3.119,-3.119,-3.119,-3.119,-3.119,-3.119,-3.119,-3.119,-3.1004,-3.0581,-3.097,-3.0768,-2.9922,-3.0768,-3.097,-3.0581,-3.1004,-3.119,-1.969,0.0,0.0,0.0,0.0,0.0,0.0,0.0,0.0,0.0,0.0,0.0,0.0,0.0,0.0,0.0,0.0,-1.8454,0.0,-1.7777,0.0,0.0,0.0,0.0,0.0,-1.979,-1.9799,-2.1522,-2.0052,-1.9959,-2.1887,-2.2513,-2.297,-2.3376,-2.39,-2.4644,-2.5592,-2.5609,-2.5981,-2.6691,-2.6691,-2.6691,-2.6691,-2.6691,-2.6691,-2.6691,-2.6691,-2.6691,-2.6691,-2.6691,-2.6691,-2.6691,-2.6691,-2.6691,-2.6691,-2.6691,-2.6691,-2.6691,-2.6691,-2.6691,-2.6691,-2.6691,-2.6691,-2.6691,-2.6691,-2.6691,-2.6691,-2.6691,-2.6691,-2.6691,-2.6691,-2.6691,-2.6691,-2.6691,-2.6691,-2.6894,-2.762,-2.8433,-2.9211,-2.9973,-3.07,-3.119,-3.119,-3.119,-3.119,-3.119,-3.119,-3.119,-3.119,-3.119,-3.119,-3.119,-3.119,-3.119,-3.119,-3.119,-3.119,-3.119,-3.1004,-3.0903,-3.0903,-3.07,-3.0345,-2.9803,-3.0514,-3.026,-2.9011,-3.0277,-3.0675,-3.0262,-3.0913,-3.119,0.0,0.0,0.0,-1.8074,0.0,0.0,0.0,0.0,-1.7015,0.0,0.0,0.0,0.0,0.0,0.0,0.0,0.0,0.0,0.0,0.0,0.0,0.0,0.0,0.0,0.0,-1.8082,-1.771,0.0,-1.8031,-1.8104,-2.1085,-2.1271,-2.1904,-2.3342,-2.341,-2.4137,-2.5592,-2.5609,-2.5981,-2.6691,-2.6691,-2.6691,-2.6691,-2.6691,-2.6691,-2.6691,-2.6691,-2.6691,-2.6691,-2.6691,-2.6691,-2.6691,-2.6691,-2.6691,-2.6691,-2.6691,-2.6691,-2.6691,-2.6691,-2.6691,-2.6691,-2.6691,-2.6691,-2.6691,-2.6691,-2.6691,-2.6691,-2.6691,-2.6691,-2.6691,-2.6691,-2.6691,-2.6691,-2.6691,-2.6691,-2.6894,-2.762,-2.8433,-2.9211,-2.9973,-3.07,-3.119,-3.119,-3.119,-3.119,-3.119,-3.119,-3.119,-3.119,-3.119,-3.119,-3.119,-3.119,-3.119,-3.119,-3.119,-3.119,-3.119,-3.0531,-3.0142,-3.0142,-2.9448,-2.9042,-2.9062,-2.9753,-2.9753,-2.9011,-2.9753,-3.0319,-3.0699,-3.1031,-3.119,0.0,0.0,-1.9821,-1.865,0.0,0.0,0.0,0.0,0.0,0.0,0.0,0.0,0.0,0.0,0.0,0.0,0.0,0.0,0.0,0.0,0.0,0.0,0.0,0.0,0.0,0.0,-1.7946,-1.9181,-1.8572,0.0,-2.1102,-2.1651,-2.2158,-2.2665,-2.2682,-2.3156,-2.4137,-2.4137,-2.4763,-2.5981,-2.5981,-2.6234,-2.6691,-2.6691,-2.6691,-2.6691,-2.6691,-2.6691,-2.6691,-2.6691,-2.6691,-2.6691,-2.6691,-2.6691,-2.6691,-2.6691,-2.6691,-2.6691,-2.6691,-2.6691,-2.6691,-2.6691,-2.6691,-2.6691,-2.6691,-2.6691,-2.6691,-2.6691,-2.6691,-2.6691,-2.6691,-2.6691,-2.6691,-2.6691,-2.6691,-2.6759,-2.7012,-2.7672,-2.845,-2.9211,-2.9973,-3.0632,-3.1106,-3.119,-3.119,-3.119,-3.0784,-3.0649,-3.114,-3.0768,-3.048,-3.048,-3.048,-3.0277,-2.977,-3.0192,-3.048,-3.048,-3.0243,-2.9888,-2.9381,-2.911,-2.8738,-2.823,-2.8975,-2.8738,-2.7469,-2.8738,-2.944,-2.9604,-3.0467,-3.1286,-1.9747,-2.0,0.0,-1.8955,-1.8738,0.0,-1.733,0.0,-1.7652,0.0,0.0,0.0,0.0,0.0,0.0,0.0,0.0,0.0,0.0,-1.5037,0.0,0.0,0.0,0.0,0.0,-1.6576,-1.6864,-1.8386,-1.7777,0.0,0.0,-2.1228,-2.1725,-2.2293,-2.231,-2.2649,-2.3393,-2.3393,-2.4002,-2.5203,-2.5203,-2.5456,-2.5913,-2.6184,-2.6302,-2.6319,-2.659,-2.6691,-2.6691,-2.6691,-2.6691,-2.6691,-2.6691,-2.6691,-2.6691,-2.6691,-2.6691,-2.6691,-2.6691,-2.6691,-2.6691,-2.6691,-2.6691,-2.6691,-2.6691,-2.6691,-2.6691,-2.6691,-2.6691,-2.6691,-2.6691,-2.6691,-2.6691,-2.6691,-2.6691,-2.6691,-2.6691,-2.7283,-2.7941,-2.8467,-2.9194,-2.9854,-3.0328,-3.0176,-3.0277,-3.1072,-3.0801,-3.0666,-3.114,-3.0565,-3.0108,-3.0108,-3.0108,-2.9922,-2.9414,-2.9837,-2.9989,-2.9736,-2.9448,-2.9076,-2.8586,-2.8315,-2.7943,-2.7435,-2.818,-2.796,-2.6691,-2.796,-2.873,-2.9041,-2.9793,-3.097]}]]